[[{"header":{"parameterUnit":"m.s-1","parameterCategory":1,"la1":30.6,"la2":29.2853,"lo1":-89.7004,"lo2":-87.6739,"dy":0.0162,"dx":0.0183,"nx":112,"ny":82,"refTime":"2026-04-24T12:00:00:Z","depth":0,"parameterNumber":2,"parameterNumberName":"U-component_of_WINDS"},"data":[0.0,0.0,0.0,0.0,0.0,0.0,0.0,0.0,0.0,0.0,0.0,0.0,0.0,0.0,0.0,0.0,0.0,0.0,0.0,0.0,0.0,0.0,0.0,0.0,0.0,0.0,0.0,0.0,0.0,0.0,0.0,0.0,0.0,0.0,0.0,0.0,0.0,0.0,0.0,0.0,0.0,0.0,0.0,0.0,0.0,0.0,0.0,0.0,0.0,0.0,0.0,0.0,0.0,0.0,0.0,0.0,0.0,0.0,0.0,0.0,0.0,0.0,0.0,0.0,0.0,0.0,0.0,0.0,0.0,0.0,0.0,0.0,0.0,0.0,0.0,0.0,0.0,0.0,0.0,0.0,0.0,0.0,0.0,0.0,0.0,0.0,0.0,0.0,0.0,0.0,0.6316,0.8163,1.0472,1.1815,1.161,1.1929,1.1643,1.045,0.0,0.0,0.0,0.0,0.0,0.0,0.0,0.0,0.0,0.0,0.0,0.0,0.0,0.0,0.0,0.0,0.0,0.0,0.0,0.0,0.0,0.0,0.0,0.0,0.0,0.0,0.0,0.0,0.0,0.0,0.0,0.0,0.0,0.0,0.0,0.0,0.0,0.0,0.0,0.0,0.0,0.0,0.0,0.0,0.0,0.0,0.0,0.0,0.0,0.0,0.0,0.0,0.0,0.0,0.0,0.0,0.0,0.0,0.0,0.0,0.0,0.0,0.0,0.0,0.0,0.0,0.0,0.0,0.0,0.0,0.0,0.0,0.0,0.0,0.0,0.0,0.0,0.0,0.0,0.0,0.0,0.0,0.0,0.0,0.0,0.0,0.0,0.0,0.0,0.0,0.0,0.0,0.0,0.0,0.0,0.0,0.0,0.0,0.0,0.0,0.0,0.0,0.0,0.0,0.7005,0.9585,1.1414,1.248,1.2494,1.3273,1.3132,1.1723,0.0,0.0,0.0,0.0,0.0,0.0,0.0,0.0,0.0,0.0,0.0,0.0,0.0,0.0,0.0,0.0,0.0,0.0,0.0,0.0,0.0,0.0,0.0,0.0,0.0,0.0,0.0,0.0,0.0,0.0,0.0,0.0,0.0,0.0,0.0,0.0,0.0,0.0,0.0,0.0,0.0,0.0,0.0,0.0,0.0,0.0,0.0,0.0,0.0,0.0,0.0,0.0,0.0,0.0,0.0,0.0,0.0,0.0,0.0,0.0,0.0,0.0,0.0,0.0,0.0,0.0,0.0,0.0,0.0,0.0,0.0,0.0,0.0,0.0,0.0,0.0,0.0,0.0,0.0,0.0,0.0,0.0,0.0,0.0,0.0,0.0,0.0,0.0,0.0,0.0,0.0,0.0,0.0,0.0,0.0,0.0,0.0,0.0,0.0,0.0,0.0,0.0,0.0,0.6447,0.7972,0.9757,1.1335,1.2287,1.2304,1.3259,1.3316,1.1953,1.0765,0.0,0.0,0.0,0.0,0.0,0.0,0.0,0.0,0.0,0.0,0.0,0.0,0.0,0.0,0.0,0.0,0.0,0.0,0.0,0.0,0.0,0.0,0.0,0.0,0.0,0.0,0.0,0.0,0.0,0.0,0.0,0.0,0.0,0.0,0.0,0.0,0.0,0.0,0.0,0.0,0.0,0.0,0.0,0.0,0.0,0.0,0.0,0.0,0.0,0.0,0.0,0.0,0.0,0.0,0.0,0.0,0.0,0.0,0.0,0.0,0.0,0.0,0.0,0.0,0.0,0.0,0.0,0.0,0.0,0.0,0.0,0.0,0.0,0.0,0.0,0.0,0.0,0.0,0.0,0.0,0.0,0.0,0.0,0.0,0.0,0.0,0.0,0.0,0.0,0.0,0.0,0.0,0.0,0.0,0.0,0.0,0.0,0.0,0.0,0.0,0.0,0.0,0.7172,0.8414,0.9369,1.0809,1.1669,1.18,1.2742,1.2859,1.1654,1.123,0.0,0.0,0.0,0.0,0.0,0.0,0.0,0.0,0.0,0.0,0.0,0.0,0.0,0.0,0.0,0.0,0.0,0.0,0.0,0.0,0.0,0.0,0.0,0.0,0.0,0.0,0.0,0.0,0.0,0.0,0.0,0.0,0.0,0.0,0.0,0.0,0.0,0.0,0.0,0.0,0.0,0.0,0.0,0.0,0.0,0.0,0.0,0.0,0.0,0.0,0.0,0.0,0.0,0.0,0.0,0.0,0.0,0.0,0.0,0.0,0.0,0.0,0.0,0.0,0.0,0.0,0.0,0.0,0.0,0.0,0.0,0.0,0.0,0.0,0.0,0.0,0.0,0.0,0.0,0.0,0.0,0.0,0.0,0.0,0.0,0.0,0.0,0.0,0.0,0.0,0.0,0.0,0.0,0.0,0.0,0.0,0.0,0.0,0.0,0.0,0.0,0.0,0.6682,0.7768,0.8737,0.9929,1.0744,1.1122,1.1939,1.2012,1.1023,1.0835,0.0,0.0,0.0,0.0,0.0,0.0,0.0,0.0,0.0,0.0,0.0,0.0,0.0,0.0,0.0,0.0,0.0,0.0,0.0,0.0,0.0,0.0,0.0,0.0,0.0,0.0,0.0,0.0,0.0,0.0,0.0,0.0,0.0,0.0,0.0,0.0,0.0,0.0,0.0,0.0,0.0,0.0,0.0,0.0,0.0,0.0,0.0,0.0,0.0,0.0,0.0,0.0,0.0,0.0,0.0,0.0,0.0,0.0,0.0,0.0,0.0,0.0,0.0,0.0,0.0,0.0,0.0,0.0,0.0,0.0,0.0,0.0,0.0,0.0,0.0,0.0,0.0,0.0,0.0,0.0,0.0,0.0,0.0,0.0,0.0,0.0,0.0,0.0,0.0,0.0,0.0,0.0,0.0,0.0,0.0,0.0,0.0,0.0,0.0,0.0,0.0,0.0,0.6213,0.7173,0.7989,0.9285,1.0281,1.0614,1.1727,1.2079,1.1241,0.0,0.0,0.0,0.0,0.0,0.0,0.0,0.0,0.0,0.0,0.0,0.0,0.0,0.0,0.0,0.0,0.0,0.0,0.0,0.0,0.0,0.0,0.0,0.0,0.0,0.0,0.0,0.0,0.0,0.0,0.0,0.0,0.0,0.0,0.0,0.0,0.0,0.0,0.0,0.0,0.0,0.0,0.0,0.0,0.0,0.0,0.0,0.0,0.0,0.0,0.0,0.0,0.0,0.0,0.0,0.0,0.0,0.0,0.0,0.0,0.0,0.0,0.0,0.0,0.0,0.0,0.0,0.0,0.0,0.0,0.0,0.0,0.0,0.0,0.0,0.0,0.0,0.0,0.0,0.0,0.0,0.0,0.0,0.0,0.0,0.0,0.0,0.0,0.0,0.0,0.0,0.0,0.0,0.0,0.0,0.0,0.0,0.0,0.0,0.0,0.0,0.0,0.4834,0.5668,0.6506,0.7333,0.8634,0.967,1.0096,1.1182,1.1554,1.0845,0.0,0.0,0.0,0.0,0.0,0.0,0.0,0.0,0.0,0.0,0.0,0.0,0.0,0.0,0.0,0.0,0.0,0.0,0.0,0.0,0.0,0.0,0.0,0.0,0.0,0.0,0.0,0.0,0.0,0.0,0.0,0.0,0.0,0.0,0.0,0.0,0.0,0.0,0.0,0.0,0.0,0.0,0.0,0.0,0.0,0.0,0.0,0.0,0.0,0.0,0.0,0.0,0.0,0.0,0.0,0.0,0.0,0.0,0.0,0.0,0.0,0.0,0.0,0.0,0.0,0.0,0.0,0.0,0.0,0.0,0.0,0.0,0.0,0.0,0.0,0.0,0.0,0.0,0.0,0.0,0.0,0.0,0.0,0.0,0.0,0.0,0.0,0.0,0.0,0.0,0.0,0.0,0.0,0.0,0.0,0.0,0.0,0.0,0.0,0.0,0.0,0.0,0.446,0.5051,0.5822,0.6873,0.7952,0.8864,0.9508,1.018,1.0247,0.0,0.0,0.0,0.0,0.0,0.0,0.0,0.0,0.0,0.0,0.0,0.0,0.0,0.0,0.0,0.0,0.0,0.0,0.0,0.0,0.0,0.0,0.0,0.0,0.0,0.0,0.0,0.0,0.0,0.0,0.0,0.0,0.0,0.0,0.0,0.0,0.0,0.0,0.0,0.0,0.0,0.0,0.0,0.0,0.0,0.0,0.0,0.0,0.0,0.0,0.0,0.0,0.0,0.0,0.0,0.0,0.0,0.0,0.0,0.0,0.0,0.0,0.0,0.0,0.0,0.0,0.0,0.0,0.0,0.0,0.0,0.0,0.0,0.0,0.0,0.0,0.0,0.0,0.0,0.0,0.0,0.0,0.0,0.0,0.0,0.0,0.0,0.0,0.0,0.0,0.0,0.0,0.0,0.0,0.0,0.0,0.0,0.0,0.0,0.0,0.0,0.0,0.0,0.4474,0.5084,0.5877,0.6672,0.8075,0.9108,0.9579,1.0488,1.0646,0.9899,0.0,0.0,0.0,0.0,0.0,0.0,0.0,0.0,0.0,0.0,0.0,0.0,0.0,0.0,0.0,0.0,0.0,0.0,0.0,0.0,0.0,0.0,0.0,0.0,0.0,0.0,0.0,0.0,0.0,0.0,0.0,0.0,0.0,0.0,0.0,0.0,0.0,0.0,0.0,0.0,0.0,0.0,0.0,0.0,0.0,0.0,0.0,0.0,0.0,0.0,0.0,0.0,0.0,0.0,0.0,0.0,0.0,0.0,0.0,0.0,0.0,0.0,0.0,0.0,0.0,0.0,0.0,0.0,0.0,0.0,0.0,0.0,0.0,0.0,0.0,0.0,0.0,0.0,0.0,0.0,0.0,0.0,0.0,0.0,0.0,0.0,0.0,0.0,0.0,0.0,0.0,0.0,0.0,0.0,0.0,0.0,0.0,0.0,0.0,0.0,0.0,0.0,0.4477,0.5172,0.5951,0.6716,0.8255,0.928,0.9576,1.0451,1.0573,0.9687,0.0,0.0,0.0,0.0,0.0,0.0,0.0,0.0,0.0,0.0,0.0,0.0,0.0,0.0,0.0,0.0,0.0,0.0,0.0,0.0,0.0,0.0,0.0,0.0,0.0,0.0,0.0,0.0,0.0,0.0,0.0,0.0,0.0,0.0,0.0,0.0,0.0,0.0,0.0,0.0,0.0,0.0,0.0,0.0,0.0,0.0,0.0,0.0,0.0,0.0,0.0,0.0,0.0,0.0,0.0,0.0,0.0,0.0,0.0,0.0,0.0,0.0,0.0,0.0,0.0,0.0,0.0,0.0,0.0,0.0,0.0,0.0,0.0,0.0,0.0,0.0,0.0,0.0,0.0,0.0,0.0,0.0,0.0,0.0,0.0,0.0,0.0,0.0,0.0,0.0,0.0,0.0,0.0,0.0,0.0,0.0,0.0,0.0,0.0,0.0,0.0,0.0,0.4477,0.5247,0.609,0.6881,0.8374,0.9342,0.96,1.0192,1.0147,0.9104,0.0,0.0,0.0,0.0,0.0,0.0,0.0,0.0,0.0,0.0,0.0,0.0,0.0,0.0,0.0,0.0,0.0,0.0,0.0,0.0,0.0,0.0,0.0,0.0,0.0,0.0,0.0,0.0,0.0,0.0,0.0,0.0,0.0,0.0,0.0,0.0,0.0,0.0,0.0,0.0,0.0,0.0,0.0,0.0,0.0,0.0,0.0,0.0,0.0,0.0,0.0,0.0,0.0,0.0,0.0,0.0,0.0,0.0,0.0,0.0,0.7258,0.6483,0.0,0.0,0.0,0.0,0.0,0.0,0.0,0.0,0.0,0.0,0.0,0.0,0.0,0.0,0.0,0.0,0.0,0.0,0.0,0.0,0.0,0.0,0.0,0.0,0.0,0.0,0.0,0.0,0.0,0.0,0.0,0.0,0.0,0.0,0.0,0.0,0.0,0.0,0.0,0.0,0.4477,0.5247,0.609,0.6881,0.8374,0.9347,0.9465,1.0104,1.0019,0.8867,0.794,0.0,0.0,0.0,0.0,0.0,0.0,0.0,0.0,0.0,0.0,0.0,0.0,0.0,0.0,0.0,0.0,0.0,0.0,0.0,0.0,0.0,0.0,0.0,0.0,0.0,0.0,0.0,0.0,0.0,0.0,0.0,0.0,0.0,0.0,0.0,0.0,0.0,0.0,0.0,0.0,0.0,0.0,0.0,0.0,0.0,0.0,0.0,0.0,0.0,0.0,0.0,0.0,0.0,0.0,0.0,0.0,0.0,0.0,0.0,0.9285,0.8276,0.0,0.0,0.0,0.0,0.0,0.0,0.0,0.0,0.0,0.0,0.0,0.0,0.0,0.0,0.0,0.0,0.0,0.0,0.0,0.0,0.0,0.0,0.0,0.0,0.0,0.0,0.0,0.0,0.0,0.0,0.0,0.0,0.0,0.0,0.0,0.0,0.0,0.0,0.0,0.0,0.4524,0.5291,0.6058,0.6756,0.8147,0.9098,0.9082,0.9626,0.94,0.8265,0.7275,0.0,0.0,0.0,0.0,0.0,0.0,0.0,0.0,0.0,0.0,0.0,0.0,0.0,0.0,0.0,0.0,0.0,0.0,0.0,0.0,0.0,0.0,0.0,0.0,0.0,0.0,0.0,0.0,0.0,0.0,0.0,0.0,0.0,0.0,0.0,0.0,0.0,0.0,0.0,0.0,0.0,0.0,0.0,0.0,0.0,0.0,0.0,0.0,0.0,0.0,0.0,0.0,0.0,1.3333,1.3259,1.3035,1.2497,1.2545,1.3013,1.1471,1.0373,0.9656,0.9119,0.0,0.0,0.0,0.0,0.0,0.0,0.0,0.0,0.0,0.0,0.0,0.0,0.0,0.0,0.0,0.0,0.0,0.0,0.0,0.0,0.0,0.0,0.2712,0.2577,0.3227,0.3952,0.408,0.0,0.0,0.0,0.0,0.0,0.0,0.0,0.0,0.0,0.0,0.0,0.4636,0.5342,0.6026,0.6627,0.7975,0.8771,0.8758,0.9068,0.8748,0.7578,0.6534,0.5567,0.0,0.0,0.0,0.0,0.0,0.0,0.0,0.0,0.0,0.0,0.0,0.0,0.0,0.0,0.0,0.0,0.0,0.0,0.0,0.0,0.0,0.0,0.0,0.0,0.0,0.0,0.0,0.0,0.0,0.0,0.0,0.0,0.4472,0.5077,0.0,0.0,0.0,0.0,0.0,0.0,0.0,0.0,0.0,0.0,0.0,0.0,0.0,1.3279,1.4128,1.4437,1.4492,1.423,1.4395,1.4201,1.3649,1.3797,1.3975,1.4282,1.3992,0.0,1.1734,1.1113,0.0,0.0,0.0,0.0,0.0,0.0,0.0,0.0,0.0,0.0,0.0,0.0,0.0,0.0,0.0,0.0,0.0,0.0,0.0,0.0,0.0,0.0,0.1773,0.273,0.3574,0.4148,0.3848,0.3845,0.3905,0.3945,0.3933,0.3812,0.0,0.0,0.0,0.0,0.0,0.0,0.465,0.5342,0.6026,0.6627,0.7975,0.8771,0.8633,0.8952,0.8678,0.7364,0.6222,0.5241,0.421,0.3666,0.0,0.0,0.0,0.0,0.0,0.0,0.0,0.0,0.0,0.0,0.0,0.0,0.0,0.0,0.0,0.0,0.0,0.0,0.0,0.0,0.0,0.0,0.0,0.0,0.0,0.0,0.0,0.0,0.0,0.396,0.5297,0.551,0.6473,0.6967,0.0,0.0,0.0,0.0,0.0,0.0,0.0,0.0,0.0,1.3847,1.4541,1.5225,1.5811,1.5964,1.5976,1.5779,1.5771,1.5504,1.4944,1.4715,1.4736,1.501,1.501,1.4628,1.3913,1.2643,1.1229,0.9625,0.0,0.0,0.0,0.0,0.1404,0.0224,0.0074,-0.0,-0.0076,-0.0604,0.0,0.0,0.0,0.0,0.0,0.0,0.0,-0.2751,-0.1246,-0.0154,0.0718,0.148,0.2306,0.2884,0.2761,0.3377,0.4004,0.4195,0.4327,0.4328,0.4165,0.388,0.0,0.0,0.0,0.4636,0.502,0.5498,0.6026,0.6555,0.7803,0.8519,0.8302,0.8448,0.7991,0.6714,0.5808,0.489,0.3968,0.3646,0.3233,0.0,0.0,0.0,0.0,0.0,0.0,0.0,0.0,0.0,0.0,0.0,0.0,0.0,0.0,0.0,0.0,0.0,0.0,0.0,0.0,0.0,0.0,0.0,0.0,0.0,0.0,0.0,0.0,0.4472,0.5793,0.5944,0.7055,0.7702,0.0,0.0,0.0,0.0,0.0,0.0,1.2068,1.3844,1.5024,1.5435,1.6105,1.6598,1.6821,1.6976,1.692,1.676,1.6572,1.6291,1.5873,1.5416,1.5304,1.5504,1.5504,1.5504,1.5332,1.3963,1.2618,1.1166,0.9209,0.7482,0.5811,0.4212,0.2442,0.0737,0.0164,-0.0,-0.0,-0.0255,-0.0331,-0.0476,-0.1057,0.0,0.0,0.0,0.0,-0.1783,-0.0631,-0.0163,0.0084,0.0411,0.0902,0.1462,0.1723,0.2999,0.4173,0.4335,0.4668,0.4802,0.4613,0.4365,0.0,0.4487,0.468,0.4938,0.538,0.5654,0.6015,0.6553,0.7622,0.8191,0.7905,0.7877,0.7288,0.6077,0.5312,0.4577,0.3699,0.3247,0.2867,0.2506,0.0,0.0,0.0,0.0,0.0,0.0,0.0,0.0,0.0,0.0,0.0,0.0,0.0,0.0,0.0,0.0,0.0,0.0,0.0,0.0,0.0,0.0,0.0,0.0,0.0,0.0,0.0,0.0,0.0,0.6587,0.7818,0.0,0.0,0.0,0.0,1.008,1.1212,1.2484,1.3688,1.4848,1.5844,1.6555,1.6688,1.6846,1.6975,1.6898,1.674,1.633,1.6397,1.6197,1.5752,1.5752,1.5792,1.5805,1.5805,1.571,1.5475,1.506,1.4002,1.2569,1.1068,0.9243,0.725,0.5772,0.3782,0.165,0.0459,-0.0,-0.0,-0.0,-0.0,-0.0,-0.0079,-0.0077,0.0,0.0,-0.0078,-0.0081,-0.0081,-0.0,-0.0,-0.0,0.0084,0.0336,0.1255,0.2989,0.4368,0.4388,0.4898,0.5237,0.4945,0.0,0.4663,0.4677,0.4925,0.5169,0.5342,0.5745,0.618,0.6531,0.7362,0.7845,0.7514,0.7442,0.6841,0.5512,0.4875,0.4131,0.3238,0.2041,0.1387,0.1378,0.1226,0.0,0.0,0.0,0.0,0.0,0.0,0.0,0.0,0.0,0.0,0.0,0.0,0.0,0.0,0.0,0.0,0.0,0.0,0.0,0.0,0.0,0.0,0.0,0.0,0.0,0.0,0.0,0.0,0.6823,0.8054,0.0,0.9463,1.006,1.0694,1.1577,1.2731,1.378,1.4603,1.5837,1.6596,1.6798,1.6742,1.6642,1.658,1.6166,1.5958,1.5968,1.5992,1.5953,1.5772,1.5785,1.5932,1.6112,1.6112,1.6025,1.569,1.4979,1.3957,1.2665,1.1131,0.9319,0.7326,0.6143,0.421,0.1884,0.0471,-0.0,-0.0,-0.0,-0.0,-0.0,-0.0,-0.0,-0.0,-0.0,-0.0,-0.0,-0.0,-0.0,-0.0,-0.0,-0.0,0.0178,0.0777,0.2459,0.3878,0.3973,0.4924,0.561,0.5504,0.544,0.5406,0.5406,0.5494,0.5616,0.5772,0.5932,0.6159,0.6548,0.7081,0.7289,0.7112,0.7038,0.6437,0.5274,0.4681,0.3684,0.2244,0.1084,0.0485,0.0461,0.0742,0.0881,0.0,0.0,0.0,0.0,0.0,0.0,0.0,0.0,0.0,0.0,0.0,0.0,0.0,0.0,0.0,0.0,0.0,0.0,0.0,0.0,0.0,0.0,0.0,0.0,0.0,0.0,0.6207,0.6898,0.8182,0.931,0.9902,1.0704,1.143,1.2191,1.3376,1.4238,1.4794,1.5891,1.6422,1.6329,1.6116,1.5938,1.581,1.5258,1.5168,1.5255,1.5255,1.5255,1.5255,1.5255,1.5505,1.5778,1.5778,1.5537,1.5089,1.4253,1.3152,1.1843,1.0826,0.9324,0.7589,0.6527,0.4453,0.2078,0.0496,-0.0,-0.0,-0.0,-0.0,-0.0,-0.0,-0.0,-0.0,-0.0,-0.0,-0.0,-0.0,-0.0,-0.0,-0.0,-0.0,0.0093,0.0358,0.1764,0.3036,0.351,0.4776,0.5718,0.5739,0.5761,0.58,0.58,0.5844,0.5915,0.6017,0.6074,0.6259,0.6561,0.6795,0.6891,0.6712,0.6609,0.6067,0.502,0.4523,0.3515,0.1663,0.058,-0.0,-0.0,0.0352,0.0522,0.0539,0.0,0.0,0.0,0.0,0.0,0.0,0.0,0.0,0.0,0.0,0.0,0.0,0.0,0.0,0.0,0.0,0.0,0.0,0.0,0.0,0.0,0.0,0.0,0.2883,0.4723,0.6181,0.6811,0.8243,0.9296,0.9677,1.0714,1.151,1.192,1.2908,1.3756,1.4215,1.492,1.5217,1.5068,1.4909,1.4778,1.4586,1.4394,1.4202,1.4202,1.4202,1.4202,1.4202,1.4202,1.4346,1.4598,1.4598,1.4254,1.3674,1.3049,1.1906,1.0356,1.0344,0.9403,0.7839,0.6804,0.4678,0.2127,0.0533,-0.0,-0.0,-0.0,-0.0,-0.0,-0.0,-0.0,-0.0,-0.0,-0.0,-0.0,-0.0,-0.0,-0.0,-0.0,-0.0,-0.0,-0.0,0.0728,0.1781,0.2964,0.4444,0.5529,0.5689,0.5768,0.582,0.5817,0.5942,0.0,0.6037,0.6169,0.6338,0.6563,0.657,0.6512,0.6376,0.6207,0.5683,0.4625,0.4396,0.3515,0.1663,0.0581,-0.0,-0.0,-0.0,-0.0,-0.0,0.0,0.0,0.0,0.0,0.0,0.0,0.0,0.0,0.0,0.0,0.0,0.0,0.0,0.0,0.0,0.0,0.0,0.0,0.0,0.0,0.0,0.0272,0.2022,0.3909,0.5209,0.6198,0.6791,0.7842,0.8715,0.9352,1.0186,1.0783,1.1094,1.1551,1.1903,1.2232,1.2488,1.2637,1.28,1.2715,1.2753,1.263,1.2635,1.2533,1.2533,1.2533,1.2533,1.2533,1.2533,1.275,1.3223,1.3223,1.3044,1.2671,1.1916,1.0845,0.9637,0.9399,0.8151,0.6471,0.66,0.4047,0.0639,0.0107,-0.0,-0.0,-0.0,-0.0,-0.0,-0.0,-0.0,-0.0,-0.0,-0.0,-0.0,-0.0,-0.0,-0.0,-0.0,-0.0,-0.0,-0.0,0.0737,0.1543,0.1836,0.3587,0.5079,0.5442,0.5924,0.6254,0.6149,0.6169,0.6196,0.6196,0.6234,0.6338,0.6412,0.6131,0.6015,0.5943,0.5733,0.5223,0.4422,0.4333,0.3515,0.1663,0.0594,-0.0,-0.0,-0.0,-0.0,0.0,0.0,0.0,0.0,0.0,0.0,0.0,0.0,0.0,0.0,0.0,0.0,0.0,0.0,0.0,0.0,0.0,0.0,0.0,0.0,0.0,0.0,-0.012,0.1563,0.3338,0.4874,0.6003,0.6553,0.7535,0.8354,0.8884,0.9593,1.0187,1.0475,1.0608,1.0764,1.0976,1.1082,1.1144,1.1272,1.1277,1.1277,1.1277,1.1277,1.1175,1.1072,1.0974,1.0872,1.0769,1.0672,1.0784,1.1254,1.1254,1.1063,1.0878,1.0225,0.924,0.8131,0.0,0.0,0.0,0.0,0.3595,-0.0,-0.0,-0.0,-0.0,-0.0,-0.0,-0.0,-0.0,-0.0,-0.0,-0.0,-0.0,-0.0,-0.0,-0.0,-0.0,-0.0,-0.0,-0.0,-0.0,0.0471,0.0928,0.1347,0.3271,0.0,0.5118,0.5903,0.6444,0.6363,0.6298,0.6338,0.6338,0.6338,0.6338,0.6338,0.6044,0.5895,0.5895,0.5627,0.0,0.0,0.0,0.3246,0.148,0.0788,0.0,0.0,0.0,0.0,0.0,0.0465,0.0,0.0,0.0962,0.1813,0.0,0.0,0.0,0.0,0.0,0.0,0.0,0.0,0.0,0.0,0.0,0.0,0.0,0.0,0.0,0.0,-0.0779,0.0559,0.1775,0.3927,0.5526,0.6175,0.7188,0.8033,0.838,0.8914,0.9443,0.9697,0.9744,0.9833,1.0109,1.0117,0.0,0.0,0.0,1.0117,1.0117,1.0117,1.001,0.9702,0.9513,0.9213,0.8905,0.8609,0.8682,0.8981,0.8981,0.8845,0.8689,0.8472,0.7703,0.6717,0.7844,0.7513,0.6393,0.5394,0.2919,-0.0,-0.0,0.0,0.0,-0.0,-0.0,-0.0,-0.0,-0.0,-0.0,-0.0,-0.0,-0.0,-0.0,-0.0,-0.0,-0.0,-0.0,-0.0,-0.0,-0.0,0.0285,0.1115,0.3184,0.4814,0.4713,0.5707,0.6519,0.6502,0.6376,0.6285,0.6285,0.6271,0.6338,0.6338,0.6122,0.0,0.603,0.5776,0.5405,0.4914,0.4066,0.2935,0.149,0.1422,0.1422,0.1426,0.1384,0.1421,0.1421,0.1381,0.142,0.1422,0.1969,0.3258,0.0,0.0,0.0,0.0,0.0,0.0,0.0,0.0,0.0,0.0,0.0,0.0,0.0,0.0,0.0,-0.3906,-0.2449,-0.0875,0.0232,0.226,0.4244,0.5765,0.6711,0.7333,0.7583,0.7834,0.8001,0.8179,0.8314,0.84,0.8432,0.8435,0.8435,0.8435,0.8435,0.8435,0.8435,0.8435,0.8233,0.773,0.8151,0.0,0.7453,0.7045,0.6881,0.7012,0.712,0.7376,0.7504,0.7507,0.7859,0.8106,0.5609,0.505,0.5396,0.3255,0.1458,-0.0,-0.0,-0.0,-0.0,-0.0,-0.0,-0.0,-0.0,-0.0,0.0,-0.0,-0.0,-0.0,-0.0,-0.0,-0.0,-0.0,-0.0,-0.0,-0.0,-0.0,0.0193,0.0745,0.2486,0.401,0.4376,0.5742,0.68,0.6675,0.6529,0.643,0.643,0.6332,0.6338,0.6338,0.6122,0.603,0.603,0.5864,0.562,0.5263,0.4183,0.3481,0.3255,0.3308,0.3303,0.3251,0.3288,0.3301,0.3301,0.328,0.3249,0.3255,0.2651,0.2768,0.0,0.0,0.0,0.0,0.0,0.0,0.0,0.0,0.0,0.0,0.0,-0.4918,-0.495,0.0,-0.4677,-0.4681,-0.4077,-0.3022,-0.1365,0.0577,0.2783,0.5362,0.6089,0.6511,0.6719,0.6801,0.6923,0.7119,0.7198,0.7238,0.7238,0.7238,0.7238,0.7238,0.7238,0.7238,0.7238,0.7238,0.6836,0.6232,0.6753,0.6456,0.5648,0.4736,0.442,0.436,0.4466,0.4665,0.4931,0.4935,0.5841,0.6868,0.3815,0.2692,0.2581,0.1346,0.0561,-0.0,-0.0,-0.0,-0.0,-0.0,-0.0,-0.0,-0.0,-0.0,-0.0,-0.0,-0.0,-0.0,-0.0,-0.0,-0.0,-0.0,-0.0,-0.0,-0.0,-0.0,0.0097,0.0283,0.1489,0.275,0.3683,0.5497,0.673,0.6665,0.6599,0.6559,0.6481,0.641,0.6339,0.6345,0.6193,0.6146,0.6146,0.5929,0.559,0.5156,0.4537,0.4074,0.3897,0.3911,0.3909,0.3892,0.3911,0.3909,0.4028,0.4028,0.3989,0.3966,0.3664,0.3853,0.0,0.0,0.0,0.0,0.0,0.0,0.0,0.0,-0.5853,-0.5982,-0.5543,-0.5213,-0.5426,-0.5434,-0.5395,-0.5078,-0.5306,-0.4817,-0.3057,-0.1164,0.1007,0.389,0.5122,0.5809,0.6029,0.6072,0.6176,0.6391,0.6426,0.6439,0.6439,0.6439,0.6439,0.6439,0.6439,0.6439,0.6439,0.6439,0.6039,0.5438,0.6055,0.5653,0.434,0.2724,0.1955,0.1915,0.1928,0.2074,0.2129,0.2131,0.3482,0.5176,0.2693,0.1009,-0.0,-0.0,-0.0,-0.0,-0.0,-0.0,-0.0,-0.0,-0.0,-0.0,-0.0,-0.0,-0.0,-0.0,-0.0,-0.0,-0.0,-0.0,-0.0,-0.0,-0.0,-0.0,-0.0,-0.0,-0.0,-0.0,0.0564,0.1474,0.2694,0.4652,0.6228,0.6464,0.6668,0.6702,0.6576,0.6508,0.6427,0.6315,0.6355,0.6338,0.6338,0.6069,0.5706,0.5198,0.5047,0.4778,0.4372,0.4367,0.4367,0.4367,0.4367,0.4412,0.4499,0.4499,0.4499,0.4501,0.4818,0.5203,-0.3356,-0.3971,-0.4653,-0.5438,-0.5852,-0.6184,0.0,0.0,-0.623,-0.6349,-0.5847,-0.5437,-0.5585,-0.5693,-0.5734,-0.56,-0.5442,-0.5277,-0.5036,-0.301,-0.1238,-0.0517,0.3175,0.5695,0.5736,0.5938,0.6154,0.6388,0.6393,0.6448,0.6448,0.6448,0.6448,0.6448,0.6448,0.6448,0.6448,0.6448,0.6356,0.6271,0.7299,0.6687,0.4651,0.1615,0.0309,0.032,0.022,0.0335,0.0336,0.0336,0.2356,0.5176,0.2693,0.1009,-0.0,-0.0,-0.0,-0.0,-0.0,-0.0,-0.0,-0.0,-0.0,-0.0,-0.0,-0.0,-0.0,-0.0,-0.0,-0.0,-0.0,-0.0,-0.0,-0.0,-0.0,-0.0,-0.0,-0.0,-0.0,-0.0,0.0095,0.0375,0.1171,0.2862,0.4559,0.5974,0.6564,0.6898,0.6878,0.6641,0.6468,0.6451,0.6335,0.6338,0.6338,0.6244,0.6169,0.5939,0.5854,0.5788,0.5639,0.5633,0.5633,0.5633,0.5633,0.5639,0.5656,0.5656,0.5656,0.5659,0.5795,0.5555,-0.348,-0.4011,-0.4511,0.0,-0.6072,-0.6649,-0.7041,-0.6977,-0.6832,-0.6687,-0.6187,-0.5734,-0.5799,-0.5998,-0.6088,0.0,-0.5983,-0.5761,-0.5419,-0.4622,-0.3773,-0.2877,-0.1469,0.0355,0.2666,0.2913,0.3067,0.3223,0.3184,0.3118,0.3118,0.3118,0.3118,0.3118,0.3118,0.3118,0.3118,0.3118,0.3019,0.2924,0.414,0.394,0.2425,0.0707,-0.0,-0.0,-0.0,-0.0,-0.0,-0.0,0.0897,0.2132,0.1121,0.0449,-0.0,-0.0,-0.0,-0.0,-0.0,-0.0,-0.0,-0.0,-0.0,-0.0,-0.0,-0.0,-0.0,-0.0,-0.0,-0.0,-0.0,-0.0,-0.0,-0.0,-0.0,-0.0,-0.0,-0.0,-0.0,-0.0,-0.0,0.0186,0.0901,0.179,0.2862,0.4291,0.5676,0.667,0.6678,0.6652,0.6539,0.6369,0.6295,0.6338,0.6338,0.6338,0.6234,0.6169,0.6166,0.6095,0.5939,0.5935,0.5935,0.5935,0.5935,0.5979,0.6067,0.6067,0.6067,0.6071,0.6135,0.6053,-0.3922,0.0,0.0,-0.5541,-0.6431,-0.7233,-0.7529,-0.7588,-0.739,-0.7089,-0.6553,-0.6193,-0.6193,-0.6364,-0.6583,-0.6583,-0.6615,-0.6447,-0.5921,-0.5857,-0.5425,-0.4474,-0.4664,-0.3834,-0.0993,-0.0742,-0.0855,-0.0871,-0.0987,-0.1,-0.1004,-0.1005,-0.1005,-0.1005,-0.1005,-0.1005,-0.1005,-0.1005,-0.0905,-0.0806,0.0604,0.1009,0.0606,0.0204,-0.0,-0.0,-0.0,-0.0,-0.0,-0.0,-0.0,-0.0,-0.0,-0.0,-0.0,-0.0,-0.0,-0.0,-0.0,-0.0,-0.0,-0.0,-0.0,-0.0,-0.0,-0.0,-0.0,-0.0,-0.0,-0.0,-0.0,-0.0,-0.0,-0.0,-0.0,-0.0,-0.0,-0.0,-0.0,-0.0,-0.0,0.0184,0.063,0.1075,0.17,0.2593,0.4556,0.6042,0.639,0.6564,0.6586,0.6291,0.6338,0.6338,0.6338,0.6338,0.6338,0.6338,0.6338,0.621,0.6098,0.6095,0.6095,0.6095,0.6095,0.6149,0.6338,0.6338,0.6338,0.6338,0.6338,0.6338,0.0,0.0,-0.525,-0.637,-0.7235,-0.7887,-0.8388,-0.8196,-0.7949,-0.7728,-0.7087,-0.6551,-0.6551,-0.6917,-0.7162,-0.7162,-0.7299,-0.733,-0.6949,-0.6321,-0.5755,-0.5419,-0.4964,-0.4655,-0.4674,-0.4777,-0.503,-0.5327,-0.5432,-0.5436,-0.5427,-0.5434,-0.5434,-0.5434,-0.5434,-0.5434,-0.5434,-0.5434,-0.4933,-0.3831,-0.2214,-0.0906,-0.0,-0.0,-0.0,-0.0,-0.0,-0.0,-0.0,-0.0,-0.0,-0.0,-0.0,-0.0,-0.0,-0.0,-0.0,-0.0,-0.0,-0.0,-0.0,-0.0,-0.0,-0.0,-0.0,-0.0,-0.0,-0.0,-0.0,-0.0,-0.0,-0.0,-0.0,-0.0,-0.0,-0.0,-0.0,-0.0,-0.0,-0.0,-0.0,-0.0,-0.0,0.0807,0.1434,0.1432,0.3396,0.5186,0.5988,0.6455,0.6586,0.6291,0.6338,0.6338,0.6338,0.6338,0.6338,0.6338,0.6338,0.6257,0.6254,0.6254,0.6254,0.6254,0.6254,0.6254,0.6338,0.6338,0.6338,0.6338,0.6338,0.6338,-0.5263,0.0,-0.607,-0.7207,-0.8313,-0.9087,-0.9244,-0.9257,-0.9142,-0.8671,-0.8157,-0.7813,-0.7813,-0.7929,-0.8068,-0.8203,-0.8356,-0.8295,-0.8134,-0.7639,-0.719,-0.678,-0.6273,-0.6083,-0.6221,-0.5492,0.0,-0.5601,-0.5904,-0.6015,-0.6121,-0.6126,-0.6029,-0.5832,-0.5734,-0.5636,-0.5636,-0.5636,-0.5233,-0.4533,-0.2518,-0.1411,-0.111,-0.1153,-0.1172,-0.1174,-0.0774,-0.0336,-0.0,-0.0,-0.0,-0.0,-0.0,-0.0,-0.0,-0.0,-0.0,-0.0,-0.0,-0.0,-0.0,-0.0,-0.0,-0.0,-0.0,-0.0,-0.0,-0.0,-0.0,-0.0,-0.0,-0.0,-0.0,-0.0,-0.0,-0.0,-0.0,-0.0,-0.0,-0.0,-0.0,-0.0,-0.0,0.0808,0.1974,0.3578,0.4736,0.5662,0.6364,0.6595,0.6586,0.6291,0.6338,0.6338,0.6338,0.6338,0.6338,0.6338,0.6338,0.6338,0.6338,0.6338,0.6338,0.6338,0.6338,0.6338,0.6338,0.6338,0.6338,0.6338,0.6338,0.6338,-0.6115,-0.6557,-0.7049,-0.8035,-0.9062,-0.9892,-0.9933,-0.9971,-0.9868,-0.9355,-0.8898,-0.8575,-0.8424,-0.8477,-0.8663,-0.8957,-0.9134,-0.9254,-0.911,-0.8704,-0.8286,-0.7899,-0.7554,-0.7323,0.0,0.0,0.0,-0.6629,-0.7092,-0.7511,-0.7707,-0.7717,-0.7518,-0.7123,-0.6731,-0.6437,-0.6437,-0.6437,-0.6239,-0.5741,-0.3827,-0.3021,-0.3025,-0.3244,-0.3405,-0.3412,-0.2539,-0.1568,-0.056,-0.0224,-0.0,-0.0,-0.0,-0.0,-0.0,-0.0,-0.0,-0.0,-0.0,-0.0,-0.0,-0.0,-0.0,-0.0,-0.0,-0.0,-0.0,-0.0,-0.0,-0.0,-0.0,-0.0,-0.0,-0.0,-0.0,-0.0,-0.0,-0.0,-0.0,-0.0,-0.0,-0.0,-0.0,0.0629,0.1884,0.4204,0.4919,0.5547,0.6572,0.6702,0.6586,0.6291,0.6338,0.6338,0.6338,0.6338,0.6338,0.6338,0.6338,0.6338,0.6338,0.6338,0.6338,0.6338,0.6338,0.6338,0.6338,0.6338,0.6338,0.6338,0.6338,0.6338,-0.7308,-0.7772,-0.8208,-0.8927,-0.9688,-1.0258,-1.0322,-1.0364,-1.0253,-0.9781,-0.94,-0.9011,0.0,0.0,-0.9057,-0.9319,-0.9793,-1.0143,-1.0018,-0.9648,-0.9252,0.0,0.0,0.0,0.0,0.0,0.0,-0.8594,-0.9161,-0.9695,-0.9998,-1.0006,-0.9706,-0.9217,-0.8432,-0.8038,-0.8038,-0.8041,-0.7846,-0.7459,-0.6139,-0.5534,-0.5644,-0.5962,-0.6169,-0.6184,-0.5076,-0.358,-0.1789,-0.056,-0.0,-0.0,-0.0,-0.0,-0.0,-0.0,-0.0,-0.0,-0.0,-0.0,-0.0,-0.0,-0.0,-0.0,-0.0,-0.0,-0.0,-0.0,-0.0,-0.0,-0.0,-0.0,-0.0,-0.0,-0.0,-0.0,-0.0,-0.0,-0.0,-0.0,-0.0,-0.0,-0.0,0.0359,0.1344,0.3221,0.3939,0.4849,0.6499,0.6705,0.659,0.6302,0.6342,0.6338,0.6338,0.6338,0.6338,0.6338,0.6338,0.6338,0.6338,0.6338,0.6338,0.6338,0.6338,0.6338,0.6338,0.6338,0.6338,0.6338,0.6338,0.6338,-0.8117,-0.8904,-0.9639,-1.0128,-1.0653,-1.1094,-1.1204,-1.1206,-1.1188,-1.088,-1.0379,-0.9932,0.0,0.0,0.0,-1.02,-1.0754,0.0,-1.093,-1.0912,0.0,-1.0354,0.0,-0.9926,-1.0,-1.0003,0.0,0.0,-1.0288,-1.0094,-0.9998,-1.0015,-0.9723,-0.9229,-0.8829,-0.8627,-0.8627,-0.8237,-0.7637,-0.6936,-0.6434,-0.5934,-0.5644,-0.5851,-0.5946,-0.5958,-0.5402,-0.4587,-0.3469,-0.1679,-0.056,-0.0,-0.0,-0.0,-0.0,-0.0,-0.0,-0.0,-0.0,-0.0,-0.0,-0.0,-0.0,-0.0,-0.0,-0.0,-0.0,-0.0,-0.0,-0.0,-0.0,-0.0,-0.0,-0.0,-0.0,-0.0,-0.0,-0.0,-0.0,-0.0,-0.0,-0.0,-0.0,0.009,0.0627,0.179,0.2862,0.4251,0.612,0.6354,0.6384,0.6437,0.6325,0.6338,0.6338,0.6338,0.6338,0.6338,0.6338,0.6338,0.6338,0.6338,0.6338,0.6338,0.6338,0.6338,0.6338,0.6338,0.6338,0.6338,0.6338,0.6338,-0.9238,-0.9995,-1.0623,-1.0931,-1.1236,-1.1455,-1.1453,-1.1532,-1.1455,-1.1079,-1.0555,0.0,-0.9829,-0.9703,0.0,0.0,0.0,0.0,-1.152,-1.1707,-1.1662,0.0,-1.1239,0.0,-1.1209,-1.1284,-1.1478,0.0,-1.1119,-1.0655,-1.0489,-1.0207,-0.9817,-0.9529,-0.9418,-0.9316,-0.9316,-0.8825,-0.8131,-0.7335,-0.7135,-0.6936,-0.6645,-0.6889,-0.7001,-0.7015,-0.6717,-0.6376,-0.5819,-0.3691,-0.2014,-0.0784,-0.0224,-0.0,-0.0,-0.0,-0.0,-0.0,-0.0,-0.0,-0.0,-0.0,-0.0,-0.0,-0.0,-0.0,-0.0,-0.0,-0.0,-0.0,-0.0,-0.0,-0.0,-0.0,-0.0,-0.0,-0.0,-0.0,-0.0,-0.0,-0.0,-0.0,-0.0,-0.0,0.0359,0.1254,0.1969,0.3204,0.528,0.5863,0.6216,0.6495,0.6403,0.6329,0.6345,0.6338,0.6338,0.6338,0.6338,0.6338,0.6338,0.6338,0.6338,0.6338,0.6338,0.6338,0.6338,0.6338,0.6338,0.6338,0.6338,0.6338,-1.0403,-1.102,-1.1451,-1.1407,-1.1486,-1.1475,-1.1436,-1.142,-1.1307,-1.0787,0.0,-0.9761,-0.9266,-0.9324,-0.9664,-1.0207,0.0,-1.1459,-1.1727,-1.2061,-1.2159,-1.2074,-1.2189,-1.2237,-1.2272,-1.2592,-1.2767,-1.2666,-1.1962,-1.1515,-1.1272,-1.0498,-1.0105,-1.0212,-1.0203,-1.0297,-1.0194,-0.9608,-0.8924,-0.8137,-0.8038,-0.8038,-0.8052,-0.8347,-0.8482,-0.8499,-0.8144,-0.8162,-0.806,-0.5926,-0.3911,-0.2012,-0.0784,-0.0224,-0.0224,-0.0112,-0.0112,-0.0,-0.0,-0.0,-0.0,-0.0,-0.0,-0.0,-0.0,-0.0,-0.0,-0.0,-0.0,-0.0,-0.0,-0.0,-0.0,-0.0,-0.0,-0.0,-0.0,-0.0,-0.0,-0.0,-0.0,-0.0,-0.0,-0.0,0.0269,0.1077,0.1344,0.2236,0.4561,0.5441,0.6051,0.6451,0.6485,0.6413,0.6274,0.6338,0.6338,0.6338,0.6338,0.6338,0.6338,0.6338,0.6338,0.6338,0.6338,0.6338,0.6338,0.6338,0.6338,0.6338,0.6338,0.6338,-1.1272,-1.2102,-1.2822,-1.2175,-1.1823,-1.1567,-1.1503,-1.1267,0.0,0.0,-1.003,-0.9567,-0.9426,-0.9468,-0.9643,-1.0133,0.0,-1.1141,-1.1591,-1.2046,-1.2411,0.0,-1.3183,-1.3393,-1.3717,-1.3998,0.0,0.0,-1.3401,-1.262,-1.157,-1.0998,-1.0895,-1.1272,-1.158,-1.1575,-1.1365,-1.0596,-0.9719,-0.8627,-0.8432,-0.8237,-0.8052,-0.8347,-0.8482,-0.8499,-0.8471,-0.8152,-0.7598,-0.6482,-0.5144,-0.3582,-0.2127,-0.1457,-0.1458,-0.0897,-0.0449,-0.0,-0.0,-0.0,-0.0,-0.0,-0.0,-0.0,-0.0,-0.0,-0.0,-0.0,-0.0,-0.0,-0.0,-0.0,-0.0,-0.0,-0.0,-0.0,-0.0,-0.0,-0.0,-0.0,-0.0,-0.0,-0.0,-0.0,0.009,0.018,0.0897,0.2239,0.4652,0.5359,0.5834,0.6599,0.6549,0.6413,0.6274,0.6338,0.6338,0.6338,0.6338,0.6338,0.6338,0.6338,0.6338,0.6338,0.6338,0.6338,0.6338,0.6338,0.6338,0.6338,0.6338,0.6338,-1.2071,-1.2709,-1.3209,-1.2938,-1.2329,-1.1822,-1.182,0.0,0.0,0.0,-0.9533,-0.902,-0.9213,-0.9273,0.0,-1.0222,-1.0662,-1.1092,-1.1675,-1.2102,0.0,-1.314,-1.3467,-1.3761,0.0,-1.4489,-1.4625,-1.4398,-1.4241,-1.357,-1.2446,-1.196,-1.2052,-1.2818,-1.2931,-1.2931,-1.2818,-1.1858,-1.0788,-0.941,-0.9019,-0.8531,-0.8052,-0.8347,-0.8482,-0.8499,-0.8692,-0.8488,-0.8266,-0.7487,-0.6821,-0.6156,-0.4585,-0.4029,-0.4033,-0.3136,-0.2016,-0.0895,-0.0224,-0.0,-0.0,-0.0,-0.0,-0.0,-0.0,-0.0,-0.0,-0.0,-0.0,-0.0,-0.0,-0.0,-0.0,-0.0,-0.0,-0.0,-0.0,-0.0,-0.0,-0.0,-0.0,-0.0,-0.0,-0.0,-0.0,-0.0,0.0808,0.224,0.4652,0.5144,0.5656,0.6559,0.6634,0.6502,0.6281,0.6338,0.6338,0.6338,0.6338,0.6338,0.6338,0.6338,0.6338,0.6338,0.6338,0.6338,0.6338,0.6338,0.6338,0.6338,0.6338,0.6338,-1.2657,-1.3257,-1.3647,-1.3551,-1.2895,-1.219,-1.2026,-1.1368,0.0,0.0,-0.9064,-0.8571,-0.8827,0.0,-0.95,0.0,-1.0506,-1.0944,-1.1597,-1.1881,-1.2291,0.0,-1.3367,0.0,-1.4055,-1.4623,0.0,-1.4681,-1.4846,-1.4388,-1.3216,-1.3119,-1.3409,-1.4076,-1.4094,-1.3998,-1.3884,-1.2829,-1.157,-1.0002,-0.9414,-0.8726,-0.8052,-0.8347,-0.8482,-0.8499,-0.8804,-0.894,-0.8826,-0.838,-0.8162,-0.806,-0.6707,-0.6265,-0.6161,-0.5039,-0.3692,-0.2125,-0.0784,-0.0336,-0.0336,-0.0336,-0.0224,-0.0,-0.0,-0.0,-0.0,-0.0,-0.0,-0.0,-0.0,-0.0,-0.0,-0.0,-0.0,-0.0,-0.0,-0.0,-0.0,-0.0,-0.0,-0.0,-0.0,-0.0,-0.0,-0.0,0.0808,0.224,0.4652,0.501,0.5465,0.6609,0.6749,0.6641,0.6376,0.6356,0.6356,0.6356,0.6325,0.6305,0.6305,0.6278,0.6338,0.6338,0.6338,0.6338,0.6338,0.6338,0.6338,0.6338,0.6338,0.6278,-1.3008,-1.3847,-1.4576,-1.3799,-1.3185,-1.2618,-1.1731,0.0,0.0,-0.9262,-0.8717,-0.8415,-0.8454,-0.9081,-0.9601,0.0,0.0,-1.0261,0.0,-1.1052,-1.153,-1.2728,0.0,0.0,-1.4035,-1.4623,-1.4963,-1.4963,-1.5411,-1.5057,-1.3511,-1.3902,-1.4298,-1.4592,-1.4592,-1.4394,-1.3902,-1.2651,-1.1389,-1.0019,-0.9221,-0.8528,-0.8052,-0.8347,-0.8482,-0.8499,-0.8804,-0.894,-0.8826,-0.8598,-0.8152,-0.7595,-0.7263,-0.6821,-0.6265,-0.5594,-0.47,-0.3805,-0.2127,-0.1681,-0.1683,-0.1683,-0.0897,-0.0,-0.0,-0.0,-0.0,-0.0,-0.0,-0.0,-0.0,-0.0,-0.0,-0.0,-0.0,-0.0,-0.0,-0.0,-0.0,-0.0,-0.0,-0.0,-0.0,-0.0,-0.0,-0.0,0.0808,0.224,0.4652,0.501,0.5494,0.6754,0.6909,0.6841,0.6675,0.6661,0.6661,0.6661,0.6529,0.6454,0.6454,0.6329,0.6338,0.6338,0.6338,0.6338,0.6338,0.6338,0.6338,0.6338,0.6338,0.6329,-1.2861,-1.351,-1.3967,-1.371,-1.3011,-1.2333,-1.1912,0.0,-0.9727,-0.9131,-0.8457,-0.8145,-0.8662,-0.9023,-0.9416,0.0,-1.0185,-1.0422,-1.0994,-1.1167,-1.1628,-1.258,-1.2822,0.0,0.0,0.0,-1.4917,-1.5444,-1.5698,-1.554,-1.4962,-1.5064,-1.5255,-1.5356,-1.5077,-1.4586,-1.389,-1.2834,-1.1477,-1.0006,-0.9316,-0.8627,-0.8045,-0.8258,-0.8401,-0.8492,-0.871,-0.8855,-0.8937,-0.8826,-0.8602,-0.8377,-0.8269,-0.8048,-0.7823,-0.7152,-0.6824,-0.649,-0.492,-0.4364,-0.4482,-0.4482,-0.4003,-0.3082,-0.1095,-0.0216,-0.0,-0.0,-0.0,-0.0,-0.0,-0.0,-0.0,-0.0,-0.0,-0.0,-0.0,-0.0,-0.0,-0.0,-0.0,-0.0,-0.0,-0.0,-0.0,-0.0,0.0808,0.224,0.4652,0.501,0.5526,0.6886,0.698,0.6868,0.6712,0.6702,0.6702,0.6702,0.6556,0.6471,0.6471,0.6335,0.6338,0.6338,0.6338,0.6338,0.6338,0.6338,0.6338,0.6342,0.6349,0.6417,-1.2545,-1.3201,-1.36,-1.348,-1.2906,-1.2223,0.0,-1.0612,-0.9476,-0.9092,-0.8289,-0.7919,-0.8682,-0.8916,-0.924,0.0,-1.0303,-1.058,-1.0891,-1.1175,-1.1535,0.0,0.0,-1.2852,0.0,-1.4202,-1.4943,-1.5651,-1.5785,-1.5832,-1.5832,-1.5642,-1.5547,-1.5547,-1.4975,-1.419,-1.3397,-1.2344,-1.1077,-0.9805,-0.9217,-0.8627,-0.8045,-0.8201,-0.8326,-0.8428,-0.8577,-0.8703,-0.8804,-0.8804,-0.8804,-0.8808,-0.8852,-0.8872,-0.8766,-0.8364,-0.8162,-0.7943,-0.6707,-0.6376,-0.6272,-0.6272,-0.6086,-0.5339,-0.282,-0.1284,-0.0421,-0.0103,-0.0,-0.0,-0.0,-0.0,-0.0,-0.0,-0.0,-0.0,-0.0,-0.0,-0.0,-0.0,-0.0,-0.0,-0.0,-0.0,-0.0,-0.0,0.0808,0.224,0.4652,0.501,0.5542,0.6962,0.7051,0.6949,0.6841,0.6831,0.6831,0.6831,0.6692,0.6586,0.6542,0.64,0.6302,0.6338,0.6338,0.6338,0.6338,0.6338,0.6281,0.6325,0.6427,0.6522,-1.2234,-1.3189,-1.3883,-1.3105,-1.2881,-1.2539,-1.1221,-1.0215,-0.9476,-0.9092,-0.8289,-0.7832,-0.8332,-0.873,-0.9081,-0.9262,-1.0027,-1.0532,-1.0316,-1.0794,-1.1243,0.0,0.0,-1.2545,-1.316,-1.4275,-1.5084,-1.5378,-1.5665,-1.5832,-1.5832,-1.5363,-1.5083,-1.5083,-1.41,-1.3119,-1.2339,-1.1086,-1.001,-0.9217,-0.8627,-0.8233,-0.8045,-0.8201,-0.8272,-0.8282,-0.8421,-0.8486,-0.8486,-0.8486,-0.8486,-0.8503,-0.8655,-0.8713,-0.873,-0.8543,-0.8149,-0.7593,-0.7265,-0.6818,-0.6262,-0.6262,-0.6189,-0.5865,-0.5233,-0.3462,-0.134,-0.0304,-0.0,-0.0,-0.0,-0.0,-0.0,-0.0,-0.0,-0.0,-0.0,-0.0,-0.0,-0.0,-0.0,-0.0,-0.0,-0.0,-0.0,-0.0,0.0808,0.224,0.4652,0.501,0.5542,0.6962,0.7139,0.7136,0.7136,0.7136,0.7136,0.7136,0.7004,0.6858,0.6705,0.6552,0.6403,0.6264,0.6338,0.6338,0.6338,0.6338,0.6332,0.6471,0.6471,0.6634,-1.1476,-1.2049,-1.2314,-1.2086,-1.1758,-1.1348,-1.0645,-0.9824,-0.9082,-0.8662,-0.8125,-0.7919,-0.8672,-0.8916,-0.9168,-0.9706,-1.0251,0.0,0.0,0.0,0.0,-1.1752,-1.2471,-1.316,0.0,0.0,-1.5164,-1.5658,-1.5778,-1.5832,-1.5832,-1.5363,-1.4879,-1.4274,-1.321,-1.2047,-1.0779,-1.0002,-0.9221,-0.8333,-0.8237,-0.8038,-0.8041,-0.8092,-0.817,-0.8272,-0.8319,-0.8391,-0.8482,-0.8482,-0.8482,-0.8486,-0.8533,-0.8554,-0.8574,-0.8615,-0.856,-0.8356,-0.8345,-0.8269,-0.8045,-0.8045,-0.7889,-0.7584,-0.7012,-0.5139,-0.2889,-0.152,-0.1109,-0.111,-0.111,-0.0808,-0.0404,-0.0101,-0.0,-0.0,-0.0,-0.0,-0.0,-0.0,-0.0,-0.0,-0.0,-0.0,-0.0,-0.0,0.0808,0.224,0.4652,0.501,0.5542,0.6962,0.7139,0.7139,0.7139,0.7139,0.7139,0.7139,0.7007,0.6909,0.6858,0.6709,0.6559,0.641,0.6508,0.6512,0.6407,0.6512,0.6637,0.6783,0.6783,0.6888,0.0,-1.0925,-1.1077,-1.0869,-1.0625,-1.0312,-0.9893,-0.9268,-0.8691,-0.846,-0.8027,-0.7958,-0.8848,-0.9004,-0.9217,-0.9886,-1.0334,-1.0582,0.0,0.0,0.0,-1.1992,0.0,0.0,0.0,-1.4623,-1.5157,-1.5631,-1.5765,-1.5832,-1.5832,-1.5363,-1.4777,-1.3974,-1.2823,-1.1473,-1.0006,-0.9414,-0.8726,-0.8038,-0.8038,-0.8038,-0.8038,-0.8038,-0.8092,-0.8184,-0.8184,-0.8231,0.0,-0.8316,-0.8316,-0.8319,-0.8381,-0.8404,-0.8421,-0.857,-0.8662,-0.8723,-0.8818,-0.8889,-0.893,-0.8872,-0.8538,-0.818,-0.7498,-0.5987,-0.4294,-0.3334,-0.3122,-0.3122,-0.3122,-0.252,-0.1816,-0.0807,-0.0303,-0.0,-0.0,-0.0,-0.0,-0.0,-0.0,-0.0,-0.0,-0.0,-0.0,-0.0,0.0808,0.224,0.4652,0.501,0.5542,0.6962,0.7139,0.7139,0.7139,0.7139,0.7139,0.7139,0.7058,0.6987,0.6929,0.6837,0.6715,0.6563,0.6651,0.6654,0.6559,0.6712,0.6834,0.6929,0.6983,0.6967,0.0,-0.9883,-1.0127,-0.9661,-0.9573,-0.9476,-0.9062,-0.8662,0.0,-0.8371,-0.8008,-0.7958,-0.8848,-0.9004,-0.9227,-0.9924,-1.0361,-1.053,0.0,-1.0839,0.0,0.0,-1.2866,0.0,-1.4062,-1.4629,-1.5097,-1.5404,-1.5678,-1.5832,-1.5832,-1.5363,-1.4777,-1.3974,-1.2743,-1.1389,-1.0019,-0.9221,-0.8528,-0.8038,-0.8038,-0.8038,-0.8038,-0.8038,-0.8038,-0.8038,-0.8038,-0.8038,-0.8038,-0.8038,-0.8038,-0.8055,-0.8197,-0.8255,-0.8272,-0.8414,-0.8557,-0.8679,-0.8689,-0.8788,-0.8879,-0.8726,-0.8384,-0.7824,-0.7071,-0.6232,-0.5532,-0.5534,-0.5636,-0.5636,-0.5636,-0.4834,-0.3627,-0.2114,-0.0906,-0.0,-0.0,-0.0,-0.0,-0.0,-0.0,-0.0,-0.0,-0.0,-0.0,-0.0,0.0808,0.224,0.4652,0.501,0.5542,0.6962,0.7139,0.7139,0.7139,0.7139,0.7136,0.7126,0.7136,0.7078,0.6936,0.6939,0.6871,0.6719,0.6715,0.6722,0.6732,0.6875,0.6946,0.6946,0.7078,0.6966,-0.8525,0.0,-0.9678,-0.9258,-0.9359,-0.9398,0.0,-0.8479,-0.8281,-0.7949,0.0,-0.7958,-0.8848,-0.9004,-0.9288,-1.0174,-1.0454,-1.0626,-1.0681,0.0,0.0,-1.262,-1.3173,-1.3774,-1.4362,-1.475,-1.5177,-1.5691,-1.5792,-1.5832,-1.5832,-1.5547,-1.5159,-1.449,-1.3613,-1.215,-1.0002,-0.9414,-0.8726,-0.8038,-0.8038,-0.8038,-0.8038,-0.8038,-0.8038,-0.8038,-0.8038,-0.8038,-0.8038,-0.8038,-0.8038,-0.8041,-0.8079,-0.8096,-0.8113,-0.8265,-0.8343,-0.8391,-0.8499,-0.856,-0.8567,-0.8421,-0.8326,-0.8136,-0.7782,-0.7036,-0.6134,-0.5737,-0.5636,-0.5636,-0.5636,-0.4933,-0.413,-0.3527,-0.2015,-0.0504,-0.01,-0.0,-0.0,-0.0,-0.0,-0.0,-0.0,-0.0,-0.0,-0.0,0.0808,0.224,0.4652,0.501,0.5542,0.6962,0.7139,0.7139,0.7139,0.7139,0.7095,0.6987,0.7082,0.7078,0.6936,0.7034,0.7021,0.6878,0.6875,0.6929,0.7037,0.7075,0.7092,0.7092,0.7126,0.6874,-0.8428,-0.88,-0.9053,-0.9014,-0.9033,-0.8936,-0.8509,0.0,0.0,0.0,0.0,-0.8223,-0.8887,-0.9326,-0.98,-1.0498,-1.0585,0.0,0.0,0.0,-1.2587,-1.2906,-1.3487,-1.4028,-1.4476,-1.479,-1.515,-1.5598,-1.5752,-1.5832,-1.5832,-1.573,-1.554,-1.5166,-1.4586,-1.3125,-1.0779,-1.0105,-0.932,-0.8333,-0.8237,-0.8137,-0.8038,-0.8038,-0.8038,-0.8038,-0.8038,-0.8038,-0.8038,-0.8038,-0.8038,-0.8038,-0.8038,-0.8038,-0.8052,-0.8133,-0.8211,-0.8282,-0.836,-0.8384,-0.8374,-0.8296,-0.8221,-0.815,-0.8065,-0.7637,-0.7039,-0.6736,-0.6736,-0.6736,-0.6736,-0.6034,-0.5233,-0.5138,-0.3225,-0.1208,-0.02,-0.0,-0.0,-0.0,-0.0,-0.0,-0.0,-0.0,-0.0,-0.0,0.0808,0.224,0.4652,0.501,0.5542,0.6962,0.7139,0.7139,0.7139,0.7139,0.7105,0.7031,0.7099,0.7105,0.7031,0.7099,0.7017,0.6857,0.6766,0.6627,0.6612,0.652,0.6428,0.6428,0.6428,0.6163,-0.8787,-0.8733,-0.8651,-0.895,-0.8822,-0.8555,-0.8518,0.0,0.0,0.0,0.0,0.0,0.0,-0.9844,0.0,0.0,0.0,0.0,-1.1186,-1.2091,-1.2879,-1.3233,-1.3761,-1.4202,-1.4489,-1.475,-1.5017,-1.5311,-1.5558,-1.5698,-1.5698,-1.5698,-1.5698,-1.5698,-1.5233,-1.4076,-1.1945,-1.1151,-1.0109,-0.9019,-0.8627,-0.8333,-0.8038,-0.8038,-0.8038,-0.8038,-0.8038,-0.8038,-0.8038,-0.8038,-0.8038,-0.8038,-0.8038,-0.8038,-0.8038,-0.8038,-0.8123,-0.8235,-0.8235,-0.8235,-0.8235,-0.8235,-0.8147,-0.8038,-0.8038,-0.8038,-0.8038,-0.8038,-0.8038,-0.8038,-0.8038,-0.7238,-0.6439,-0.6245,-0.4232,-0.1908,-0.0297,-0.0,-0.0,-0.0,-0.0,-0.0,-0.0,-0.0,-0.0,-0.0,0.0718,0.2151,0.4474,0.483,0.5364,0.6697,0.6962,0.6966,0.6962,0.7054,0.7051,0.7139,0.7139,0.7139,0.7139,0.7139,0.6966,0.6704,0.6612,0.6349,0.6086,0.5813,0.5722,0.5722,0.5722,0.5366,-0.9593,-0.9615,-0.9383,-0.9231,-0.9298,-0.931,-0.8984,0.0,0.0,0.0,0.0,0.0,0.0,-1.0488,-1.1041,0.0,0.0,-1.177,0.0,0.0,-1.2953,-1.3507,-1.3881,-1.4202,-1.4489,-1.4563,-1.471,-1.501,-1.507,-1.5097,-1.5097,-1.5097,-1.5097,-1.5097,-1.4819,-1.4261,-1.3507,-1.2527,-1.1268,-0.9805,-0.9312,-0.8726,-0.8038,-0.8038,-0.8038,-0.8038,-0.8038,-0.8038,-0.8038,-0.8038,-0.8038,-0.8038,-0.8038,-0.8038,-0.8038,-0.8038,-0.8055,-0.8075,-0.8075,-0.8075,-0.8075,-0.8075,-0.8058,-0.8038,-0.8038,-0.8038,-0.8038,-0.8038,-0.8038,-0.8038,-0.8038,-0.7341,-0.6542,-0.5734,-0.3823,-0.1812,-0.0302,-0.0,-0.0,-0.0,-0.0,-0.0,-0.0,-0.0,-0.0,-0.0,0.0449,0.1523,0.3578,0.3937,0.4561,0.5808,0.608,0.6346,0.652,0.67,0.6881,0.7051,0.7139,0.7139,0.7139,0.7139,0.6874,0.6432,0.6805,0.6723,0.6186,0.5822,0.573,0.573,0.573,0.5646,-0.9671,-0.9809,-0.9861,-0.9808,-0.9707,-0.9612,-0.9687,0.0,0.0,0.0,0.0,0.0,0.0,0.0,-1.2082,-1.2353,0.0,-1.2652,-1.2344,-1.2705,-1.316,0.0,-1.3908,-1.4142,-1.4275,-1.4429,-1.4576,-1.471,-1.487,-1.4963,-1.4963,-1.4963,-1.4963,-1.4963,-1.4867,-1.4687,-1.4405,-1.346,-1.2036,-1.0136,-0.9563,-0.8837,-0.8038,-0.8038,-0.8038,-0.8038,-0.8038,-0.8038,-0.8038,-0.8038,-0.8038,-0.8038,-0.8038,-0.8038,-0.8038,-0.8038,-0.8137,-0.8233,-0.8432,-0.8432,-0.8432,-0.8432,-0.8333,-0.8237,-0.8038,-0.8038,-0.8038,-0.8038,-0.8038,-0.8038,-0.8038,-0.754,-0.6942,-0.6645,-0.4931,-0.2918,-0.1209,-0.0398,-0.0,-0.0,-0.0,-0.0,-0.0,-0.0,-0.0,-0.0,0.0184,0.082,0.2275,0.3156,0.4208,0.5549,0.5544,0.5725,0.6529,0.6441,0.6615,0.7051,0.7139,0.7054,0.6966,0.6786,0.634,0.563,0.5911,0.5649,0.4933,0.4208,0.3849,0.3849,0.3849,0.3851,-0.9742,-0.9928,-1.0123,-1.042,0.0,-0.993,-1.041,0.0,0.0,0.0,0.0,0.0,0.0,-1.2657,0.0,-1.3058,-1.3314,-1.3282,-1.2601,-1.2919,-1.3347,-1.3701,-1.3948,-1.4088,-1.4088,-1.4289,-1.4422,-1.4422,-1.4629,-1.4756,-1.4756,-1.4756,-1.4756,-1.4756,-1.4756,-1.4668,-1.4668,-1.3594,-1.2199,-1.0504,-0.9754,-0.8879,-0.7936,-0.7936,-0.7936,-0.794,-0.797,-0.7987,-0.7987,-0.8024,-0.8038,-0.8038,-0.8038,-0.8038,-0.8038,-0.8038,-0.8237,-0.8528,-0.892,-0.9122,-0.9122,-0.9118,-0.8825,-0.8531,-0.8137,-0.8038,-0.8038,-0.8038,-0.8038,-0.8038,-0.8038,-0.764,-0.7341,-0.735,-0.5939,-0.4126,-0.2516,-0.1096,-0.0197,-0.0,-0.0,-0.0,-0.0,-0.0,-0.0,-0.0,-0.0,0.0279,0.1023,0.2195,0.343,0.4779,0.4397,0.465,0.6088,0.6086,0.6257,0.6697,0.6962,0.6966,0.6704,0.6615,0.6083,0.5102,0.5473,0.5119,0.395,0.242,0.1703,0.1703,0.1703,0.1704,-1.0334,-1.0235,-1.0159,-1.0855,0.0,0.0,-1.0974,-1.0931,0.0,0.0,0.0,0.0,0.0,-1.3594,-1.4168,-1.3884,-1.3619,-1.3381,-1.3175,-1.318,-1.342,-1.3988,-1.4075,-1.4088,-1.4088,-1.4108,-1.4122,-1.4122,-1.4135,-1.4148,-1.4148,-1.4148,-1.4148,-1.4148,-1.3887,-1.3711,-1.354,-1.2416,-1.1602,-1.1216,-1.02,-0.9007,-0.7631,-0.7631,-0.7631,-0.7638,-0.777,-0.7828,-0.7838,-0.798,-0.8038,-0.8038,-0.8038,-0.8038,-0.8038,-0.8038,-0.8333,-0.8924,-0.9608,-0.9908,-0.9916,-0.9903,-0.9608,-0.9019,-0.8233,-0.8038,-0.8038,-0.8038,-0.8038,-0.8038,-0.8038,-0.7743,-0.7444,-0.6933,-0.6134,-0.5133,-0.3929,-0.2215,-0.0801,-0.0098,-0.0,-0.0,-0.0,-0.0,-0.0,-0.0,-0.0,-0.0,0.0095,0.0561,0.1291,0.2304,0.2264,0.2862,0.465,0.5364,0.5722,0.5808,0.6609,0.6874,0.6432,0.6805,0.6456,0.5292,0.6397,0.6042,0.4228,0.1527,0.018,0.018,0.018,0.018,-0.9983,-1.01,-1.0279,-1.0697,0.0,0.0,0.0,0.0,0.0,0.0,0.0,0.0,0.0,0.0,-1.4595,-1.4007,-1.365,-1.3393,-1.2973,-1.3086,-1.336,-1.3761,-1.3975,-1.4088,-1.4088,-1.4088,-1.4088,-1.4088,-1.4088,-1.4088,-1.4088,-1.4088,-1.4088,-1.4088,-1.3743,-1.33,-1.2681,-1.1752,-1.0799,-0.9807,-0.9401,-0.8609,-0.76,-0.76,-0.76,-0.7604,-0.7655,-0.7729,-0.7818,-0.7875,-0.7953,-0.8038,-0.8038,-0.8038,-0.8038,-0.8038,-0.8435,-0.9229,-1.0194,-1.0596,-1.0801,-1.0984,-1.0493,-0.9813,-0.8825,-0.8333,-0.8237,-0.8038,-0.8038,-0.8038,-0.8038,-0.7942,-0.7842,-0.7637,-0.7036,-0.6537,-0.6145,-0.4531,-0.2712,-0.1298,-0.0499,-0.0,-0.0,-0.0,-0.0,-0.0,-0.0,-0.0,-0.0,0.0191,0.0377,0.0754,0.1294,0.2282,0.3835,0.5051,0.5727,0.5727,0.5991,0.5985,0.5361,0.5733,0.529,0.3853,0.4855,0.4408,0.2513,0.0808,-0.0,-0.0,-0.0,-0.0,-1.0036,-1.0349,-1.0772,0.0,0.0,0.0,0.0,0.0,0.0,0.0,0.0,0.0,0.0,0.0,0.0,0.0,-1.3813,-1.3467,-1.29,-1.2926,-1.3173,-1.3467,-1.3687,-1.3848,-1.3941,-1.3948,-1.3988,-1.4082,-1.4088,-1.4088,-1.4088,-1.4088,-1.4088,-1.4088,-1.3652,-1.3039,-1.2339,-1.1316,-1.0197,-0.8894,-0.8674,-0.817,-0.7455,-0.7455,-0.7455,-0.7458,-0.7506,-0.7584,-0.7678,-0.7773,-0.7899,-0.8038,-0.8038,-0.8038,-0.8038,-0.8038,-0.8535,-0.9525,-1.0685,-1.1375,-1.178,-1.2145,-1.176,-1.0792,-0.9513,-0.8924,-0.8528,-0.8137,-0.8038,-0.8038,-0.8038,-0.8038,-0.8038,-0.8038,-0.764,-0.7341,-0.7247,-0.5937,-0.4227,-0.2616,-0.1209,-0.0303,-0.0,-0.0,-0.0,-0.0,-0.0,-0.0,-0.0,-0.0,-0.0,-0.0,0.0564,0.14,0.2614,0.3867,0.4552,0.4613,0.4606,0.4683,0.5015,0.5565,0.5029,0.3409,0.3054,0.2246,0.0987,0.0269,-0.0,-0.0,-0.0,-0.0,-1.0694,-1.1148,-1.1683,0.0,0.0,0.0,0.0,0.0,0.0,0.0,0.0,-1.4922,-1.5342,0.0,0.0,-1.409,-1.4017,-1.3799,-1.2927,-1.2822,-1.2936,-1.3166,-1.3206,-1.332,-1.3614,-1.3641,-1.3761,-1.4055,-1.4082,-1.4082,-1.4082,-1.4082,-1.4082,-1.4082,-1.3652,-1.3052,-1.2448,-1.1241,-1.0024,-0.889,-0.8201,-0.7584,-0.7139,-0.7139,-0.7139,-0.7149,-0.7302,-0.737,-0.7394,-0.7689,-0.7899,-0.8038,-0.8038,-0.8038,-0.8038,-0.8041,-0.8733,-0.9821,-1.1365,-1.2252,-1.2953,-1.3692,-1.3199,-1.2047,-1.0485,-0.9608,-0.9019,-0.8233,-0.8038,-0.8038,-0.8038,-0.8038,-0.8038,-0.8038,-0.7842,-0.7444,-0.6933,-0.6132,-0.5236,-0.4031,-0.2418,-0.0908,-0.0101,-0.0,-0.0,-0.0,-0.0,-0.0,-0.0,-0.0,-0.0,-0.0,-0.0,0.0191,0.0668,0.1619,0.2171,0.222,0.2217,0.3205,0.557,0.6579,0.6224,0.432,0.1438,-0.0,-0.0,-0.0,-0.0,-0.0,-0.0,-0.0,-1.0694,-1.1148,0.0,0.0,0.0,0.0,0.0,0.0,0.0,0.0,0.0,-1.5782,-1.585,0.0,0.0,-1.409,-1.3813,-1.3378,-1.254,-1.2612,-1.2856,-1.2872,-1.308,-1.324,-1.3327,-1.334,-1.3373,-1.346,-1.3474,-1.3474,-1.3474,-1.3667,-1.3774,-1.3774,-1.3549,-1.3039,-1.2339,-1.1408,-1.0197,-0.889,-0.8372,-0.776,-0.7139,-0.7139,-0.7139,-0.7143,-0.7187,-0.7272,-0.7394,-0.7689,-0.7938,-0.8192,-0.8488,-0.8634,-0.8836,-0.9034,-0.9821,-1.09,-1.2052,-1.2931,-1.3715,-1.4292,-1.3896,-1.2926,-1.156,-1.0592,-0.9813,-0.8825,-0.8432,-0.8233,-0.8038,-0.8038,-0.8038,-0.8038,-0.7942,-0.7839,-0.7637,-0.7135,-0.6639,-0.6448,-0.4732,-0.2919,-0.141,-0.0504,-0.0,-0.0,-0.0,-0.0,-0.0,-0.0,-0.0,-0.0,-0.0,0.0097,0.0195,0.048,0.1141,0.2175,0.2174,0.2512,0.3235,0.4497,0.4226,0.2334,0.0728,-0.0,-0.0,-0.0,-0.0,-0.0,-0.0,-0.0,-1.0998,-1.1801,0.0,0.0,0.0,0.0,0.0,0.0,0.0,0.0,0.0,-1.5801,-1.5801,-1.5804,0.0,-1.4353,-1.4042,-1.3592,-1.2645,-1.2608,-1.2722,-1.2647,-1.2739,-1.2893,-1.3013,-1.3026,-1.308,-1.32,-1.3213,-1.3213,-1.3213,-1.3373,-1.3527,-1.3641,-1.3476,-1.3102,-1.2595,-1.1752,-1.0717,-0.9414,-0.8986,-0.8372,-0.7669,-0.7316,-0.7139,-0.7139,-0.7139,-0.7227,-0.739,-0.7628,-0.7955,-0.8412,-0.8882,-0.9311,-0.9697,-1.0101,-1.0742,-1.1607,-1.2541,-1.3302,-1.3972,-1.464,-1.4359,-1.359,-1.2441,-1.1597,-1.0651,-0.9397,-0.8773,-0.8536,-0.8048,-0.7994,-0.8038,-0.8038,-0.8038,-0.8038,-0.8038,-0.764,-0.7341,-0.7247,-0.5937,-0.4327,-0.2717,-0.1411,-0.0605,-0.0605,-0.0303,-0.0,-0.0,-0.0,-0.0,-0.0,-0.0,-0.0,-0.0,-0.0,0.0389,0.1255,0.1351,0.1332,0.1289,0.2116,0.2024,0.0828,0.0279,-0.0,-0.0,-0.0,-0.0,-0.0,-0.0,-0.0,-1.1442,0.0,0.0,0.0,0.0,0.0,-1.5722,0.0,-1.5365,-1.5439,0.0,-1.5469,-1.5469,-1.5752,-1.5652,-1.4746,-1.4624,-1.425,-1.3112,-1.282,-1.2599,-1.2305,-1.2305,-1.2412,-1.2755,-1.2782,-1.2826,-1.3106,-1.3126,-1.3126,-1.3126,-1.3153,-1.3293,-1.3554,-1.3369,-1.3265,-1.3093,-1.2431,-1.158,-1.0463,-1.0033,-0.9423,-0.8719,-0.7665,-0.7228,-0.7228,-0.7228,-0.731,-0.7542,-0.7702,-0.8131,-0.8737,-0.9407,-0.9979,-1.0527,-1.1071,-1.1558,-1.2027,-1.2836,-1.3387,-1.4032,-1.4777,-1.4681,-1.4128,-1.329,-1.2387,-1.1298,-0.9811,-0.9206,-0.8775,-0.8004,-0.7926,-0.8038,-0.8038,-0.8038,-0.8038,-0.8038,-0.7842,-0.7444,-0.7033,-0.6232,-0.5434,-0.4332,-0.2923,-0.1915,-0.1815,-0.0908,-0.0101,-0.0,-0.0,-0.0,-0.0,-0.0,-0.0,-0.0,-0.0,-0.0,-0.0,-0.0,-0.0,-0.0,-0.0,-0.0,-0.0,-0.0,-0.0,-0.0,-0.0,-0.0,-0.0,-0.0,-0.0,0.0,-1.266,0.0,0.0,0.0,-1.6126,-1.6159,-1.6227,-1.6218,-1.6009,-1.5918,-1.5918,-1.5918,-1.6325,-1.6253,-1.531,-1.524,-1.4887,-1.3673,-1.3251,-1.29,-1.2378,-1.2305,-1.2325,-1.2392,-1.2398,-1.2425,-1.2492,-1.2498,-1.2498,-1.2498,-1.2719,-1.2872,-1.2939,-1.332,-1.351,-1.3487,-1.3199,-1.2699,-1.1901,-1.1494,-1.089,-1.0096,-0.889,-0.8281,-0.8281,-0.8281,-0.8304,-0.8355,-0.8532,-0.8988,-0.9675,-1.0283,-1.09,-1.1636,-1.2135,-1.258,-1.3132,-1.3483,-1.3941,-1.4501,-1.4867,-1.4777,-1.4405,-1.3851,-1.2939,-1.1849,-1.0362,-0.9579,-0.8964,-0.8004,-0.7926,-0.8038,-0.8038,-0.8038,-0.8038,-0.8038,-0.7939,-0.7839,-0.7736,-0.7238,-0.6839,-0.6751,-0.5536,-0.4329,-0.3629,-0.2216,-0.0907,-0.0101,-0.0,-0.0,-0.0,-0.0,-0.0,-0.0,-0.0,-0.0,-0.0,-0.0,-0.0,-0.0,-0.0,-0.0,-0.0,-0.0,-0.0,-0.0,-0.0,-0.0,-0.0,-0.0,-0.0,0.0,0.0,0.0,-1.5203,0.0,0.0,-1.6552,-1.6819,-1.7008,-1.6843,-1.6451,-1.6108,-1.6049,-1.6403,-1.6531,-1.5707,-1.5733,-1.5525,-1.4466,-1.3977,-1.3477,-1.2973,-1.29,-1.29,-1.29,-1.2826,-1.2673,-1.2599,-1.2526,-1.2378,-1.2305,-1.2452,-1.2599,-1.2815,-1.3053,-1.3287,-1.3434,-1.3254,-1.2826,-1.2224,-1.1904,-1.155,-1.1064,-1.0053,-0.9579,-0.9579,-0.9579,-0.9579,-0.9598,-0.9714,-1.0154,-1.0791,-1.1446,-1.2035,-1.2658,-1.3163,-1.3479,-1.3743,-1.3911,-1.4093,-1.4361,-1.4543,-1.4449,-1.4274,-1.4005,-1.3291,-1.2226,-1.0786,-0.9929,-0.9222,-0.7995,-0.7875,-0.8038,-0.8038,-0.8038,-0.8038,-0.8038,-0.8038,-0.8038,-0.8038,-0.764,-0.7341,-0.7144,-0.6237,-0.5233,-0.4533,-0.3425,-0.2215,-0.0907,-0.0807,-0.0807,-0.0807,-0.0807,-0.0707,-0.0404,-0.0101,-0.0,-0.0,-0.0,-0.0,-0.0,-0.0,-0.0,-0.0,-0.0,-0.0,-0.0,-0.0,-0.0,-0.0,-0.0,-0.0,0.0,0.0,-1.4878,-1.5981,-1.6468,0.0,-1.6927,-1.7326,-1.7641,-1.7731,-1.6978,-1.6218,-1.6046,-1.6437,-1.6665,-1.6147,-1.6282,-1.6167,-1.5321,-1.4832,-1.4402,-1.384,-1.3775,-1.3775,-1.3775,-1.3557,-1.3331,-1.3039,-1.282,-1.2599,-1.2305,-1.2305,-1.2418,-1.2735,-1.2795,-1.2872,-1.3126,-1.3022,-1.273,-1.2406,-1.2154,-1.1948,-1.1834,-1.127,-1.0968,-1.0875,-1.0875,-1.0875,-1.0885,-1.0994,-1.1336,-1.1872,-1.2399,-1.3019,-1.3529,-1.3913,-1.4088,-1.4088,-1.4088,-1.4088,-1.4088,-1.4088,-1.4088,-1.4088,-1.4088,-1.3483,-1.2443,-1.1133,-1.0295,-0.9507,-0.8056,-0.7894,-0.8007,-0.8031,-0.8038,-0.8038,-0.8038,-0.8038,-0.8038,-0.8038,-0.7842,-0.754,-0.7132,-0.6434,-0.5834,-0.5336,-0.4734,-0.3929,-0.2418,-0.2318,-0.2318,-0.2318,-0.2318,-0.2017,-0.1414,-0.0707,-0.0202,-0.0,-0.0,-0.0,-0.0,-0.0,-0.0,-0.0,-0.0,-0.0,-0.0,-0.0,-0.0,-0.0,-0.0,-0.0,0.0,0.0,-1.5235,0.0,-1.6214,-1.6705,0.0,0.0,-1.7827,0.0,-1.771,-1.6922,-1.6492,-1.6898,-1.7139,-1.6665,-1.6988,-1.7097,-1.6428,-1.6009,-1.5587,-1.5029,-1.4958,-1.4958,-1.4958,-1.4601,-1.4178,-1.36,-1.3331,-1.29,-1.2305,-1.2305,-1.2318,-1.2365,-1.2612,-1.2842,-1.2882,-1.3073,-1.3127,-1.3048,-1.3048,-1.2988,-1.2942,-1.2901,-1.2435,-1.1837,-1.1837,-1.1837,-1.1843,-1.1791,-1.2146,-1.2582,-1.2839,-1.3272,-1.3698,-1.401,-1.4088,-1.4088,-1.4088,-1.4088,-1.4088,-1.4088,-1.4088,-1.4088,-1.4088,-1.3574,-1.279,-1.158,-1.0725,-0.9876,-0.8579,-0.8196,-0.8174,-0.8011,-0.8038,-0.8038,-0.8038,-0.8038,-0.8038,-0.8038,-0.7942,-0.7939,-0.7839,-0.7739,-0.7537,-0.6936,-0.6948,-0.6445,-0.5031,-0.5031,-0.5031,-0.5031,-0.5031,-0.4632,-0.363,-0.2216,-0.1007,-0.0101,-0.0,-0.0,-0.0,-0.0,-0.0,-0.0,-0.0,-0.0,-0.0,-0.0,-0.0,-0.0,-0.0,-0.0,-1.1603,-1.3488,-1.5066,0.0,-1.6404,-1.7196,-1.7824,0.0,-1.8592,-1.9181,-1.8697,-1.7929,-1.6944,-1.6999,-1.7053,-1.6752,-1.705,-1.7186,-1.6973,-1.6664,-1.6306,-1.5877,-1.5807,-1.5807,-1.5807,-1.5463,-1.5037,-1.4394,-1.3977,-1.3404,-1.2673,-1.2526,-1.2452,-1.2305,-1.2425,-1.2498,-1.2498,-1.2632,-1.2705,-1.2705,-1.2872,-1.2953,-1.2959,-1.3133,-1.3111,-1.2906,-1.2906,-1.2993,-1.3222,-1.3222,-1.3307,-1.3483,-1.3568,-1.3737,-1.3913,-1.4088,-1.4088,-1.4088,-1.4088,-1.4088,-1.4088,-1.4088,-1.4088,-1.4088,-1.4088,-1.3737,-1.3045,-1.2169,-1.1308,-1.0437,-0.908,-0.8667,-0.8508,-0.7993,-0.7977,-0.8038,-0.8038,-0.8038,-0.8038,-0.8038,-0.8038,-0.8038,-0.8038,-0.8038,-0.7839,-0.7441,-0.7244,-0.6839,-0.6034,-0.5734,-0.5536,-0.5438,-0.5236,-0.4834,-0.4033,-0.3327,-0.2319,-0.1008,-0.0908,-0.0908,-0.0908,-0.0908,-0.0908,-0.0908,-0.0303,-0.0,-0.0,-0.0,-0.0,-0.0,-0.0,-0.0,-1.1715,-1.3413,-1.473,-1.5261,-1.6245,-1.7219,0.0,0.0,-1.8781,0.0,-1.9199,-1.8502,-1.7479,-1.7169,-1.697,-1.6628,-1.6883,-1.7206,-1.7252,-1.7179,-1.7001,-1.6597,-1.6669,-1.6688,-1.6597,-1.6332,-1.5965,-1.5392,-1.476,-1.4049,-1.3185,-1.2893,-1.2599,-1.2305,-1.2305,-1.2305,-1.2305,-1.2305,-1.2305,-1.2305,-1.2525,-1.2632,-1.2721,-1.2872,-1.318,-1.354,-1.3614,-1.3814,-1.4088,-1.4088,-1.4088,-1.4088,-1.4088,-1.4088,-1.4088,-1.4088,-1.4088,-1.4088,-1.4088,-1.4088,-1.4088,-1.4088,-1.4088,-1.4088,-1.4088,-1.3828,-1.3307,-1.2681,-1.1956,-1.1071,-0.9836,-0.9351,-0.8925,-0.8236,-0.8052,-0.8038,-0.8041,-0.8038,-0.8038,-0.8038,-0.8038,-0.8038,-0.8038,-0.8038,-0.7942,-0.7746,-0.7335,-0.7033,-0.6836,-0.6437,-0.6037,-0.5739,-0.5641,-0.524,-0.4334,-0.4642,-0.4239,-0.2621,-0.262,-0.2619,-0.2619,-0.2619,-0.2619,-0.2619,-0.1814,-0.1109,-0.0404,-0.0404,-0.0404,-0.0404,-0.0404,-0.0404,-1.1565,-1.3045,-1.4359,-1.4607,-1.5427,0.0,0.0,0.0,-1.7865,-1.8844,-1.8721,-1.8358,-1.8066,-1.7674,-1.7085,-1.6276,-1.6816,-1.7393,-1.7412,-1.7696,-1.7794,-1.7395,-1.7696,-1.7784,-1.7385,-1.7369,-1.7166,-1.6567,-1.5807,-1.4895,-1.3745,-1.3331,-1.29,-1.2298,-1.2305,-1.2305,-1.2305,-1.2305,-1.2305,-1.2305,-1.2318,-1.2325,-1.2325,-1.2345,-1.2672,-1.3247,-1.3527,-1.3814,-1.4088,-1.4088,-1.4088,-1.4088,-1.4088,-1.4088,-1.4088,-1.4088,-1.4088,-1.4088,-1.4088,-1.4088,-1.4088,-1.4088,-1.4088,-1.4088,-1.4088,-1.3913,-1.3561,-1.313,-1.2454,-1.1793,-1.0899,-1.0195,-0.9464,-0.8935,-0.8524,-0.8333,-0.8038,-0.8038,-0.8038,-0.8038,-0.8038,-0.8038,-0.8038,-0.8038,-0.8038,-0.7939,-0.7939,-0.7939,-0.7939,-0.7939,-0.764,-0.7138,-0.7556,-0.7059,-0.534,-0.6765,-0.7071,-0.5343,-0.5336,-0.5434,-0.5434,-0.5434,-0.5434,-0.5434,-0.5334,-0.4026,-0.1513,-0.1513,-0.1513,-0.1513,-0.1513,-0.1513,-1.0624,-1.2038,0.0,-1.4243,-1.487,-1.5627,-1.6775,-1.7102,-1.7479,-1.8719,-1.8722,-1.8515,-1.8472,-1.7912,-1.7309,-1.6746,-1.6951,-1.7203,-1.7476,-1.7584,-1.7506,-1.7302,-1.7347,-1.7366,-1.7373,-1.7311,-1.7158,-1.6991,-1.6245,-1.5321,-1.4163,-1.3615,-1.3046,-1.2298,-1.2305,-1.2305,-1.2305,-1.2305,-1.2305,-1.2305,-1.2305,-1.2305,-1.2305,-1.2305,-1.2525,-1.2926,-1.3233,-1.3641,-1.4088,-1.4088,-1.4088,-1.4088,-1.4088,-1.4088,-1.4088,-1.4088,-1.4088,-1.4088,-1.4088,-1.4088,-1.4088,-1.4088,-1.4088,-1.4088,-1.4088,-1.4004,-1.3913,-1.3737,-1.3433,-1.2994,-1.2282,-1.1655,-1.083,-0.9355,-0.8627,-0.8137,-0.8038,-0.8038,-0.8038,-0.8038,-0.8038,-0.8038,-0.8038,-0.8038,-0.8038,-0.8038,-0.8038,-0.8038,-0.8038,-0.8038,-0.7839,-0.7238,-0.6945,-0.6448,-0.5741,-0.6014,-0.6055,-0.5744,-0.5801,-0.5938,-0.5938,-0.5938,-0.5938,-0.5938,-0.5938,-0.5355,-0.4126,-0.4126,-0.4126,-0.4126,-0.4126,-0.4126,-1.0534,-1.1627,0.0,0.0,0.0,-1.5065,-1.6002,-1.6507,-1.7109,-1.8147,-1.8329,-1.8376,-1.8645,-1.8213,-1.7643,-1.7284,-1.7323,-1.7535,-1.7782,-1.7829,-1.7626,-1.7257,-1.7183,-1.7083,-1.6988,-1.6931,-1.7004,-1.7016,-1.6351,-1.5437,-1.4313,-1.3636,-1.2985,-1.2151,-1.2158,-1.2204,-1.2305,-1.2305,-1.2305,-1.2305,-1.2305,-1.2305,-1.2305,-1.2305,-1.2465,-1.2835,-1.2966,-1.3394,-1.3948,-1.4048,-1.4166,-1.4243,-1.425,-1.4334,-1.4419,-1.4503,-1.4503,-1.4419,-1.4334,-1.4243,-1.4166,-1.4088,-1.4088,-1.4088,-1.4088,-1.4088,-1.4108,-1.4208,-1.411,-1.3849,-1.3391,-1.257,-1.1485,-0.9976,-0.8924,-0.8237,-0.8137,-0.8038,-0.8038,-0.8038,-0.8038,-0.8038,-0.8038,-0.8038,-0.8038,-0.8038,-0.8038,-0.8038,-0.8038,-0.8038,-0.7839,-0.7238,-0.6745,-0.6361,-0.6093,-0.6167,-0.6228,-0.6365,-0.6749,-0.6895,-0.6895,-0.6895,-0.6895,-0.6895,-0.6895,-0.6815,-0.6556,-0.6009,-0.5672,-0.5636,-0.5636,-0.5636,0.0,0.0,0.0,0.0,0.0,0.0,-1.431,0.0,-1.6744,-1.7068,-1.7441,-1.7893,-1.8585,-1.851,-1.8184,-1.7696,-1.8036,-1.8304,-1.8304,-1.8412,-1.8186,-1.7332,-1.7317,-1.7062,-1.6225,-1.6455,-1.6719,-1.6728,-1.6074,-1.5219,-1.4156,-1.342,-1.2643,-1.1921,-1.1935,-1.2004,-1.2285,-1.2298,-1.2298,-1.2305,-1.2305,-1.2305,-1.2305,-1.2305,-1.2533,-1.2808,-1.2822,-1.3158,-1.3641,-1.3948,-1.4237,-1.4398,-1.465,-1.4908,-1.5166,-1.5401,-1.5325,-1.509,-1.4824,-1.4566,-1.4398,-1.4166,-1.4088,-1.4088,-1.4088,-1.4095,-1.4162,-1.4442,-1.4355,-1.4235,-1.4247,-1.2947,-1.1468,-1.0605,-0.9616,-0.8726,-0.8531,-0.8237,-0.8038,-0.8038,-0.8041,-0.8045,-0.8045,-0.8045,-0.8045,-0.8045,-0.8041,-0.8041,-0.8045,-0.8045,-0.7846,-0.7247,-0.7363,-0.7217,-0.6405,-0.7564,-0.8043,-0.7326,-0.8072,-0.8496,-0.8496,-0.8496,-0.8496,-0.8496,-0.8496,-0.8492,-0.8489,-0.6782,-0.5846,-0.5641,-0.5636,-0.5634,-1.094,0.0,0.0,0.0,0.0,0.0,-1.4534,-1.5017,-1.5744,-1.7408,-1.7718,-1.7945,-1.8773,-1.9044,-1.9032,-1.868,-1.8578,-1.8542,-1.8542,-1.8315,-1.8003,-1.7431,-1.7198,-1.7021,-1.6777,-1.6789,-1.688,-1.7024,-1.6456,-1.5606,-1.4493,-1.3227,-1.2412,-1.2095,-1.2179,-1.2331,-1.2342,-1.2635,-1.2826,-1.2973,-1.3119,-1.3193,-1.3193,-1.3193,-1.3243,-1.3343,-1.349,-1.3689,-1.3818,-1.3797,-1.4047,-1.465,-1.5213,-1.5711,-1.6124,-1.6609,-1.6527,-1.6214,-1.5628,-1.5228,-1.4831,-1.425,-1.4088,-1.4088,-1.4088,-1.4235,-1.4416,-1.4496,-1.4734,-1.5061,-1.4873,-1.4034,-1.3011,-1.2052,-1.0685,-0.9509,-0.9118,-0.8432,-0.8038,-0.8038,-0.813,-0.8208,-0.8208,-0.8208,-0.8208,-0.8208,-0.8109,-0.8079,-0.8194,-0.8208,-0.8143,-0.7833,-0.7535,-0.7345,-0.7273,-0.7569,-0.7855,-0.8006,-0.8537,-0.8811,-0.8811,-0.8811,-0.8811,-0.8811,-0.8811,-0.8757,-0.8648,-0.7975,-0.7632,-0.7591,-0.7387,-0.7338,-1.2219,-1.2485,-1.2773,-1.2855,0.0,0.0,-1.4154,-1.4641,-1.5322,-1.68,-1.717,-1.7461,-1.8358,-1.86,-1.878,-1.8942,-1.8784,-1.8727,-1.9073,-1.8869,-1.8483,-1.7972,-1.7699,-1.749,-1.7273,-1.7074,-1.6957,-1.6939,-1.6335,-1.5458,-1.4288,-1.3196,-1.2611,-1.2564,-1.2407,-1.2377,-1.2513,-1.2706,-1.3006,-1.3423,-1.3772,-1.4055,-1.4194,-1.4194,-1.4194,-1.4201,-1.4394,-1.4482,-1.4584,-1.4643,-1.4889,-1.5286,-1.5988,-1.6609,-1.7098,-1.7666,-1.7594,-1.718,-1.6445,-1.5974,-1.5492,-1.4824,-1.4587,-1.4503,-1.4419,-1.446,-1.4636,-1.4669,-1.5124,-1.5524,-1.5317,-1.4771,-1.3992,-1.3119,-1.1755,-1.0489,-1.0006,-0.9225,-0.8535,-0.8038,-0.8163,-0.8272,-0.8272,-0.8272,-0.8272,-0.8272,-0.814,-0.8096,-0.8252,-0.8272,-0.8326,-0.8259,-0.7957,-0.7877,-0.8046,-0.8012,-0.8189,-0.8477,-0.8779,-0.894,-0.894,-0.894,-0.894,-0.894,-0.894,-0.8862,-0.871,-0.8537,-0.8421,-0.8357,-0.8265,-0.8191,-1.4372,-1.4316,-1.4096,-1.3451,-1.3552,0.0,-1.3498,-1.4268,-1.5193,-1.5762,-1.6165,-1.6661,-1.7525,-1.7625,-1.7837,-1.8582,-1.8695,-1.893,-1.9661,-1.953,-1.923,-1.8821,-1.8501,-1.8178,-1.7743,-1.7479,-1.709,-1.6662,-1.5958,-1.5031,-1.3863,-1.3381,-1.3096,-1.3036,-1.2557,-1.2465,-1.2788,-1.2833,-1.3218,-1.3962,-1.4421,-1.4877,-1.5305,-1.5305,-1.5305,-1.5305,-1.5305,-1.5488,-1.574,-1.6138,-1.6228,-1.6142,-1.6895,-1.7594,-1.8238,-1.8736,-1.8647,-1.8078,-1.744,-1.6952,-1.6468,-1.5801,-1.5484,-1.5249,-1.4901,-1.49,-1.4993,-1.506,-1.5431,-1.573,-1.554,-1.5166,-1.4592,-1.3902,-1.2732,-1.1663,-1.1189,-1.0408,-0.9521,-0.8531,-0.8379,-0.8398,-0.8398,-0.8296,-0.8292,-0.8292,-0.815,-0.8102,-0.8272,-0.8292,-0.8353,-0.8516,-0.8533,-0.8587,-0.8723,-0.8733,-0.8794,-0.893,-0.894,-0.894,-0.894,-0.894,-0.894,-0.894,-0.894,-0.8872,-0.8733,-0.872,-0.8632,-0.8482,-0.8482,-0.8408,-1.5574,-1.5487,-1.5303,-1.5015,-1.4477,0.0,-1.3769,-1.3901,-1.4421,-1.5594,-1.5771,-1.5973,-1.6908,-1.7306,-1.7474,-1.7408,-1.8026,-1.8745,-1.9302,-1.922,-1.9081,-1.9125,-1.8975,-1.8762,-1.8441,-1.8093,-1.771,-1.7268,-1.6026,-1.505,-1.4529,-1.4061,-1.3666,-1.343,-1.3145,-1.3132,-1.334,-1.3425,-1.3945,-1.4933,-1.5257,-1.5652,-1.6088,-1.6088,-1.6088,-1.6088,-1.6088,-1.6132,-1.6254,-1.6954,-1.7166,-1.7153,-1.817,-1.8877,-1.9362,-2.001,-1.9932,-1.946,-1.8807,-1.831,-1.7819,-1.718,-1.669,-1.6296,-1.5703,-1.5626,-1.5693,-1.5697,-1.5745,-1.5825,-1.5737,-1.5642,-1.5452,-1.4879,-1.4088,-1.3301,-1.2732,-1.2052,-1.1268,-1.0685,-0.9774,-0.9075,-0.887,-0.8654,-0.8442,-0.8442,-0.8211,-0.8136,-0.8404,-0.8442,-0.8547,-0.8821,-0.8849,-0.8862,-0.8893,-0.8896,-0.8906,-0.8937,-0.894,-0.894,-0.894,-0.894,-0.894,-0.894,-0.894,-0.8923,-0.8893,-0.8771,-0.8632,-0.8482,-0.8482,-0.8408,-1.7706,-1.7286,-1.6779,-1.6235,-1.5408,0.0,0.0,-1.4367,-1.4614,-1.5604,-1.5654,-1.5771,-1.6471,-1.6718,-1.6838,-1.6898,-1.7229,-1.7652,-1.8034,-1.8518,-1.8791,-1.8722,-1.8906,-1.8963,-1.8809,-1.8778,-1.8429,-1.7722,-1.6539,-1.569,-1.541,-1.4942,-1.4538,-1.424,-1.3865,-1.3776,-1.3855,-1.3902,-1.4533,-1.5587,-1.5982,-1.6503,-1.7157,-1.7157,-1.7157,-1.7157,-1.7157,-1.7157,-1.7204,-1.7819,-1.8165,-1.8355,-1.9045,-1.9608,-2.001,-2.0411,-2.0411,-2.002,-1.9529,-1.9116,-1.8718,-1.8158,-1.7674,-1.7033,-1.6281,-1.5747,-1.5493,-1.5577,-1.5718,-1.5832,-1.5832,-1.5832,-1.5737,-1.5363,-1.4771,-1.419,-1.3806,-1.3216,-1.2538,-1.1965,-1.0909,-1.0044,-0.9433,-0.8905,-0.8482,-0.8482,-0.8228,-0.8119,-0.8347,-0.8377,-0.8462,-0.8686,-0.871,-0.8743,-0.8818,-0.8825,-0.8859,-0.8933,-0.894,-0.894,-0.894,-0.894,-0.894,-0.894,-0.894,-0.894,-0.894,-0.8862,-0.8784,-0.871,-0.871,-0.8587,-1.9998,-1.9361,-1.849,-1.7704,-1.67,-1.5753,0.0,0.0,0.0,-1.5499,-1.5518,-1.5595,-1.6109,-1.6147,-1.6227,-1.6537,-1.6553,-1.655,-1.6707,-1.7637,-1.8286,-1.8177,-1.8627,-1.8906,-1.8918,-1.8956,-1.8686,-1.7775,-1.6972,-1.6367,-1.6095,-1.5708,-1.5362,-1.5088,-1.4588,-1.4282,-1.4369,-1.4341,-1.4888,-1.5942,-1.6427,-1.7139,-1.7891,-1.7978,-1.8008,-1.8008,-1.8008,-1.8008,-1.8047,-1.8467,-1.8848,-1.9175,-1.9554,-1.9934,-2.0342,-2.0566,-2.0489,-2.0333,-1.9923,-1.9687,-1.9539,-1.9134,-1.8416,-1.7456,-1.6688,-1.5676,-1.495,-1.5297,-1.5565,-1.5758,-1.5812,-1.5832,-1.573,-1.5635,-1.5255,-1.4879,-1.4682,-1.4292,-1.3709,-1.2948,-1.1979,-1.1021,-0.9939,-0.9111,-0.8482,-0.8482,-0.8228,-0.8096,-0.8252,-0.8272,-0.8326,-0.8465,-0.8482,-0.8543,-0.8699,-0.871,-0.8774,-0.8927,-0.894,-0.894,-0.894,-0.894,-0.894,-0.894,-0.894,-0.894,-0.894,-0.894,-0.894,-0.894,-0.894,-0.8774,-2.1815,-2.1345,-2.0605,-2.0251,-1.8925,-1.7268,-1.5635,0.0,-1.5038,-1.4941,0.0,-1.5096,-1.5726,0.0,0.0,-1.5921,-1.6184,-1.6343,-1.6141,-1.6522,-1.7129,-1.7926,-1.8435,-1.8691,-1.8563,-1.8042,-1.7531,-1.7062,-1.6759,-1.6429,-1.605,-1.5879,-1.57,-1.5352,-1.4883,-1.4715,-1.4911,-1.4715,-1.5059,-1.5846,-1.6418,-1.6982,-1.7471,-1.7842,-1.8008,-1.8008,-1.8008,-1.8008,-1.8047,-1.8467,-1.8592,-1.8728,-1.9574,-2.0148,-2.0566,-2.0566,-2.0566,-2.0566,-2.0489,-2.0489,-2.0401,-2.0411,-1.9036,-1.7245,-1.6645,-1.5612,-1.4683,-1.5237,-1.5424,-1.5504,-1.5758,-1.5832,-1.5825,-1.5737,-1.5737,-1.5642,-1.5642,-1.554,-1.5255,-1.4292,-1.3035,-1.1668,-1.0331,-0.9216,-0.8482,-0.8482,-0.8228,-0.8096,-0.8252,-0.8272,-0.8326,-0.8465,-0.8482,-0.8543,-0.8699,-0.871,-0.8774,-0.8927,-0.894,-0.894,-0.894,-0.894,-0.894,-0.894,-0.894,-0.894,-0.894,-0.894,-0.894,-0.894,-0.894,-0.8774,-2.3477,-2.2659,-2.1535,-2.0933,-1.947,-1.7821,-1.6438,-1.6009,-1.5975,-1.6157,0.0,0.0,0.0,0.0,0.0,0.0,-1.6114,-1.5859,-1.5692,-1.6053,-1.6494,-1.6873,-1.7288,-1.7568,-1.7573,-1.7513,-1.7272,-1.6919,-1.691,-1.682,-1.6651,-1.6409,-1.6093,-1.5816,-1.5352,-1.5118,-1.5254,-1.5118,-1.5398,-1.5953,-1.6461,-1.6963,-1.7402,-1.7822,-1.8008,-1.8008,-1.8008,-1.8008,-1.8018,-1.8193,-1.8418,-1.8691,-1.9307,-1.9805,-2.0215,-2.0469,-2.0566,-2.0566,-2.0566,-2.0566,-2.0566,-2.0177,-1.8966,-1.7538,-1.6873,-1.5808,-1.4952,-1.5293,-1.5362,-1.5464,-1.5752,-1.5832,-1.5832,-1.5832,-1.5832,-1.5832,-1.5832,-1.5832,-1.5547,-1.4682,-1.352,-1.2314,-1.1304,-0.9587,-0.836,-0.836,-0.8177,-0.8062,-0.813,-0.8136,-0.816,-0.8218,-0.8225,-0.8319,-0.8557,-0.8577,-0.8679,-0.8923,-0.894,-0.894,-0.894,-0.894,-0.894,-0.894,-0.894,-0.894,-0.894,-0.894,-0.894,-0.894,-0.894,-0.8774,-2.4506,-2.3532,-2.2276,-2.125,-1.9867,-1.8423,-1.7145,-1.6917,-1.7045,-1.7327,-1.7477,0.0,0.0,0.0,-1.691,0.0,0.0,-1.561,-1.5522,-1.5843,-1.6085,-1.6048,-1.6481,-1.6743,-1.6622,-1.6914,-1.6955,-1.6665,-1.6781,-1.687,-1.6871,-1.6634,-1.6416,-1.6156,-1.5813,-1.5642,-1.5642,-1.5642,-1.5811,-1.6128,-1.6693,-1.7139,-1.7466,-1.8022,-1.8279,-1.8279,-1.8279,-1.8279,-1.8212,-1.8144,-1.8321,-1.8586,-1.9072,-1.9473,-1.9805,-2.0361,-2.0566,-2.0566,-2.0566,-2.0566,-2.0489,-1.9872,-1.9063,-1.8078,-1.7269,-1.6217,-1.5319,-1.5471,-1.5388,-1.5364,-1.5732,-1.5832,-1.5832,-1.5832,-1.5832,-1.5832,-1.5832,-1.5832,-1.5635,-1.4975,-1.3957,-1.299,-1.2297,-1.0247,-0.8674,-0.8674,-0.8539,-0.8435,-0.8336,-0.8237,-0.8237,-0.8137,-0.8038,-0.816,-0.856,-0.8692,-0.8824,-0.914,-0.9047,-0.9047,-0.894,-0.894,-0.894,-0.894,-0.894,-0.894,-0.894,-0.894,-0.894,-0.894,-0.894,-0.8774,-2.4506,-2.3934,-2.3004,-2.1549,-2.0497,-1.9411,-1.7674,-1.774,-1.8091,-1.7904,-1.8342,-1.8691,-1.8422,-1.7729,0.0,0.0,0.0,0.0,0.0,-1.5785,-1.5847,-1.5898,-1.654,-1.6677,-1.5912,-1.6126,-1.6242,-1.6053,-1.6161,-1.6268,-1.6303,-1.6474,-1.6471,-1.6213,-1.6227,-1.6296,-1.6296,-1.6296,-1.6306,-1.6327,-1.7203,-1.7698,-1.774,-1.8651,-1.9065,-1.9065,-1.9065,-1.8942,-1.8741,-1.8549,-1.8414,-1.8378,-1.9027,-1.9297,-1.9404,-2.0254,-2.0566,-2.0566,-2.0566,-2.0566,-2.0489,-2.002,-1.945,-1.8798,-1.7934,-1.6706,-1.5686,-1.5834,-1.55,-1.511,-1.5678,-1.5832,-1.5832,-1.5832,-1.5832,-1.5832,-1.5832,-1.5832,-1.5642,-1.5172,-1.4388,-1.3698,-1.313,-1.125,-0.9778,-0.9778,-0.9638,-0.943,-0.9236,-0.8931,-0.8627,-0.8432,-0.8137,-0.8258,-0.887,-0.9209,-0.9458,-0.9794,-0.9489,-0.9268,-0.894,-0.894,-0.894,-0.894,-0.894,-0.894,-0.894,-0.894,-0.894,-0.894,-0.894,-0.8774,-2.5947,-2.5423,-2.4509,-2.3021,-2.2035,-2.0982,-1.9343,-1.9081,-1.9405,-2.0188,-2.0416,-2.0653,-2.1385,-2.0445,0.0,0.0,0.0,0.0,0.0,-1.5998,-1.5916,-1.5846,-1.6135,-1.6025,-1.5263,-1.5455,-1.5734,-1.5973,-1.6192,-1.6515,-1.7016,-1.7284,-1.7335,-1.7044,-1.7126,-1.7146,-1.7146,-1.7146,-1.7146,-1.7157,-1.7799,-1.8267,-1.8654,-1.9236,-1.9704,-2.0085,-2.0085,-1.9901,-1.9649,-1.9177,-1.8865,-1.8667,-1.8773,-1.9033,-1.9394,-2.0254,-2.0566,-2.0566,-2.0566,-2.0566,-2.0566,-2.0264,-2.0042,-1.9687,-1.8974,-1.8062,-1.7321,-1.7092,-1.6418,-1.5789,-1.6014,-1.5927,-1.5832,-1.5832,-1.5832,-1.5832,-1.5832,-1.5832,-1.573,-1.5452,-1.4873,-1.4292,-1.3998,-1.2997,-1.1968,-1.1274,-1.1119,-1.0984,-1.0592,-1.0002,-0.941,-0.9019,-0.8333,-0.8358,-0.9183,-1.0048,-1.0554,-1.0668,-1.0249,-0.9596,-0.8937,-0.894,-0.894,-0.894,-0.894,-0.8889,-0.8788,-0.8788,-0.8733,-0.8635,-0.8635,-0.8581,-2.7165,-2.6742,-2.6031,-2.456,-2.3583,-2.2608,-2.1059,-2.087,-2.1239,-2.2086,-2.2531,-2.3047,-2.4,-2.2923,-2.1438,0.0,0.0,0.0,0.0,-1.6191,-1.6052,-1.5926,-1.6021,-1.5826,-1.5115,-1.5557,-1.5868,-1.586,-1.612,-1.6494,-1.6999,-1.7392,-1.7589,-1.7502,-1.779,-1.7984,-1.7984,-1.7984,-1.7984,-1.7984,-1.843,-1.8851,-1.9181,-1.978,-2.033,-2.066,-2.0894,-2.0794,-2.042,-1.989,-1.9507,-1.9106,-1.9012,-1.9252,-1.9657,-2.0154,-2.043,-2.0566,-2.0566,-2.0566,-2.0596,-2.0595,-2.0589,-2.0504,-2.0081,-1.9454,-1.8774,-1.8362,-1.7379,-1.6451,-1.6504,-1.6116,-1.5832,-1.5832,-1.5832,-1.5832,-1.5832,-1.5832,-1.573,-1.5635,-1.5356,-1.507,-1.4873,-1.4573,-1.3896,-1.263,-1.2436,-1.2242,-1.1755,-1.1072,-1.0391,-0.9809,-0.9027,-0.8963,-1.0016,-1.0696,-1.1122,-1.1114,-1.0464,-0.9706,-0.8937,-0.894,-0.894,-0.894,-0.894,-0.8862,-0.871,-0.871,-0.8632,-0.8479,-0.8431,-0.8408]},{"header":{"parameterUnit":"m.s-1","parameterCategory":1,"la1":30.6,"la2":29.2853,"lo1":-89.7004,"lo2":-87.6739,"dy":0.0162,"dx":0.0183,"nx":112,"ny":82,"refTime":"2026-04-24T12:00:00:Z","depth":0,"parameterNumber":3,"parameterNumberName":"V-component_of_WINDS"},"data":[0.0,0.0,0.0,0.0,0.0,0.0,0.0,0.0,0.0,0.0,0.0,0.0,0.0,0.0,0.0,0.0,0.0,0.0,0.0,0.0,0.0,0.0,0.0,0.0,0.0,0.0,0.0,0.0,0.0,0.0,0.0,0.0,0.0,0.0,0.0,0.0,0.0,0.0,0.0,0.0,0.0,0.0,0.0,0.0,0.0,0.0,0.0,0.0,0.0,0.0,0.0,0.0,0.0,0.0,0.0,0.0,0.0,0.0,0.0,0.0,0.0,0.0,0.0,0.0,0.0,0.0,0.0,0.0,0.0,0.0,0.0,0.0,0.0,0.0,0.0,0.0,0.0,0.0,0.0,0.0,0.0,0.0,0.0,0.0,0.0,0.0,0.0,0.0,0.0,0.0,-1.988,-2.305,-2.5597,-2.6381,-2.4757,-2.3667,-2.2013,-1.955,0.0,0.0,0.0,0.0,0.0,0.0,0.0,0.0,0.0,0.0,0.0,0.0,0.0,0.0,0.0,0.0,0.0,0.0,0.0,0.0,0.0,0.0,0.0,0.0,0.0,0.0,0.0,0.0,0.0,0.0,0.0,0.0,0.0,0.0,0.0,0.0,0.0,0.0,0.0,0.0,0.0,0.0,0.0,0.0,0.0,0.0,0.0,0.0,0.0,0.0,0.0,0.0,0.0,0.0,0.0,0.0,0.0,0.0,0.0,0.0,0.0,0.0,0.0,0.0,0.0,0.0,0.0,0.0,0.0,0.0,0.0,0.0,0.0,0.0,0.0,0.0,0.0,0.0,0.0,0.0,0.0,0.0,0.0,0.0,0.0,0.0,0.0,0.0,0.0,0.0,0.0,0.0,0.0,0.0,0.0,0.0,0.0,0.0,0.0,0.0,0.0,0.0,0.0,0.0,-2.0785,-2.4333,-2.594,-2.6311,-2.5197,-2.4574,-2.2977,-2.0001,0.0,0.0,0.0,0.0,0.0,0.0,0.0,0.0,0.0,0.0,0.0,0.0,0.0,0.0,0.0,0.0,0.0,0.0,0.0,0.0,0.0,0.0,0.0,0.0,0.0,0.0,0.0,0.0,0.0,0.0,0.0,0.0,0.0,0.0,0.0,0.0,0.0,0.0,0.0,0.0,0.0,0.0,0.0,0.0,0.0,0.0,0.0,0.0,0.0,0.0,0.0,0.0,0.0,0.0,0.0,0.0,0.0,0.0,0.0,0.0,0.0,0.0,0.0,0.0,0.0,0.0,0.0,0.0,0.0,0.0,0.0,0.0,0.0,0.0,0.0,0.0,0.0,0.0,0.0,0.0,0.0,0.0,0.0,0.0,0.0,0.0,0.0,0.0,0.0,0.0,0.0,0.0,0.0,0.0,0.0,0.0,0.0,0.0,0.0,0.0,0.0,0.0,0.0,-2.0924,-2.3654,-2.5585,-2.6867,-2.6961,-2.5508,-2.4936,-2.3299,-2.0092,-1.8185,0.0,0.0,0.0,0.0,0.0,0.0,0.0,0.0,0.0,0.0,0.0,0.0,0.0,0.0,0.0,0.0,0.0,0.0,0.0,0.0,0.0,0.0,0.0,0.0,0.0,0.0,0.0,0.0,0.0,0.0,0.0,0.0,0.0,0.0,0.0,0.0,0.0,0.0,0.0,0.0,0.0,0.0,0.0,0.0,0.0,0.0,0.0,0.0,0.0,0.0,0.0,0.0,0.0,0.0,0.0,0.0,0.0,0.0,0.0,0.0,0.0,0.0,0.0,0.0,0.0,0.0,0.0,0.0,0.0,0.0,0.0,0.0,0.0,0.0,0.0,0.0,0.0,0.0,0.0,0.0,0.0,0.0,0.0,0.0,0.0,0.0,0.0,0.0,0.0,0.0,0.0,0.0,0.0,0.0,0.0,0.0,0.0,0.0,0.0,0.0,0.0,0.0,-2.4214,-2.6284,-2.6829,-2.7796,-2.7659,-2.5745,-2.5007,-2.3198,-1.9883,-1.7971,0.0,0.0,0.0,0.0,0.0,0.0,0.0,0.0,0.0,0.0,0.0,0.0,0.0,0.0,0.0,0.0,0.0,0.0,0.0,0.0,0.0,0.0,0.0,0.0,0.0,0.0,0.0,0.0,0.0,0.0,0.0,0.0,0.0,0.0,0.0,0.0,0.0,0.0,0.0,0.0,0.0,0.0,0.0,0.0,0.0,0.0,0.0,0.0,0.0,0.0,0.0,0.0,0.0,0.0,0.0,0.0,0.0,0.0,0.0,0.0,0.0,0.0,0.0,0.0,0.0,0.0,0.0,0.0,0.0,0.0,0.0,0.0,0.0,0.0,0.0,0.0,0.0,0.0,0.0,0.0,0.0,0.0,0.0,0.0,0.0,0.0,0.0,0.0,0.0,0.0,0.0,0.0,0.0,0.0,0.0,0.0,0.0,0.0,0.0,0.0,0.0,0.0,-2.5607,-2.7315,-2.7923,-2.8433,-2.7989,-2.6045,-2.4752,-2.2591,-1.9188,-1.7089,0.0,0.0,0.0,0.0,0.0,0.0,0.0,0.0,0.0,0.0,0.0,0.0,0.0,0.0,0.0,0.0,0.0,0.0,0.0,0.0,0.0,0.0,0.0,0.0,0.0,0.0,0.0,0.0,0.0,0.0,0.0,0.0,0.0,0.0,0.0,0.0,0.0,0.0,0.0,0.0,0.0,0.0,0.0,0.0,0.0,0.0,0.0,0.0,0.0,0.0,0.0,0.0,0.0,0.0,0.0,0.0,0.0,0.0,0.0,0.0,0.0,0.0,0.0,0.0,0.0,0.0,0.0,0.0,0.0,0.0,0.0,0.0,0.0,0.0,0.0,0.0,0.0,0.0,0.0,0.0,0.0,0.0,0.0,0.0,0.0,0.0,0.0,0.0,0.0,0.0,0.0,0.0,0.0,0.0,0.0,0.0,0.0,0.0,0.0,0.0,0.0,0.0,-2.6388,-2.8244,-2.8328,-2.9225,-2.9034,-2.7118,-2.6185,-2.4226,-2.0811,0.0,0.0,0.0,0.0,0.0,0.0,0.0,0.0,0.0,0.0,0.0,0.0,0.0,0.0,0.0,0.0,0.0,0.0,0.0,0.0,0.0,0.0,0.0,0.0,0.0,0.0,0.0,0.0,0.0,0.0,0.0,0.0,0.0,0.0,0.0,0.0,0.0,0.0,0.0,0.0,0.0,0.0,0.0,0.0,0.0,0.0,0.0,0.0,0.0,0.0,0.0,0.0,0.0,0.0,0.0,0.0,0.0,0.0,0.0,0.0,0.0,0.0,0.0,0.0,0.0,0.0,0.0,0.0,0.0,0.0,0.0,0.0,0.0,0.0,0.0,0.0,0.0,0.0,0.0,0.0,0.0,0.0,0.0,0.0,0.0,0.0,0.0,0.0,0.0,0.0,0.0,0.0,0.0,0.0,0.0,0.0,0.0,0.0,0.0,0.0,0.0,0.0,-2.403,-2.7249,-2.9346,-2.9412,-3.0359,-3.0209,-2.8312,-2.7163,-2.5063,-2.1633,0.0,0.0,0.0,0.0,0.0,0.0,0.0,0.0,0.0,0.0,0.0,0.0,0.0,0.0,0.0,0.0,0.0,0.0,0.0,0.0,0.0,0.0,0.0,0.0,0.0,0.0,0.0,0.0,0.0,0.0,0.0,0.0,0.0,0.0,0.0,0.0,0.0,0.0,0.0,0.0,0.0,0.0,0.0,0.0,0.0,0.0,0.0,0.0,0.0,0.0,0.0,0.0,0.0,0.0,0.0,0.0,0.0,0.0,0.0,0.0,0.0,0.0,0.0,0.0,0.0,0.0,0.0,0.0,0.0,0.0,0.0,0.0,0.0,0.0,0.0,0.0,0.0,0.0,0.0,0.0,0.0,0.0,0.0,0.0,0.0,0.0,0.0,0.0,0.0,0.0,0.0,0.0,0.0,0.0,0.0,0.0,0.0,0.0,0.0,0.0,0.0,0.0,-2.4976,-2.8283,-3.0663,-3.1325,-3.1895,-3.143,-2.9481,-2.7409,-2.4739,0.0,0.0,0.0,0.0,0.0,0.0,0.0,0.0,0.0,0.0,0.0,0.0,0.0,0.0,0.0,0.0,0.0,0.0,0.0,0.0,0.0,0.0,0.0,0.0,0.0,0.0,0.0,0.0,0.0,0.0,0.0,0.0,0.0,0.0,0.0,0.0,0.0,0.0,0.0,0.0,0.0,0.0,0.0,0.0,0.0,0.0,0.0,0.0,0.0,0.0,0.0,0.0,0.0,0.0,0.0,0.0,0.0,0.0,0.0,0.0,0.0,0.0,0.0,0.0,0.0,0.0,0.0,0.0,0.0,0.0,0.0,0.0,0.0,0.0,0.0,0.0,0.0,0.0,0.0,0.0,0.0,0.0,0.0,0.0,0.0,0.0,0.0,0.0,0.0,0.0,0.0,0.0,0.0,0.0,0.0,0.0,0.0,0.0,0.0,0.0,0.0,0.0,0.0,-2.5053,-2.8832,-3.1328,-3.1389,-3.2387,-3.2295,-3.0381,-2.8815,-2.6517,-2.3042,0.0,0.0,0.0,0.0,0.0,0.0,0.0,0.0,0.0,0.0,0.0,0.0,0.0,0.0,0.0,0.0,0.0,0.0,0.0,0.0,0.0,0.0,0.0,0.0,0.0,0.0,0.0,0.0,0.0,0.0,0.0,0.0,0.0,0.0,0.0,0.0,0.0,0.0,0.0,0.0,0.0,0.0,0.0,0.0,0.0,0.0,0.0,0.0,0.0,0.0,0.0,0.0,0.0,0.0,0.0,0.0,0.0,0.0,0.0,0.0,0.0,0.0,0.0,0.0,0.0,0.0,0.0,0.0,0.0,0.0,0.0,0.0,0.0,0.0,0.0,0.0,0.0,0.0,0.0,0.0,0.0,0.0,0.0,0.0,0.0,0.0,0.0,0.0,0.0,0.0,0.0,0.0,0.0,0.0,0.0,0.0,0.0,0.0,0.0,0.0,0.0,0.0,-2.5072,-2.9333,-3.2109,-3.1938,-3.3107,-3.318,-3.1323,-2.972,-2.7364,-2.3976,0.0,0.0,0.0,0.0,0.0,0.0,0.0,0.0,0.0,0.0,0.0,0.0,0.0,0.0,0.0,0.0,0.0,0.0,0.0,0.0,0.0,0.0,0.0,0.0,0.0,0.0,0.0,0.0,0.0,0.0,0.0,0.0,0.0,0.0,0.0,0.0,0.0,0.0,0.0,0.0,0.0,0.0,0.0,0.0,0.0,0.0,0.0,0.0,0.0,0.0,0.0,0.0,0.0,0.0,0.0,0.0,0.0,0.0,0.0,0.0,0.0,0.0,0.0,0.0,0.0,0.0,0.0,0.0,0.0,0.0,0.0,0.0,0.0,0.0,0.0,0.0,0.0,0.0,0.0,0.0,0.0,0.0,0.0,0.0,0.0,0.0,0.0,0.0,0.0,0.0,0.0,0.0,0.0,0.0,0.0,0.0,0.0,0.0,0.0,0.0,0.0,0.0,-2.5072,-2.9756,-3.2858,-3.2722,-3.3903,-3.3973,-3.2152,-3.0243,-2.7691,-2.435,0.0,0.0,0.0,0.0,0.0,0.0,0.0,0.0,0.0,0.0,0.0,0.0,0.0,0.0,0.0,0.0,0.0,0.0,0.0,0.0,0.0,0.0,0.0,0.0,0.0,0.0,0.0,0.0,0.0,0.0,0.0,0.0,0.0,0.0,0.0,0.0,0.0,0.0,0.0,0.0,0.0,0.0,0.0,0.0,0.0,0.0,0.0,0.0,0.0,0.0,0.0,0.0,0.0,0.0,0.0,0.0,0.0,0.0,0.0,0.0,-2.5734,-2.4408,0.0,0.0,0.0,0.0,0.0,0.0,0.0,0.0,0.0,0.0,0.0,0.0,0.0,0.0,0.0,0.0,0.0,0.0,0.0,0.0,0.0,0.0,0.0,0.0,0.0,0.0,0.0,0.0,0.0,0.0,0.0,0.0,0.0,0.0,0.0,0.0,0.0,0.0,0.0,0.0,-2.5072,-2.9756,-3.2858,-3.2722,-3.3903,-3.3992,-3.2212,-3.0869,-2.8691,-2.5391,-2.2736,0.0,0.0,0.0,0.0,0.0,0.0,0.0,0.0,0.0,0.0,0.0,0.0,0.0,0.0,0.0,0.0,0.0,0.0,0.0,0.0,0.0,0.0,0.0,0.0,0.0,0.0,0.0,0.0,0.0,0.0,0.0,0.0,0.0,0.0,0.0,0.0,0.0,0.0,0.0,0.0,0.0,0.0,0.0,0.0,0.0,0.0,0.0,0.0,0.0,0.0,0.0,0.0,0.0,0.0,0.0,0.0,0.0,0.0,0.0,-2.945,-2.7941,0.0,0.0,0.0,0.0,0.0,0.0,0.0,0.0,0.0,0.0,0.0,0.0,0.0,0.0,0.0,0.0,0.0,0.0,0.0,0.0,0.0,0.0,0.0,0.0,0.0,0.0,0.0,0.0,0.0,0.0,0.0,0.0,0.0,0.0,0.0,0.0,0.0,0.0,0.0,0.0,-2.5659,-3.0006,-3.2685,-3.2129,-3.3295,-3.3372,-3.1673,-3.053,-2.8716,-2.5819,-2.3795,0.0,0.0,0.0,0.0,0.0,0.0,0.0,0.0,0.0,0.0,0.0,0.0,0.0,0.0,0.0,0.0,0.0,0.0,0.0,0.0,0.0,0.0,0.0,0.0,0.0,0.0,0.0,0.0,0.0,0.0,0.0,0.0,0.0,0.0,0.0,0.0,0.0,0.0,0.0,0.0,0.0,0.0,0.0,0.0,0.0,0.0,0.0,0.0,0.0,0.0,0.0,0.0,0.0,-3.0664,-3.2011,-3.2881,-3.3424,-3.4468,-3.5752,-3.4037,-3.265,-3.1584,-3.154,0.0,0.0,0.0,0.0,0.0,0.0,0.0,0.0,0.0,0.0,0.0,0.0,0.0,0.0,0.0,0.0,0.0,0.0,0.0,0.0,0.0,0.0,-3.0995,-2.9458,-2.8883,-2.8122,-2.6129,0.0,0.0,0.0,0.0,0.0,0.0,0.0,0.0,0.0,0.0,0.0,-2.6294,-3.0294,-3.2513,-3.1518,-3.2593,-3.2732,-3.1054,-3.013,-2.8614,-2.6212,-2.4818,-2.2968,0.0,0.0,0.0,0.0,0.0,0.0,0.0,0.0,0.0,0.0,0.0,0.0,0.0,0.0,0.0,0.0,0.0,0.0,0.0,0.0,0.0,0.0,0.0,0.0,0.0,0.0,0.0,0.0,0.0,0.0,0.0,0.0,-1.5724,-1.6605,0.0,0.0,0.0,0.0,0.0,0.0,0.0,0.0,0.0,0.0,0.0,0.0,0.0,-2.7075,-2.929,-3.0268,-3.1257,-3.234,-3.4119,-3.515,-3.5556,-3.7149,-3.8395,-3.9239,-3.897,0.0,-3.4567,-3.395,0.0,0.0,0.0,0.0,0.0,0.0,0.0,0.0,0.0,0.0,0.0,0.0,0.0,0.0,0.0,0.0,0.0,0.0,0.0,0.0,0.0,0.0,-3.384,-3.2855,-3.1988,-3.1505,-3.1917,-2.8255,-2.4654,-2.3895,-2.2887,-2.162,0.0,0.0,0.0,0.0,0.0,0.0,-2.637,-3.0294,-3.2513,-3.1518,-3.2593,-3.2732,-3.113,-3.0714,-2.9533,-2.7245,-2.6426,-2.4924,-2.2441,-2.0792,0.0,0.0,0.0,0.0,0.0,0.0,0.0,0.0,0.0,0.0,0.0,0.0,0.0,0.0,0.0,0.0,0.0,0.0,0.0,0.0,0.0,0.0,0.0,0.0,0.0,0.0,0.0,0.0,0.0,-1.6183,-1.8027,-1.7881,-1.88,-1.9143,0.0,0.0,0.0,0.0,0.0,0.0,0.0,0.0,0.0,-2.7031,-2.8694,-3.0536,-3.2598,-3.404,-3.526,-3.6288,-3.7608,-3.8373,-3.8678,-3.9621,-4.0487,-4.124,-4.124,-4.0464,-3.9019,-3.698,-3.5615,-3.4706,0.0,0.0,0.0,0.0,-3.3858,-3.4198,-3.3887,-3.4316,-3.4961,-3.4584,0.0,0.0,0.0,0.0,0.0,0.0,0.0,-3.3108,-3.359,-3.5253,-3.6575,-3.5692,-3.5178,-3.4705,-3.4127,-3.2128,-2.9909,-2.8067,-2.6208,-2.4543,-2.3322,-2.2004,0.0,0.0,0.0,-2.6294,-2.8467,-3.1179,-3.2513,-3.1513,-3.2193,-3.2071,-3.0451,-3.0208,-2.9564,-2.8236,-2.7619,-2.6387,-2.4366,-2.2697,-2.1003,0.0,0.0,0.0,0.0,0.0,0.0,0.0,0.0,0.0,0.0,0.0,0.0,0.0,0.0,0.0,0.0,0.0,0.0,0.0,0.0,0.0,0.0,0.0,0.0,0.0,0.0,0.0,0.0,-1.845,-2.0201,-1.975,-2.0933,-2.1452,0.0,0.0,0.0,0.0,0.0,0.0,-2.5879,-2.7317,-2.8708,-2.997,-3.1952,-3.3844,-3.5666,-3.7251,-3.8454,-3.9247,-4.0257,-4.0835,-4.1083,-4.1507,-4.2047,-4.2598,-4.2598,-4.2598,-4.2411,-3.9706,-3.8266,-3.7697,-3.6593,-3.6367,-3.6691,-3.6968,-3.7264,-3.7551,-3.7617,-3.8203,-3.8945,-3.8944,-3.7909,-3.6344,-3.4593,0.0,0.0,0.0,0.0,-3.5502,-3.6166,-3.7421,-3.8359,-3.7713,-3.7567,-3.7198,-3.5877,-3.5165,-3.3983,-3.1342,-2.9061,-2.7236,-2.6159,-2.4755,0.0,-2.5447,-2.6544,-2.8005,-3.0129,-3.2064,-3.2852,-3.1852,-3.2055,-3.1673,-3.0294,-2.9918,-2.9504,-2.8899,-2.8315,-2.7354,-2.5909,-2.4256,-2.2533,-2.0787,0.0,0.0,0.0,0.0,0.0,0.0,0.0,0.0,0.0,0.0,0.0,0.0,0.0,0.0,0.0,0.0,0.0,0.0,0.0,0.0,0.0,0.0,0.0,0.0,0.0,0.0,0.0,0.0,0.0,-2.3164,-2.4424,0.0,0.0,0.0,0.0,-2.6089,-2.7405,-2.8712,-3.0036,-3.0612,-3.1952,-3.4321,-3.5383,-3.6753,-3.8579,-3.957,-4.0167,-4.0419,-4.1361,-4.1921,-4.2132,-4.2986,-4.3387,-4.3424,-4.3424,-4.3458,-4.3398,-4.1658,-4.0665,-4.0169,-3.9575,-3.964,-4.0092,-4.043,-4.1155,-4.1999,-4.2048,-4.2656,-4.3379,-4.3379,-4.1152,-3.8144,-3.6406,-3.5195,0.0,0.0,-3.5781,-3.7187,-3.7226,-3.791,-3.8574,-3.8535,-3.8535,-3.8495,-3.8339,-3.695,-3.4943,-3.2242,-3.0923,-2.9698,-2.8044,0.0,-2.6447,-2.6524,-2.7928,-2.9313,-3.0294,-3.2583,-3.3755,-3.2833,-3.2537,-3.2062,-3.1298,-3.0411,-2.9631,-2.9032,-2.8373,-2.7642,-2.6856,-2.523,-2.3514,-2.1753,-2.0784,0.0,0.0,0.0,0.0,0.0,0.0,0.0,0.0,0.0,0.0,0.0,0.0,0.0,0.0,0.0,0.0,0.0,0.0,0.0,0.0,0.0,0.0,0.0,0.0,0.0,0.0,0.0,0.0,-2.5914,-2.7191,0.0,-2.8283,-2.8408,-2.8989,-3.0159,-3.151,-3.2661,-3.3584,-3.4551,-3.5793,-3.729,-3.8276,-3.9445,-4.0782,-4.1304,-4.1845,-4.2426,-4.2772,-4.2953,-4.3041,-4.3369,-4.3773,-4.4268,-4.4268,-4.4632,-4.5247,-4.4767,-4.3602,-4.2081,-4.1542,-4.1606,-4.2082,-4.2369,-4.2742,-4.3142,-4.32,-4.3808,-4.4531,-4.4531,-4.332,-4.166,-4.0488,-3.9531,-3.8887,-3.8887,-3.9707,-4.0586,-4.0586,-4.123,-4.1738,-4.1172,-4.1055,-4.0722,-3.9582,-3.8809,-3.7692,-3.556,-3.3448,-3.1814,-3.1218,-3.0852,-3.066,-3.066,-3.116,-3.1852,-3.2737,-3.3641,-3.4057,-3.3686,-3.2959,-3.2213,-3.1432,-3.0487,-2.9961,-2.991,-2.8742,-2.7981,-2.7741,-2.613,-2.4683,-2.3492,-2.2664,-2.1232,0.0,0.0,0.0,0.0,0.0,0.0,0.0,0.0,0.0,0.0,0.0,0.0,0.0,0.0,0.0,0.0,0.0,0.0,0.0,0.0,0.0,0.0,0.0,0.0,0.0,0.0,-2.7431,-2.8192,-2.9755,-3.0934,-3.1406,-3.176,-3.2502,-3.3723,-3.5075,-3.6144,-3.6848,-3.7897,-3.8924,-3.9914,-4.0652,-4.1519,-4.2569,-4.2791,-4.3133,-4.3682,-4.3682,-4.3682,-4.3682,-4.3682,-4.4091,-4.4865,-4.4865,-4.5445,-4.6438,-4.662,-4.5866,-4.4587,-4.4241,-4.4343,-4.4752,-4.5017,-4.5211,-4.5323,-4.5427,-4.582,-4.6328,-4.6328,-4.5527,-4.4473,-4.3887,-4.293,-4.2031,-4.2031,-4.2422,-4.2832,-4.2832,-4.3262,-4.3555,-4.2988,-4.2832,-4.2441,-4.0994,-4.0391,-3.9689,-3.8198,-3.5678,-3.3718,-3.3397,-3.3096,-3.2891,-3.2891,-3.3141,-3.3545,-3.4122,-3.4449,-3.4614,-3.4558,-3.3398,-3.242,-3.1919,-3.0763,-3.0157,-3.0409,-2.8965,-2.8121,-2.8193,-2.6595,-2.5293,-2.4414,-2.3025,-2.1751,-2.0598,0.0,0.0,0.0,0.0,0.0,0.0,0.0,0.0,0.0,0.0,0.0,0.0,0.0,0.0,0.0,0.0,0.0,0.0,0.0,0.0,0.0,0.0,0.0,-2.4361,-2.7131,-2.9396,-3.0098,-3.2164,-3.352,-3.3473,-3.4773,-3.5957,-3.6686,-3.8025,-3.9116,-3.9866,-4.0441,-4.1247,-4.2257,-4.2396,-4.2918,-4.391,-4.3974,-4.4036,-4.4036,-4.4036,-4.4036,-4.4036,-4.4036,-4.4482,-4.5263,-4.5263,-4.5904,-4.6915,-4.7052,-4.7314,-4.7697,-4.764,-4.7815,-4.8135,-4.8411,-4.8584,-4.8723,-4.8845,-4.8906,-4.8906,-4.8906,-4.7754,-4.6387,-4.6387,-4.5195,-4.3867,-4.3828,-4.3828,-4.3828,-4.3789,-4.3789,-4.3769,-4.375,-4.373,-4.3496,-4.2598,-4.1693,-4.0781,-3.989,-3.755,-3.5411,-3.4455,-3.357,-3.3006,-3.2987,-3.3699,0.0,-3.4237,-3.4988,-3.5493,-3.5412,-3.3801,-3.2737,-3.2804,-3.1205,-3.0292,-3.0491,-2.8985,-2.8121,-2.8193,-2.6615,-2.5332,-2.4492,-2.1992,-2.0684,-2.0644,0.0,0.0,0.0,0.0,0.0,0.0,0.0,0.0,0.0,0.0,0.0,0.0,0.0,0.0,0.0,0.0,0.0,0.0,0.0,0.0,0.0,-2.4979,-2.721,-2.7813,-3.0714,-3.3037,-3.3757,-3.5372,-3.6654,-3.7162,-3.8014,-3.8884,-3.9669,-4.0616,-4.1511,-4.231,-4.25,-4.3006,-4.3915,-4.398,-4.4111,-4.4411,-4.443,-4.4438,-4.4438,-4.4438,-4.4438,-4.4438,-4.4438,-4.5209,-4.6496,-4.6496,-4.7438,-4.8993,-4.9162,-4.943,-4.958,-4.8353,-4.8064,-4.8338,-4.8498,-4.8699,-4.8843,-4.8886,-4.8906,-4.8906,-4.8906,-4.8574,-4.8183,-4.8183,-4.7851,-4.7344,-4.6719,-4.6523,-4.6387,-4.5742,-4.5586,-4.543,-4.4785,-4.4648,-4.4238,-4.2715,-4.2201,-4.1573,-4.0055,-3.9035,-3.7943,-3.6412,-3.5881,-3.5468,-3.4872,-3.4988,-3.5141,-3.5141,-3.5353,-3.5493,-3.546,-3.3903,-3.2852,-3.2865,-3.1315,-3.0394,-3.0501,-2.8994,-2.8121,-2.8193,-2.72,-2.6523,-2.6289,-2.4355,-2.2754,0.0,0.0,0.0,0.0,0.0,0.0,0.0,0.0,0.0,0.0,0.0,0.0,0.0,0.0,0.0,0.0,0.0,0.0,0.0,0.0,0.0,0.0,-2.7422,-2.9822,-3.1759,-3.3613,-3.4937,-3.5355,-3.7034,-3.8478,-3.9261,-3.9958,-4.0858,-4.2014,-4.2545,-4.317,-4.4023,-4.4037,-4.4283,-4.4795,-4.4814,-4.4814,-4.4814,-4.4814,-4.4819,-4.4825,-4.4849,-4.4853,-4.4858,-4.4881,-4.5798,-4.7333,-4.7333,-4.84,-5.0102,-5.0259,-5.047,-5.0621,0.0,0.0,0.0,0.0,-4.9851,-4.9941,-4.9941,-4.9941,-4.9941,-4.9941,-4.9726,-4.9433,-4.9433,-4.9199,-4.8789,-4.8281,-4.8144,-4.7949,-4.707,-4.6836,-4.6621,-4.5742,-4.5547,-4.5176,-4.3789,-4.32,-4.2548,-4.115,-4.0434,0.0,-3.8233,-3.727,-3.6546,-3.6084,-3.5718,-3.5493,-3.5493,-3.5493,-3.5493,-3.5493,-3.4276,-3.343,-3.343,-3.191,0.0,0.0,0.0,-2.8488,-2.8242,-2.7782,0.0,0.0,0.0,0.0,0.0,-2.3667,0.0,0.0,-2.0994,-2.1251,0.0,0.0,0.0,0.0,0.0,0.0,0.0,0.0,0.0,0.0,0.0,0.0,0.0,0.0,0.0,0.0,-2.9736,-3.2046,-3.5346,-3.586,-3.5905,-3.5938,-3.7859,-3.9484,-4.029,-4.1055,-4.2158,-4.3743,-4.3952,-4.4353,-4.5132,-4.517,0.0,0.0,0.0,-4.517,-4.517,-4.517,-4.5154,-4.5161,-4.5241,-4.5283,-4.5285,-4.5342,-4.6282,-4.7876,-4.7876,-4.8914,-5.0567,-5.0624,-5.0786,-5.1024,-5.0962,-5.1032,-5.1145,-5.1319,-5.1401,-5.1406,-5.1406,0.0,0.0,-5.1406,-5.0918,-5.0332,-5.0332,-4.9805,-4.916,-4.9062,-4.9043,-4.8828,-4.7851,-4.7598,-4.7383,-4.6504,-4.6308,-4.6055,-4.5195,-4.4394,-4.3554,-4.2583,-4.1617,-4.0673,-3.982,-3.8189,-3.6969,-3.6873,-3.6161,-3.5641,-3.5641,-3.5565,-3.5493,-3.5493,-3.4718,0.0,-3.4199,-3.2756,-3.1869,-3.1929,-3.0373,-2.9149,-2.8437,-2.8324,-2.8324,-2.8402,-2.7563,-2.7111,-2.7111,-2.635,-2.6016,-2.6055,-2.4335,-2.4334,0.0,0.0,0.0,0.0,0.0,0.0,0.0,0.0,0.0,0.0,0.0,0.0,0.0,0.0,0.0,-2.87,-3.1115,-3.3426,-3.5507,-3.6943,-3.7986,-3.8575,-3.9572,-4.0553,-4.1421,-4.2268,-4.3171,-4.4131,-4.4861,-4.5322,-4.5495,-4.5514,-4.5514,-4.5514,-4.5514,-4.5514,-4.5514,-4.5514,-4.5531,-4.558,-4.5645,0.0,-4.5764,-4.577,-4.6742,-4.8361,-4.8365,-4.9354,-5.0974,-5.0993,-5.1059,-5.1178,-5.1217,-5.1275,-5.1338,-5.1381,-5.1405,-5.1406,-5.1406,-5.1406,-5.1406,-5.1406,-5.1289,-5.1172,-5.1172,-5.1055,0.0,-5.0137,-4.9941,-4.959,-4.8008,-4.7598,-4.7383,-4.6504,-4.6308,-4.6055,-4.5195,-4.4863,-4.4277,-4.2708,-4.2153,-4.1643,-4.0781,-3.9605,-3.8565,-3.7853,-3.7026,-3.6469,-3.6469,-3.5911,-3.5493,-3.5493,-3.4718,-3.4199,-3.4199,-3.3256,-3.2704,-3.2764,-3.1245,-2.9974,-2.9135,-2.848,-2.8442,-2.9096,-2.8306,-2.7891,-2.7891,-2.7717,-2.7976,-2.8565,-2.692,-2.6339,0.0,0.0,0.0,0.0,0.0,0.0,0.0,0.0,0.0,0.0,0.0,-2.3135,-2.4884,0.0,-2.9119,-3.0858,-3.2617,-3.4536,-3.6791,-3.7788,-3.8591,-3.9402,-4.0146,-4.1109,-4.242,-4.2941,-4.3713,-4.4947,-4.5449,-4.57,-4.57,-4.57,-4.57,-4.57,-4.57,-4.57,-4.57,-4.57,-4.5742,-4.5789,-4.5873,-4.5935,-4.6002,-4.6026,-4.698,-4.8613,-4.8604,-4.9586,-5.1208,-5.1247,-5.127,-5.13,-5.1343,-5.1375,-5.14,-5.1408,-5.1403,-5.1406,-5.1406,-5.1406,-5.1406,-5.1406,-5.1406,-5.1406,-5.1406,-5.1406,-5.1328,-5.0918,-5.0508,-4.9902,-4.8594,-4.793,-4.7383,-4.6504,-4.6308,-4.6172,-4.5742,-4.5312,-4.4609,-4.33,-4.263,-4.1961,-4.1066,-4.0389,-3.9687,-3.8787,-3.7906,-3.7199,-3.6757,-3.6353,-3.5949,-3.5532,-3.5122,-3.4853,-3.4853,-3.4058,-3.3403,-3.3018,-3.228,-3.1476,-3.0632,-3.0217,-3.0197,-3.0593,-3.0217,-3.0197,-3.0595,-3.0595,-3.0817,-3.1174,-3.0385,-2.9771,0.0,0.0,0.0,0.0,0.0,0.0,0.0,0.0,-2.0753,-2.2722,-2.4498,-2.6205,-2.7915,-2.9682,-3.1395,-3.299,-3.3983,-3.5396,-3.7787,-3.8088,-3.8444,-3.9496,-4.0261,-4.1332,-4.2899,-4.3208,-4.3943,-4.5471,-4.5722,-4.5819,-4.5819,-4.5819,-4.5819,-4.5819,-4.5819,-4.5819,-4.5819,-4.5819,-4.5874,-4.5949,-4.599,-4.6041,-4.6124,-4.6189,-4.7147,-4.8751,-4.9083,-5.0015,-5.1323,-5.1381,-5.1406,-5.14,-5.1394,-5.1396,-5.1406,-5.1406,-5.1406,-5.1406,-5.1406,-5.1406,-5.1406,-5.1406,-5.1406,-5.1406,-5.1406,-5.1406,-5.1406,-5.1406,-5.082,-5.0,-4.9121,-4.8242,-4.7383,-4.6504,-4.6308,-4.6308,-4.6308,-4.5742,-4.4941,-4.3906,-4.3082,-4.222,-4.1103,-4.0829,-4.0461,-3.9692,-3.8806,-3.8007,-3.7296,-3.6911,-3.6449,-3.5815,-3.5589,-3.5493,-3.5493,-3.4866,-3.4096,-3.3288,-3.3272,-3.2956,-3.2126,-3.2087,-3.2087,-3.2087,-3.2087,-3.2416,-3.3055,-3.3055,-3.3055,-3.3074,-3.3227,-3.2852,-1.811,-1.8684,-2.0153,-2.1611,-2.128,-2.1044,0.0,0.0,-2.2655,-2.5229,-2.6651,-2.7972,-2.9774,-3.1482,-3.2942,-3.3916,-3.4851,-3.5844,-3.7003,-3.7203,-3.7831,-3.9489,-4.0344,-4.117,-4.215,-4.2931,-4.3788,-4.4742,-4.549,-4.5877,-4.5877,-4.5877,-4.5877,-4.5877,-4.5877,-4.5877,-4.5877,-4.5877,-4.5949,-4.6079,-4.6086,-4.6119,-4.6192,-4.6261,-4.7245,-4.8964,-5.0449,-5.121,-5.1386,-5.1405,-5.1391,-5.14,-5.1394,-5.1396,-5.1406,-5.1406,-5.1406,-5.1406,-5.1406,-5.1406,-5.1406,-5.1406,-5.1406,-5.1406,-5.1406,-5.1406,-5.1406,-5.1406,-5.082,-5.0,-4.9121,-4.8242,-4.7383,-4.6504,-4.6308,-4.6308,-4.6308,-4.6211,-4.5664,-4.4023,-4.3613,-4.3006,-4.1272,-4.0935,-4.0801,-4.0578,-3.9755,-3.9123,-3.9008,-3.7661,-3.668,-3.6584,-3.593,-3.5493,-3.5493,-3.5411,-3.4988,-3.4116,-3.4071,-3.3686,-3.282,-3.2781,-3.2781,-3.2781,-3.2781,-3.282,-3.2916,-3.2916,-3.2916,-3.2935,-3.3724,-3.3646,-2.025,-2.1126,-2.2681,0.0,-2.3909,-2.4181,-2.5389,-2.5812,-2.6416,-2.8122,-3.0073,-3.1712,-3.2474,-3.359,-3.4526,0.0,-3.5277,-3.5868,-3.681,-3.6978,-3.7467,-3.8721,-3.9602,-4.0662,-4.2084,-4.3007,-4.3858,-4.4689,-4.5533,-4.6027,-4.6027,-4.6027,-4.6027,-4.6027,-4.6027,-4.6027,-4.6027,-4.6027,-4.6053,-4.6157,-4.6162,-4.6199,-4.6265,-4.6284,-4.7246,-4.8984,-5.0664,-5.1406,-5.1406,-5.1406,-5.1398,-5.1401,-5.1394,-5.1404,-5.1406,-5.1406,-5.1406,-5.1406,-5.1406,-5.1406,-5.1406,-5.1406,-5.1406,-5.1406,-5.1406,-5.1074,-5.0703,-5.0703,-4.9726,-4.8594,-4.8242,-4.75,-4.6758,-4.6387,-4.6308,-4.6308,-4.6308,-4.5898,-4.5176,-4.3945,-4.3281,-4.2539,-4.1279,-4.0996,-4.0935,-4.083,-4.0384,-3.9856,-3.9379,-3.8214,-3.7084,-3.6122,-3.5699,-3.5493,-3.5493,-3.5493,-3.5353,-3.4988,-3.4968,-3.4564,-3.368,-3.366,-3.366,-3.366,-3.366,-3.391,-3.441,-3.441,-3.441,-3.443,-3.4795,-3.477,-2.2532,0.0,0.0,-2.5519,-2.6034,-2.6532,-2.7382,-2.8075,-2.8834,-2.9813,-3.1852,-3.3415,-3.3415,-3.4337,-3.5091,-3.5091,-3.5264,-3.5652,-3.6357,-3.6466,-3.6849,-3.7802,-3.8685,-3.9816,-4.1375,-4.2532,-4.3527,-4.4347,-4.5224,-4.5809,-4.6024,-4.6044,-4.6044,-4.6044,-4.6044,-4.6044,-4.6044,-4.6044,-4.6085,-4.6165,-4.6168,-4.6219,-4.6285,-4.6796,-4.7715,-4.8984,-5.0664,-5.1406,-5.1406,-5.1406,-5.1406,-5.1406,-5.1406,-5.1406,-5.1406,-5.1406,-5.1406,-5.1406,-5.1406,-5.1406,-5.1406,-5.1406,-5.1406,-5.1406,-5.1406,-5.084,-5.0195,-5.0195,-4.8945,-4.7598,-4.7598,-4.6953,-4.6308,-4.6308,-4.6308,-4.6308,-4.6308,-4.5625,-4.4746,-4.3867,-4.3008,-4.2128,-4.1245,-4.106,-4.1,-4.0933,-4.0781,-4.043,-3.9783,-3.8705,-3.7353,-3.568,-3.5493,-3.5493,-3.5493,-3.5493,-3.5493,-3.5493,-3.5493,-3.5218,-3.4584,-3.4564,-3.4564,-3.4564,-3.4564,-3.4872,-3.5493,-3.5493,-3.5493,-3.5493,-3.5493,-3.5493,0.0,0.0,-2.552,-2.7053,-2.7239,-2.7281,-2.8091,-2.8351,-2.8664,-2.9614,-3.0696,-3.1494,-3.1494,-3.2894,-3.406,-3.406,-3.471,-3.5242,-3.5339,-3.5397,-3.583,-3.681,-3.7702,-3.8607,-3.949,-4.113,-4.2496,-4.3385,-4.4238,-4.5084,-4.5852,-4.591,-4.591,-4.591,-4.591,-4.591,-4.591,-4.591,-4.5966,-4.6111,-4.6099,-4.6143,-4.6269,-4.8027,-4.8848,-4.8984,-5.0664,-5.1406,-5.1406,-5.1406,-5.1406,-5.1406,-5.1406,-5.1406,-5.1406,-5.1406,-5.1406,-5.1406,-5.1406,-5.1406,-5.1406,-5.1406,-5.1406,-5.1406,-5.1406,-5.084,-5.0195,-5.0195,-4.8945,-4.7598,-4.7598,-4.6953,-4.6308,-4.6308,-4.6308,-4.6308,-4.6308,-4.5625,-4.4746,-4.3867,-4.3008,-4.2129,-4.125,-4.1105,-4.1069,-4.101,-4.0875,-4.0765,-4.0675,-3.91,-3.7353,-3.568,-3.5493,-3.5493,-3.5493,-3.5493,-3.5493,-3.5493,-3.5493,-3.5488,-3.5468,-3.5468,-3.5468,-3.5468,-3.5468,-3.5468,-3.5493,-3.5493,-3.5493,-3.5493,-3.5493,-3.5493,-2.4759,0.0,-2.7102,-2.8638,-2.9231,-2.9491,-2.977,-3.0277,-3.0617,-3.049,-3.1258,-3.1929,-3.1929,-3.2403,-3.2972,-3.3523,-3.3827,-3.4224,-3.4884,-3.5556,-3.6147,-3.6584,-3.7486,-3.8408,-3.9276,-4.1021,0.0,-4.3272,-4.4099,-4.4931,-4.5725,-4.5764,-4.5796,-4.5841,-4.5873,-4.5905,-4.5905,-4.5905,-4.5933,-4.6027,-4.6123,-4.6189,-4.6256,-4.8033,-4.8833,-4.8931,-5.0658,-5.1405,-5.1406,-5.1406,-5.1406,-5.1406,-5.1406,-5.1406,-5.1406,-5.1406,-5.1406,-5.1406,-5.1406,-5.1406,-5.1406,-5.1406,-5.1406,-5.1406,-5.1406,-5.043,-4.9336,-4.9336,-4.8086,-4.6738,-4.6738,-4.6523,-4.6308,-4.6308,-4.6308,-4.6308,-4.6308,-4.5156,-4.4043,-4.3769,-4.2578,-4.1504,-4.1211,-4.1164,-4.1105,-4.0898,-4.078,-4.0288,-3.9075,-3.8383,-3.7353,-3.568,-3.5493,-3.5493,-3.5493,-3.5493,-3.5493,-3.5493,-3.5493,-3.5493,-3.5493,-3.5493,-3.5493,-3.5493,-3.5493,-3.5493,-3.5493,-3.5493,-3.5493,-3.5493,-3.5493,-3.5493,-2.5969,-2.731,-2.8537,-2.9471,-3.0111,-3.0445,-3.0123,-3.046,-3.0597,-2.9899,-3.0282,-3.0659,-3.0377,-3.0828,-3.1506,-3.2297,-3.2937,-3.3653,-3.4602,-3.5572,-3.6252,-3.6379,-3.7548,-3.8569,0.0,0.0,0.0,-4.3067,-4.3547,-4.4289,-4.5445,-4.5503,-4.5536,-4.5619,-4.5718,-4.58,-4.58,-4.58,-4.5847,-4.5932,-4.6052,-4.6092,-4.6151,-4.7898,-4.869,-4.8787,-5.0561,-5.1324,-5.1325,-5.1386,-5.1406,-5.1406,-5.1406,-5.1406,-5.1406,-5.1406,-5.1406,-5.1406,-5.1406,-5.1406,-5.1406,-5.1406,-5.1406,-5.1406,-5.1406,-5.0234,-4.8906,-4.8906,-4.7637,-4.6308,-4.6308,-4.6308,-4.6308,-4.6308,-4.6308,-4.6308,-4.6308,-4.5176,-4.4062,-4.3769,-4.2578,-4.1543,-4.125,-4.1187,-4.109,-4.0858,-4.0798,-4.0106,-3.8248,-3.8007,-3.7353,-3.568,-3.5493,-3.5493,-3.5493,-3.5493,-3.5493,-3.5493,-3.5493,-3.5493,-3.5493,-3.5493,-3.5493,-3.5493,-3.5493,-3.5493,-3.5493,-3.5493,-3.5493,-3.5493,-3.5493,-3.5493,-2.8007,-2.9259,-2.9849,-2.9662,-3.0039,-3.022,-2.9351,-2.9067,-2.8754,-2.8009,-2.7892,-2.7733,0.0,0.0,-2.9623,-3.0482,-3.2032,-3.3437,-3.437,-3.5388,-3.6099,0.0,0.0,0.0,0.0,0.0,0.0,-4.2718,-4.264,-4.3283,-4.5096,-4.5135,-4.518,-4.5302,-4.5495,-4.5586,-4.5586,-4.5605,-4.5659,-4.5803,-4.586,-4.5898,-4.5963,-4.7695,-4.8496,-4.8612,-5.0409,-5.1203,-5.1219,-5.1344,-5.1406,-5.1406,-5.1406,-5.1406,-5.1406,-5.1406,-5.1406,-5.1406,-5.1406,-5.1406,-5.1406,-5.1406,-5.1367,-5.1348,-5.1348,-5.0176,-4.8828,-4.8828,-4.7617,-4.6308,-4.6308,-4.6308,-4.6308,-4.6308,-4.6308,-4.6308,-4.6308,-4.5625,-4.4746,-4.3867,-4.2969,-4.2109,-4.1328,-4.1131,-4.1052,-4.0928,-4.0904,-4.0216,-3.832,-3.8027,-3.7373,-3.5738,-3.5512,-3.5493,-3.5493,-3.5493,-3.5493,-3.5493,-3.5493,-3.5493,-3.5493,-3.5493,-3.5493,-3.5493,-3.5493,-3.5493,-3.5493,-3.5493,-3.5493,-3.5493,-3.5493,-3.5493,-2.9023,-3.0301,-3.1283,-3.1169,-3.1159,-3.0901,-2.9966,-2.9193,-2.8403,-2.7622,-2.6518,-2.5874,0.0,0.0,0.0,-2.9208,-3.0793,0.0,-3.3147,-3.5142,0.0,-3.6712,0.0,-3.8729,-3.9375,-3.9031,0.0,0.0,-4.2443,-4.3292,-4.5096,-4.5173,-4.5256,-4.536,-4.5419,-4.5438,-4.5438,-4.555,-4.5635,-4.5727,-4.578,-4.5848,-4.5963,-4.765,-4.8425,-4.8522,-5.0336,-5.1142,-5.1211,-5.1281,-5.1344,-5.1406,-5.1406,-5.1406,-5.1406,-5.1406,-5.1406,-5.1406,-5.1406,-5.1406,-5.1406,-5.1406,-5.0996,-5.0508,-5.0508,-4.9297,-4.793,-4.793,-4.7148,-4.6308,-4.6308,-4.6308,-4.6308,-4.6308,-4.6308,-4.6308,-4.6308,-4.5625,-4.4746,-4.3867,-4.2519,-4.1445,-4.123,-4.1133,-4.1069,-4.0996,-4.0935,-4.0441,-3.9193,-3.8483,-3.7646,-3.6507,-3.5872,-3.5493,-3.5493,-3.5493,-3.5493,-3.5493,-3.5493,-3.5493,-3.5493,-3.5493,-3.5493,-3.5493,-3.5493,-3.5493,-3.5493,-3.5493,-3.5493,-3.5493,-3.5493,-3.5493,-2.9751,-3.0761,-3.152,-3.1083,-3.087,-3.0435,-2.9075,-2.8012,-2.6986,-2.5787,-2.4567,0.0,-2.4024,-2.479,0.0,0.0,0.0,0.0,-3.2532,-3.4988,-3.6708,0.0,-3.7941,0.0,-3.9414,-3.9352,-4.0027,0.0,-4.2233,-4.3137,-4.4985,-4.5109,-4.5216,-4.5317,-4.5281,-4.5282,-4.5282,-4.54,-4.553,-4.5665,-4.5696,-4.5727,-4.5829,-4.7511,-4.8284,-4.8381,-5.0177,-5.1009,-5.1076,-5.1176,-5.1249,-5.1322,-5.1386,-5.1406,-5.1406,-5.1406,-5.1406,-5.1406,-5.1406,-5.1406,-5.1406,-5.1406,-5.1094,-5.0723,-5.0723,-4.9531,-4.8164,-4.8164,-4.7266,-4.6308,-4.6308,-4.6308,-4.6308,-4.6308,-4.6308,-4.6308,-4.6308,-4.5918,-4.5195,-4.3945,-4.2637,-4.1601,-4.1269,-4.1133,-4.1092,-4.1055,-4.0988,-4.0714,-4.0103,-3.9232,-3.8169,-3.6834,-3.6315,-3.5892,-3.5532,-3.5493,-3.5493,-3.5493,-3.5493,-3.5493,-3.5493,-3.5493,-3.5493,-3.5493,-3.5493,-3.5493,-3.5493,-3.5493,-3.5493,-3.5493,-3.5493,-3.5493,-3.0212,-3.0906,-3.1249,-3.0307,-2.9922,-2.9319,-2.7439,-2.6108,-2.4811,-2.3265,0.0,-2.1544,-2.1059,-2.2373,-2.407,-2.5746,0.0,-3.0246,-3.2001,-3.4537,-3.634,-3.6615,-3.8077,-3.9107,-3.9219,-3.9937,-4.0803,-4.1754,-4.2063,-4.2976,-4.4795,-4.5023,-4.5113,-4.5129,-4.509,-4.5049,-4.5052,-4.5201,-4.5381,-4.5568,-4.5586,-4.5586,-4.5663,-4.7336,-4.8105,-4.8202,-5.0005,-5.0813,-5.0889,-5.1024,-5.112,-5.121,-5.1342,-5.1386,-5.1406,-5.1406,-5.1406,-5.1406,-5.1406,-5.1406,-5.1406,-5.1406,-5.1328,-5.123,-5.123,-5.0058,-4.873,-4.873,-4.7558,-4.6308,-4.6308,-4.6308,-4.6308,-4.6308,-4.6308,-4.6308,-4.6308,-4.6211,-4.5644,-4.4023,-4.3008,-4.2148,-4.1348,-4.1152,-4.1112,-4.1119,-4.1052,-4.0955,-4.082,-3.9983,-3.8749,-3.706,-3.6776,-3.6372,-3.5584,-3.5493,-3.5493,-3.5493,-3.5493,-3.5493,-3.5493,-3.5493,-3.5493,-3.5493,-3.5493,-3.5493,-3.5493,-3.5493,-3.5493,-3.5493,-3.5493,-3.5493,-3.0149,-3.0919,-3.1536,-3.0133,-2.9264,-2.8272,-2.6455,-2.4162,0.0,0.0,-1.99,-1.9084,-1.9762,-2.0776,-2.2046,-2.3728,0.0,-2.8464,-3.0195,-3.2653,-3.4806,0.0,-3.7227,-3.8085,-3.8737,-3.9528,0.0,0.0,-4.218,-4.3296,-4.4739,-4.4943,-4.4948,-4.4795,-4.4777,-4.4758,-4.4751,-4.5,-4.5237,-4.5438,-4.5495,-4.555,-4.5663,-4.7336,-4.8105,-4.8202,-4.9951,-5.0756,-5.0841,-5.0956,-5.1089,-5.1222,-5.1284,-5.1346,-5.1405,-5.1398,-5.1404,-5.1406,-5.1406,-5.1406,-5.1406,-5.1406,-5.0957,-5.041,-5.041,-4.9199,-4.7832,-4.7832,-4.709,-4.6308,-4.6308,-4.6308,-4.6308,-4.6308,-4.6308,-4.6308,-4.6308,-4.5723,-4.4922,-4.3906,-4.3008,-4.2148,-4.1348,-4.1191,-4.1172,-4.1171,-4.1123,-4.1013,-4.0829,-4.0033,-3.9039,-3.7906,-3.7142,-3.6372,-3.5584,-3.5493,-3.5493,-3.5493,-3.5493,-3.5493,-3.5493,-3.5493,-3.5493,-3.5493,-3.5493,-3.5493,-3.5493,-3.5493,-3.5493,-3.5493,-3.5493,-3.5493,-2.9691,-3.0124,-3.0378,-2.9579,-2.8524,-2.7189,-2.5348,0.0,0.0,0.0,-1.8025,-1.7235,-1.8081,-1.9012,0.0,-2.2429,-2.4967,-2.7453,-2.9639,-3.2153,0.0,-3.6101,-3.7,-3.7808,0.0,-3.9808,-4.0735,-4.123,-4.2563,-4.3703,-4.4503,-4.4636,-4.4591,-4.4337,-4.4365,-4.4365,-4.4337,-4.4643,-4.4934,-4.5243,-4.5342,-4.5476,-4.5663,-4.7336,-4.8105,-4.8202,-4.9933,-5.072,-5.0757,-5.0858,-5.0952,-5.1056,-5.1123,-5.1189,-5.1248,-5.1271,-5.1308,-5.1301,-5.1386,-5.1406,-5.1406,-5.1406,-5.1133,-5.082,-5.082,-4.9629,-4.8281,-4.8281,-4.7324,-4.6308,-4.6308,-4.6308,-4.6308,-4.6308,-4.6308,-4.6308,-4.6308,-4.5976,-4.5273,-4.3965,-4.3359,-4.2676,-4.1426,-4.1191,-4.1191,-4.1191,-4.1144,-4.1033,-4.0829,-4.0436,-3.9618,-3.8171,-3.7623,-3.6873,-3.5622,-3.5493,-3.5493,-3.5493,-3.5493,-3.5493,-3.5493,-3.5493,-3.5493,-3.5493,-3.5493,-3.5493,-3.5493,-3.5493,-3.5493,-3.5493,-3.5493,-3.5493,-2.8764,-2.8923,-2.8935,-2.857,-2.7497,-2.5994,-2.399,-2.1606,0.0,0.0,-1.6436,-1.5704,-1.6343,0.0,-1.8746,0.0,-2.3458,-2.6099,-2.8703,-3.136,-3.377,0.0,-3.6725,0.0,-3.8615,-4.0175,0.0,-4.1172,-4.2811,-4.3955,-4.426,-4.4289,-4.4202,-4.3974,-4.403,-4.406,-4.4035,-4.4374,-4.4739,-4.5115,-4.5262,-4.5419,-4.5663,-4.7336,-4.8105,-4.8202,-4.9933,-5.0702,-5.0702,-5.0758,-5.0813,-5.0889,-5.0947,-5.1023,-5.1095,-5.1159,-5.1195,-5.1225,-5.1342,-5.1386,-5.1405,-5.1405,-5.1406,-5.1367,-5.1191,-5.0098,-4.8867,-4.8672,-4.75,-4.6308,-4.6308,-4.6308,-4.6308,-4.6308,-4.6308,-4.6308,-4.6308,-4.6308,-4.5781,-4.4043,-4.3691,-4.3164,-4.1484,-4.1191,-4.1191,-4.1191,-4.1144,-4.1033,-4.0829,-4.0807,-4.0157,-3.846,-3.8277,-3.7661,-3.6161,-3.6045,-3.6045,-3.6045,-3.5872,-3.5757,-3.5757,-3.5603,-3.5493,-3.5493,-3.5493,-3.5493,-3.5493,-3.5493,-3.5493,-3.5493,-3.5493,-3.5603,-2.6968,-2.7622,-2.8149,-2.6792,-2.5877,-2.4632,-2.2297,0.0,0.0,-1.6123,-1.5174,-1.4649,-1.4717,-1.5889,-1.7232,0.0,0.0,-2.3459,0.0,-2.8791,-3.1678,-3.4734,0.0,0.0,-3.856,-4.0175,-4.1111,-4.1111,-4.2632,-4.373,-4.4192,-4.4091,-4.4005,-4.3929,-4.3929,-4.3974,-4.4091,-4.4486,-4.4846,-4.5192,-4.5321,-4.5457,-4.5663,-4.7336,-4.8105,-4.8202,-4.9933,-5.0702,-5.0702,-5.0702,-5.0756,-5.0822,-5.0871,-5.0952,-5.1023,-5.1081,-5.1152,-5.1206,-5.1284,-5.134,-5.1398,-5.1398,-5.1398,-5.1269,-5.0527,-4.9648,-4.873,-4.7949,-4.7031,-4.6308,-4.6308,-4.6308,-4.6308,-4.6308,-4.6308,-4.6308,-4.6308,-4.6308,-4.5781,-4.4043,-4.3691,-4.3164,-4.1484,-4.1191,-4.1191,-4.1191,-4.1144,-4.1033,-4.0829,-4.0807,-4.037,-3.9307,-3.9181,-3.8796,-3.7853,-3.7777,-3.7777,-3.7777,-3.7026,-3.6603,-3.6603,-3.5892,-3.5493,-3.5493,-3.5493,-3.5493,-3.5493,-3.5493,-3.5493,-3.5493,-3.5493,-3.5892,-2.5516,-2.5952,-2.613,-2.5515,-2.4471,-2.3195,-2.1713,0.0,-1.6847,-1.5815,-1.4648,-1.4107,-1.5003,-1.5629,-1.6642,0.0,-2.0653,-2.3003,-2.559,-2.8349,-3.11,-3.3872,-3.499,0.0,0.0,0.0,-4.0983,-4.2433,-4.313,-4.3582,-4.3763,-4.3749,-4.3682,-4.3667,-4.3786,-4.391,-4.4053,-4.4393,-4.4783,-4.5135,-4.5282,-4.5438,-4.5624,-4.6836,-4.7644,-4.8163,-4.9394,-5.0221,-5.0683,-5.0702,-5.0721,-5.0739,-5.0776,-5.0812,-5.0827,-5.0887,-5.0971,-5.1015,-5.1092,-5.1162,-5.123,-5.123,-5.0858,-5.0394,-5.0203,-4.9531,-4.8672,-4.7832,-4.6973,-4.6308,-4.6308,-4.6308,-4.6308,-4.6308,-4.6308,-4.6308,-4.6308,-4.6308,-4.5781,-4.4043,-4.3691,-4.3164,-4.1484,-4.1191,-4.1191,-4.1191,-4.1144,-4.1033,-4.0829,-4.0807,-4.0602,-4.0077,-3.9585,-3.895,-3.8065,-3.8007,-3.8007,-3.8007,-3.718,-3.6699,-3.6699,-3.593,-3.5493,-3.5493,-3.5493,-3.5493,-3.5493,-3.5493,-3.5493,-3.5512,-3.6007,-3.6392,-2.4098,-2.4569,-2.4663,-2.4193,-2.3283,-2.2165,0.0,-1.8568,-1.6495,-1.5747,-1.4429,-1.3786,-1.5037,-1.5443,-1.6248,0.0,-2.0222,-2.2306,-2.4462,-2.7314,-3.005,0.0,0.0,-3.5312,0.0,-3.9019,-4.1056,-4.3002,-4.3369,-4.3497,-4.3497,-4.3566,-4.36,-4.36,-4.38,-4.3999,-4.4165,-4.4511,-4.4843,-4.5159,-4.5302,-4.5438,-4.5624,-4.6509,-4.7221,-4.7798,-4.8644,-4.9356,-4.9933,-4.9933,-4.9933,-4.9952,-5.0202,-5.0317,-5.0356,-5.0662,-5.0813,-5.0868,-5.0947,-5.1009,-5.1081,-5.1081,-5.0474,-4.9753,-4.9666,-4.9046,-4.8221,-4.7402,-4.6758,-4.6308,-4.6308,-4.6308,-4.6308,-4.6308,-4.6308,-4.6308,-4.6308,-4.6308,-4.5781,-4.4043,-4.3691,-4.3164,-4.1484,-4.1191,-4.1191,-4.1191,-4.1144,-4.1033,-4.0829,-4.0807,-4.0718,-4.0519,-3.9988,-3.9411,-3.8796,-3.8738,-3.8738,-3.8738,-3.795,-3.7353,-3.7103,-3.6295,-3.5738,-3.5493,-3.5493,-3.5493,-3.5493,-3.5493,-3.5622,-3.5872,-3.6449,-3.6988,-2.2649,-2.3551,-2.4167,-2.2699,-2.231,-2.1718,-1.9435,-1.7783,-1.6495,-1.5747,-1.4429,-1.3633,-1.4359,-1.5122,-1.5889,-1.6795,-1.8957,-2.0894,-2.1998,-2.5123,-2.8003,0.0,0.0,-3.4468,-3.6156,-3.9221,-4.1442,-4.2249,-4.3039,-4.3497,-4.3497,-4.3686,-4.3804,-4.3804,-4.4048,-4.4289,-4.4493,-4.4881,-4.5154,-4.5302,-4.5438,-4.5531,-4.5624,-4.6509,-4.6913,-4.6971,-4.7759,-4.8125,-4.8125,-4.8125,-4.8125,-4.8221,-4.9086,-4.9413,-4.951,-5.0374,-5.0736,-5.0803,-5.089,-5.0932,-5.1004,-5.1004,-5.0403,-4.9556,-4.8763,-4.8,-4.7247,-4.6444,-4.6269,-4.6308,-4.6308,-4.6308,-4.6308,-4.6308,-4.6308,-4.6308,-4.6308,-4.6308,-4.5781,-4.4043,-4.3691,-4.3164,-4.1484,-4.1191,-4.1191,-4.1191,-4.1144,-4.1033,-4.0829,-4.0807,-4.0718,-4.0519,-4.0489,-4.0469,-4.0469,-4.0469,-4.0469,-4.0469,-3.9719,-3.8892,-3.8027,-3.7161,-3.6315,-3.5526,-3.5493,-3.5493,-3.5493,-3.5493,-3.5911,-3.6699,-3.6699,-3.7623,-2.0704,-2.1189,-2.1329,-2.0829,-2.0365,-1.9655,-1.8437,-1.7016,-1.5731,-1.5003,-1.4073,-1.3786,-1.502,-1.5443,-1.6041,-1.742,-1.928,0.0,0.0,0.0,0.0,-3.0615,-3.3579,-3.6156,0.0,0.0,-4.1662,-4.302,-4.3351,-4.3497,-4.3497,-4.3686,-4.3832,-4.3931,-4.4242,-4.4572,-4.4896,-4.5115,-4.5321,-4.5513,-4.555,-4.5586,-4.5605,-4.5893,-4.6336,-4.6913,-4.7182,-4.7586,-4.8105,-4.8105,-4.8105,-4.8125,-4.8394,-4.8509,-4.8625,-4.949,-4.9817,-4.9931,-5.0546,-5.0776,-5.0793,-5.0793,-4.9809,-4.8571,-4.8361,-4.7889,-4.7236,-4.642,-4.6217,-4.6237,-4.6237,-4.6262,-4.6307,-4.6308,-4.6308,-4.6308,-4.6308,-4.582,-4.5078,-4.3926,-4.3223,-4.2461,-4.1387,-4.1191,-4.1191,-4.1191,-4.1144,-4.1033,-4.0829,-4.0807,-4.0718,-4.0519,-4.0489,-4.0489,-4.0489,-4.0489,-4.0489,-4.0489,-3.9738,-3.9181,-3.8892,-3.8046,-3.7199,-3.6353,-3.6911,-3.693,-3.6334,-3.693,-3.7642,-3.8469,-3.8469,-3.9065,0.0,-1.9019,-1.9089,-1.8826,-1.8403,-1.7862,-1.7134,-1.6052,-1.5054,-1.4579,-1.3904,-1.3853,-1.5325,-1.5595,-1.6126,-1.7744,-1.9435,-2.1109,0.0,0.0,0.0,-3.1861,0.0,0.0,0.0,-4.0175,-4.1644,-4.2947,-4.3314,-4.3497,-4.3497,-4.3686,-4.3846,-4.3986,-4.4355,-4.4764,-4.5135,-4.5262,-4.5419,-4.5586,-4.5586,-4.5586,-4.5586,-4.5586,-4.5893,-4.6413,-4.6413,-4.6682,0.0,-4.7163,-4.7163,-4.7182,-4.7528,-4.7663,-4.7759,-4.8606,-4.9125,-4.9471,-5.001,-5.0414,-5.0644,-5.0317,-4.9047,-4.7603,-4.7339,-4.7062,-4.6737,-4.6227,-4.6086,-4.6086,-4.6086,-4.6162,-4.6214,-4.6223,-4.6249,-4.6172,-4.5879,-4.5371,-4.4648,-4.3437,-4.2773,-4.2148,-4.1348,-4.1191,-4.1191,-4.1191,-4.1144,-4.1033,-4.0829,-4.0807,-4.0718,-4.0519,-4.0489,-4.0489,-4.0489,-4.0489,-4.0489,-4.0489,-4.0027,-3.9623,-3.9296,-3.8777,-3.8084,-3.7219,-3.7719,-3.7738,-3.7199,-3.8065,-3.8757,-3.9296,-3.9604,-4.0023,0.0,-1.7117,-1.754,-1.6817,-1.6665,-1.6495,-1.5697,-1.5003,0.0,-1.4427,-1.387,-1.3853,-1.5325,-1.5595,-1.6143,-1.7812,-1.9487,-2.1004,0.0,-2.538,0.0,0.0,-3.5349,0.0,-3.8634,-4.0194,-4.1479,-4.2323,-4.3075,-4.3497,-4.3497,-4.3686,-4.3846,-4.3986,-4.4439,-4.4846,-4.5192,-4.5321,-4.5457,-4.5586,-4.5586,-4.5586,-4.5586,-4.5586,-4.5586,-4.5586,-4.5586,-4.5586,-4.5586,-4.5586,-4.5586,-4.5682,-4.649,-4.6817,-4.6913,-4.7721,-4.8529,-4.9221,-4.9279,-4.9837,-5.0356,-4.949,-4.8162,-4.6752,-4.5943,-4.5789,-4.5879,-4.5898,-4.5905,-4.5905,-4.5905,-4.5997,-4.6088,-4.6104,-4.6143,-4.5996,-4.5254,-4.5,-4.4433,-4.2812,-4.2402,-4.207,-4.1328,-4.1191,-4.1191,-4.1191,-4.1144,-4.1033,-4.0829,-4.0807,-4.0718,-4.0519,-4.0489,-4.0489,-4.0489,-4.0489,-4.0469,-4.0412,-4.0469,-4.0142,-3.9335,-3.9354,-3.8969,-3.8104,-3.8084,-3.8123,-3.818,-3.8988,-3.9392,-3.9392,-4.0142,-4.0539,-1.4766,0.0,-1.6762,-1.6035,-1.6292,-1.636,0.0,-1.4613,-1.4344,-1.3768,0.0,-1.3853,-1.5325,-1.5595,-1.6333,-1.8545,-2.0408,-2.2154,-2.385,0.0,0.0,-3.444,-3.6193,-3.7845,-3.946,-4.0524,-4.1699,-4.3112,-4.3387,-4.3497,-4.3497,-4.36,-4.3716,-4.3942,-4.4181,-4.4565,-4.5115,-4.5262,-4.5419,-4.5586,-4.5586,-4.5586,-4.5586,-4.5586,-4.5586,-4.5586,-4.5586,-4.5586,-4.5586,-4.5586,-4.5586,-4.5605,-4.5817,-4.5913,-4.6009,-4.6874,-4.7317,-4.7586,-4.8202,-4.8548,-4.8586,-4.7759,-4.7221,-4.6738,-4.5888,-4.5712,-4.5822,-4.5893,-4.5905,-4.5905,-4.5905,-4.5966,-4.6046,-4.6096,-4.6147,-4.6169,-4.6015,-4.4941,-4.3887,-4.3476,-4.2363,-4.1426,-4.123,-4.1191,-4.1191,-4.1191,-4.1144,-4.1033,-4.0829,-4.0807,-4.0718,-4.0519,-4.0489,-4.0489,-4.0489,-4.0489,-4.0239,-3.9623,-4.0162,-4.0142,-3.9335,-3.9892,-3.9815,-3.9008,-3.8988,-3.9296,-3.9912,-4.0123,-4.0219,-4.0219,-4.0412,-4.0534,-1.4167,-1.5014,-1.568,-1.5612,-1.5646,-1.5477,-1.4663,0.0,0.0,0.0,0.0,-1.4242,-1.5392,-1.6153,-1.7322,-1.9436,-2.1348,0.0,0.0,0.0,-3.4119,-3.5459,-3.7055,-3.8542,-3.9772,-4.0634,-4.1625,-4.2855,-4.3277,-4.3497,-4.3497,-4.3513,-4.3582,-4.3734,-4.391,-4.4308,-4.4896,-4.5113,-4.5301,-4.5513,-4.555,-4.5568,-4.5586,-4.5586,-4.5586,-4.5586,-4.5586,-4.5586,-4.5586,-4.5586,-4.5586,-4.5586,-4.5586,-4.5586,-4.5663,-4.6124,-4.6567,-4.6971,-4.7413,-4.7548,-4.749,-4.7048,-4.6624,-4.622,-4.574,-4.5635,-4.5731,-4.5757,-4.5757,-4.5757,-4.5757,-4.5835,-4.5933,-4.5983,-4.6118,-4.6117,-4.5781,-4.4648,-4.3574,-4.3183,-4.207,-4.1191,-4.1191,-4.1191,-4.1191,-4.1191,-4.1144,-4.1033,-4.0829,-4.0807,-4.0718,-4.0519,-4.0489,-4.0489,-4.0489,-4.0489,-4.0296,-3.9873,-4.0258,-4.0296,-3.9873,-4.0258,-4.0312,-3.9903,-3.9899,-4.014,-4.0598,-4.0593,-4.0588,-4.0588,-4.0588,-4.0629,-1.4062,-1.4462,-1.4761,-1.5423,-1.5204,-1.4817,-1.468,0.0,0.0,0.0,0.0,0.0,0.0,-1.705,0.0,0.0,0.0,0.0,-3.0119,-3.322,-3.5385,-3.6358,-3.7808,-3.9019,-3.9808,-4.0524,-4.1258,-4.2066,-4.2745,-4.313,-4.313,-4.313,-4.313,-4.313,-4.3317,-4.3646,-4.4195,-4.4724,-4.5132,-4.5342,-4.5438,-4.5513,-4.5586,-4.5586,-4.5586,-4.5586,-4.5586,-4.5586,-4.5586,-4.5586,-4.5586,-4.5586,-4.5586,-4.5586,-4.5586,-4.5586,-4.6067,-4.6701,-4.6701,-4.6701,-4.6701,-4.6701,-4.6201,-4.5586,-4.5586,-4.5586,-4.5586,-4.5586,-4.5586,-4.5586,-4.5586,-4.57,-4.5819,-4.5886,-4.6056,-4.5996,-4.5331,-4.4512,-4.3633,-4.2773,-4.1933,-4.1348,-4.1211,-4.1191,-4.1191,-4.1191,-4.1146,-4.1037,-4.0849,-4.0809,-4.0742,-4.0564,-4.0519,-4.0539,-4.0519,-4.0523,-4.0504,-4.0489,-4.0489,-4.0489,-4.0489,-4.0489,-4.0539,-4.0603,-4.0598,-4.066,-4.072,-4.072,-4.0713,-4.0713,-4.0713,-4.0761,-1.4425,-1.4948,-1.5163,-1.5439,-1.5944,-1.6208,-1.5561,0.0,0.0,0.0,0.0,0.0,0.0,-1.8166,-1.9515,0.0,0.0,-2.8949,0.0,0.0,-3.5587,-3.711,-3.8138,-3.9019,-3.9808,-4.001,-4.0414,-4.124,-4.1405,-4.1479,-4.1479,-4.1479,-4.1479,-4.1479,-4.1558,-4.1711,-4.188,-4.3688,-4.4776,-4.5159,-4.5263,-4.5419,-4.5586,-4.5586,-4.5586,-4.5586,-4.5586,-4.5586,-4.5586,-4.5586,-4.5586,-4.5586,-4.5586,-4.5586,-4.5586,-4.5586,-4.5682,-4.5797,-4.5797,-4.5797,-4.5797,-4.5797,-4.5701,-4.5586,-4.5586,-4.5586,-4.5586,-4.5586,-4.5586,-4.5586,-4.5586,-4.5703,-4.5824,-4.5873,-4.6013,-4.6117,-4.6093,-4.543,-4.4531,-4.3672,-4.2793,-4.1992,-4.1328,-4.1191,-4.1191,-4.1191,-4.115,-4.1046,-4.0898,-4.0885,-4.082,-4.0681,-4.0681,-4.064,-4.0593,-4.0583,-4.0573,-4.0504,-4.0489,-4.0489,-4.0489,-4.0489,-4.0534,-4.0607,-4.0665,-4.0718,-4.0783,-4.0778,-4.0771,-4.0771,-4.0771,-4.0822,-1.3876,-1.4611,-1.5184,-1.5773,-1.6315,-1.6733,-1.6779,0.0,0.0,0.0,0.0,0.0,0.0,0.0,-2.1797,-2.5049,0.0,-3.112,-3.346,-3.4908,-3.6156,0.0,-3.8212,-3.8854,-3.9221,-3.9643,-4.0047,-4.0414,-4.0855,-4.1111,-4.1111,-4.1111,-4.1111,-4.1111,-4.1126,-4.119,-4.1248,-4.2366,-4.3401,-4.4345,-4.4512,-4.494,-4.5586,-4.5586,-4.5586,-4.5586,-4.5586,-4.5586,-4.5586,-4.5586,-4.5586,-4.5586,-4.5586,-4.5586,-4.5586,-4.5586,-4.5568,-4.5531,-4.5495,-4.5495,-4.5495,-4.5495,-4.5513,-4.555,-4.5586,-4.5586,-4.5586,-4.5586,-4.5586,-4.5586,-4.5586,-4.5671,-4.5765,-4.5829,-4.5947,-4.606,-4.6175,-4.5565,-4.4883,-4.4473,-4.3691,-4.2988,-4.2617,-4.2558,-4.2558,-4.2558,-4.2128,-4.1769,-4.1676,-4.1247,-4.0897,-4.0776,-4.0738,-4.0732,-4.0651,-4.0665,-4.0617,-4.0504,-4.0489,-4.0523,-4.0539,-4.0549,-4.0602,-4.0706,-4.0765,-4.0842,-4.0915,-4.0897,-4.0913,-4.0913,-4.0913,-4.0932,-1.3225,-1.3982,-1.4798,-1.5893,0.0,-1.7113,-1.785,0.0,0.0,0.0,0.0,0.0,0.0,-2.2146,0.0,-2.8003,-3.0438,-3.2466,-3.4156,-3.5495,-3.667,-3.7643,-3.8322,-3.8707,-3.8707,-3.9258,-3.9625,-3.9625,-4.0194,-4.0543,-4.0543,-4.0543,-4.0543,-4.0543,-4.0543,-4.0575,-4.0575,-4.0926,-4.1852,-4.3335,-4.355,-4.4135,-4.5009,-4.5009,-4.5009,-4.5028,-4.5201,-4.5297,-4.5297,-4.5509,-4.5586,-4.5586,-4.5586,-4.5586,-4.5586,-4.5586,-4.555,-4.5457,-4.5362,-4.5341,-4.5341,-4.5322,-4.54,-4.5476,-4.5568,-4.5586,-4.5586,-4.5586,-4.5586,-4.5586,-4.5586,-4.5654,-4.5703,-4.5761,-4.5887,-4.6007,-4.6084,-4.567,-4.5234,-4.5039,-4.4453,-4.3945,-4.373,-4.3691,-4.3691,-4.3691,-4.3125,-4.2694,-4.2624,-4.1876,-4.1283,-4.1149,-4.0976,-4.081,-4.0739,-4.072,-4.0654,-4.0564,-4.0519,-4.0539,-4.0603,-4.0617,-4.07,-4.0815,-4.0885,-4.0951,-4.1021,-4.1042,-4.1058,-4.1058,-4.1058,-4.1078,-1.2818,-1.3219,-1.3791,-1.536,0.0,0.0,-1.8538,-1.8745,0.0,0.0,0.0,0.0,0.0,-2.4778,-2.7656,-2.9774,-3.1136,-3.2911,-3.5713,-3.6211,-3.6872,-3.8432,-3.867,-3.8707,-3.8707,-3.8762,-3.8799,-3.8799,-3.8836,-3.8872,-3.8872,-3.8872,-3.8872,-3.8872,-3.8946,-3.8988,-3.9047,-3.9378,-4.0459,-4.2227,-4.2484,-4.2833,-4.3278,-4.3278,-4.3278,-4.3316,-4.4066,-4.4393,-4.4451,-4.5259,-4.5586,-4.5586,-4.5586,-4.5586,-4.5586,-4.5586,-4.5513,-4.5381,-4.5201,-4.5156,-4.5194,-4.5137,-4.5201,-4.5342,-4.5531,-4.5586,-4.5586,-4.5586,-4.5586,-4.5586,-4.5586,-4.5657,-4.5706,-4.5708,-4.5822,-4.5944,-4.6063,-4.6119,-4.5891,-4.5137,-4.4941,-4.4648,-4.3848,-4.3691,-4.3691,-4.3691,-4.3652,-4.3594,-4.3594,-4.2848,-4.2265,-4.2203,-4.1462,-4.0935,-4.081,-4.0742,-4.0713,-4.0681,-4.0579,-4.0534,-4.0607,-4.0665,-4.0761,-4.0889,-4.0968,-4.1042,-4.1092,-4.1163,-4.1191,-4.1191,-4.1191,-4.1191,-1.2273,-1.2755,-1.3457,-1.4656,0.0,0.0,0.0,0.0,0.0,0.0,0.0,0.0,0.0,0.0,-2.8491,-3.0039,-3.1208,-3.2737,-3.5164,-3.5954,-3.6707,-3.7808,-3.8395,-3.8707,-3.8707,-3.8707,-3.8707,-3.8707,-3.8707,-3.8707,-3.8707,-3.8707,-3.8707,-3.8707,-3.881,-3.8902,-3.9027,-3.9357,-3.9953,-4.0851,-4.1547,-4.2317,-4.3104,-4.3104,-4.3104,-4.3124,-4.3412,-4.3835,-4.4335,-4.4662,-4.5105,-4.5586,-4.5586,-4.5586,-4.5586,-4.5586,-4.5514,-4.536,-4.5052,-4.5,-4.4991,-4.4887,-4.5004,-4.5197,-4.54,-4.5513,-4.555,-4.5586,-4.5586,-4.5586,-4.5586,-4.5622,-4.564,-4.5635,-4.5712,-4.5786,-4.5899,-4.6008,-4.5994,-4.5743,-4.572,-4.5644,-4.5371,-4.5312,-4.5312,-4.5312,-4.4863,-4.4512,-4.4512,-4.3749,-4.3201,-4.3177,-4.2343,-4.1793,-4.1738,-4.1136,-4.0752,-4.0752,-4.0694,-4.0655,-4.0723,-4.079,-4.087,-4.0952,-4.1022,-4.1073,-4.1095,-4.1164,-4.1191,-4.1211,-4.1719,-4.1953,-1.2229,-1.278,-1.3543,0.0,0.0,0.0,0.0,0.0,0.0,0.0,0.0,0.0,0.0,0.0,0.0,0.0,-3.1392,-3.2918,-3.4733,-3.5514,-3.6193,-3.7,-3.7606,-3.8046,-3.8303,-3.8322,-3.8432,-3.8689,-3.8707,-3.8707,-3.8707,-3.8707,-3.8707,-3.8707,-3.8822,-3.897,-3.9136,-3.9464,-3.9788,-4.012,-4.0807,-4.1548,-4.2277,-4.2277,-4.2277,-4.2297,-4.2566,-4.3008,-4.3547,-4.4085,-4.4797,-4.5586,-4.5586,-4.5586,-4.5586,-4.5586,-4.5495,-4.5298,-4.4938,-4.4789,-4.4745,-4.4546,-4.4669,-4.4953,-4.5241,-4.5381,-4.5457,-4.5568,-4.5586,-4.5586,-4.5586,-4.5586,-4.5586,-4.5586,-4.5654,-4.5703,-4.5758,-4.5867,-4.5998,-4.6078,-4.6156,-4.6229,-4.6289,-4.6308,-4.6308,-4.6308,-4.5781,-4.541,-4.541,-4.4648,-4.4004,-4.373,-4.3121,-4.275,-4.2733,-4.2088,-4.1568,-4.1286,-4.1228,-4.1101,-4.0846,-4.0892,-4.0962,-4.103,-4.1098,-4.113,-4.1121,-4.1171,-4.1328,-4.1582,-4.2148,-4.2558,-1.2801,-1.3286,-1.3985,0.0,0.0,0.0,0.0,0.0,0.0,0.0,0.0,-2.5845,-2.6573,0.0,0.0,-3.0216,-3.1857,-3.3521,-3.4806,-3.499,-3.5302,-3.6174,-3.6285,-3.6597,-3.7404,-3.7477,-3.7808,-3.8615,-3.8689,-3.8689,-3.8689,-3.8689,-3.8689,-3.8689,-3.8822,-3.9007,-3.9183,-3.9526,-3.9832,-4.0101,-4.0307,-4.0427,-4.0489,-4.0489,-4.0489,-4.0546,-4.1412,-4.1797,-4.1931,-4.3605,-4.4797,-4.5586,-4.5586,-4.5586,-4.5586,-4.5605,-4.5458,-4.5235,-4.4751,-4.4557,-4.444,-4.4095,-4.4204,-4.4572,-4.4966,-4.5201,-4.5342,-4.5531,-4.5586,-4.5586,-4.5586,-4.5586,-4.5586,-4.5586,-4.564,-4.5706,-4.5708,-4.5802,-4.5953,-4.6074,-4.6147,-4.6221,-4.6289,-4.6308,-4.6308,-4.6308,-4.6308,-4.6308,-4.6308,-4.5547,-4.4687,-4.3828,-4.3711,-4.371,-4.3706,-4.3642,-4.3227,-4.2364,-4.2305,-4.1889,-4.0931,-4.0959,-4.1034,-4.1102,-4.1166,-4.1211,-4.1211,-4.1211,-4.1621,-4.2402,-4.2422,-4.2891,-1.2801,-1.3286,0.0,0.0,0.0,0.0,0.0,0.0,0.0,0.0,0.0,-2.7198,-2.7452,0.0,0.0,-3.0216,-3.1392,-3.2701,-3.3991,-3.4651,-3.5082,-3.5367,-3.5936,-3.6376,-3.6615,-3.6652,-3.6743,-3.6982,-3.7019,-3.7019,-3.7019,-3.7551,-3.7845,-3.7845,-3.8527,-3.897,-3.9136,-3.9458,-3.9788,-4.0101,-4.0252,-4.0394,-4.0489,-4.0489,-4.0489,-4.0508,-4.0758,-4.1239,-4.1931,-4.3605,-4.4453,-4.4744,-4.5246,-4.5477,-4.5458,-4.5419,-4.5235,-4.4967,-4.4591,-4.4365,-4.417,-4.3986,-4.4072,-4.4346,-4.4701,-4.4981,-4.5197,-4.54,-4.5495,-4.5531,-4.5586,-4.5586,-4.5586,-4.5586,-4.5622,-4.562,-4.5635,-4.5696,-4.5791,-4.5877,-4.5988,-4.6079,-4.615,-4.6208,-4.625,-4.6289,-4.6308,-4.6308,-4.6308,-4.6074,-4.582,-4.5566,-4.498,-4.4609,-4.4609,-4.4021,-4.3559,-4.3305,-4.3285,-4.2602,-4.1103,-4.1063,-4.1072,-4.1106,-4.1712,-4.2031,-4.2051,-4.2656,-4.3086,-4.332,-4.3945,-4.4375,-1.3107,-1.4064,0.0,0.0,0.0,0.0,0.0,0.0,0.0,0.0,0.0,-2.7368,-2.7368,-2.851,0.0,-3.0092,-3.1355,-3.2613,-3.3597,-3.4174,-3.4486,-3.4513,-3.5,-3.5422,-3.5752,-3.5789,-3.5936,-3.6266,-3.6303,-3.6303,-3.6303,-3.6743,-3.7165,-3.7477,-3.8055,-3.8598,-3.9054,-3.9357,-3.9651,-3.9981,-4.0119,-4.0252,-4.0392,-4.0457,-4.0489,-4.0489,-4.0489,-4.0989,-4.1912,-4.3258,-4.3993,-4.4306,-4.4652,-4.4764,-4.4662,-4.4192,-4.39,-4.37,-4.338,-4.3173,-4.3002,-4.282,-4.2915,-4.3103,-4.3388,-4.3662,-4.3942,-4.4208,-4.4614,-4.4959,-4.5068,-4.5336,-4.5586,-4.5586,-4.5586,-4.5586,-4.5586,-4.5654,-4.5703,-4.5758,-4.5867,-4.5988,-4.6072,-4.617,-4.6207,-4.6246,-4.6288,-4.6308,-4.6308,-4.6308,-4.6308,-4.6308,-4.582,-4.5527,-4.5527,-4.5039,-4.4588,-4.424,-4.4218,-4.3593,-4.2187,-4.2134,-4.2139,-4.214,-4.2655,-4.293,-4.293,-4.3437,-4.3887,-4.4238,-4.4766,-4.5195,-1.3575,0.0,0.0,0.0,0.0,0.0,-2.4326,0.0,-2.5698,-2.6607,0.0,-2.6793,-2.6793,-2.8271,-2.9592,-2.9902,-3.154,-3.297,-3.3502,-3.3615,-3.3698,-3.3807,-3.3807,-3.41,-3.4807,-3.488,-3.5238,-3.6009,-3.6064,-3.6064,-3.6064,-3.6138,-3.6523,-3.7239,-3.7492,-3.7985,-3.8849,-3.9127,-3.9408,-3.9739,-3.987,-4.0019,-4.0158,-4.0372,-4.0473,-4.0473,-4.0473,-4.0934,-4.1706,-4.259,-4.3345,-4.3925,-4.3786,-4.3659,-4.343,-4.2427,-4.2033,-4.1942,-4.1661,-4.1508,-4.1336,-4.1158,-4.1172,-4.1323,-4.1518,-4.1817,-4.2165,-4.2495,-4.331,-4.4116,-4.4263,-4.4951,-4.5586,-4.5586,-4.5586,-4.5586,-4.5586,-4.564,-4.5706,-4.5692,-4.5789,-4.591,-4.6047,-4.6138,-4.6171,-4.6195,-4.6241,-4.6289,-4.6289,-4.6308,-4.6308,-4.6308,-4.6308,-4.6308,-4.6308,-4.6308,-4.5957,-4.5176,-4.5117,-4.4766,-4.3965,-4.3789,-4.3691,-4.3691,-4.3789,-4.3828,-4.3828,-4.3906,-4.4336,-4.5117,-4.5117,-4.5547,0.0,-1.4693,0.0,0.0,0.0,-2.2923,-2.4414,-2.5349,-2.6208,-2.7314,-2.7571,-2.7571,-2.7571,-2.9002,-3.009,-2.9726,-3.1247,-3.2666,-3.3214,-3.3426,-3.3605,-3.378,-3.3807,-3.3862,-3.4045,-3.4064,-3.4137,-3.4321,-3.4339,-3.4339,-3.4339,-3.4945,-3.5367,-3.555,-3.6846,-3.7629,-3.7824,-3.8607,-3.9082,-3.9231,-3.9433,-3.9604,-3.9754,-4.0101,-4.0251,-4.0251,-4.0251,-4.0366,-4.0614,-4.1475,-4.1838,-4.1905,-4.2424,-4.2532,-4.2316,-4.1972,-4.18,-4.1651,-4.1497,-4.1366,-4.1235,-4.1126,-4.1158,-4.1248,-4.1396,-4.167,-4.2013,-4.2344,-4.3209,-4.4058,-4.4263,-4.4951,-4.5586,-4.5586,-4.5586,-4.5586,-4.5586,-4.5603,-4.562,-4.5618,-4.57,-4.5761,-4.5853,-4.5917,-4.6008,-4.6107,-4.6138,-4.6163,-4.6211,-4.6269,-4.6308,-4.6308,-4.6308,-4.6308,-4.6308,-4.6308,-4.6211,-4.6035,-4.6016,-4.5937,-4.5742,-4.4433,-4.3691,-4.3691,-4.4375,-4.4726,-4.4726,-4.541,-4.584,-4.6016,-4.6016,-4.6113,0.0,0.0,0.0,-1.9028,0.0,0.0,-2.4197,-2.5054,-2.5819,-2.6438,-2.6845,-2.7075,-2.711,-2.8554,-2.967,-2.9541,-3.1046,-3.2368,-3.2876,-3.3129,-3.3357,-3.3577,-3.3605,-3.3605,-3.3605,-3.3633,-3.3671,-3.3698,-3.3726,-3.378,-3.3807,-3.4211,-3.4614,-3.4972,-3.5862,-3.6505,-3.6909,-3.7429,-3.7785,-3.7902,-3.8044,-3.8378,-3.8906,-3.9583,-3.9901,-3.9901,-3.9901,-3.9901,-3.9977,-4.0853,-4.1108,-4.0986,-4.1274,-4.129,-4.1082,-4.0513,-4.0285,-4.0196,-4.0117,-4.0075,-4.0,-3.9955,-3.9968,-4.0031,-4.0105,-4.0306,-4.0622,-4.0967,-4.2167,-4.3386,-4.3669,-4.4662,-4.5586,-4.5586,-4.5586,-4.5586,-4.5586,-4.5586,-4.5586,-4.5586,-4.5654,-4.5703,-4.5754,-4.5827,-4.5933,-4.6027,-4.6084,-4.6119,-4.6182,-4.6223,-4.6243,-4.6243,-4.6243,-4.6264,-4.6307,-4.6308,-4.6308,-4.6308,-4.6308,-4.6308,-4.6308,-4.543,-4.4941,-4.4941,-4.5391,-4.5625,-4.5625,-4.6074,-4.6308,-4.6308,-4.6308,-4.6308,0.0,0.0,-1.7267,-2.0454,-2.1853,0.0,-2.384,-2.4515,-2.4962,-2.5089,-2.5652,-2.6208,-2.6314,-2.7765,-2.9011,-2.928,-3.0783,-3.2074,-3.2486,-3.2734,-3.2925,-3.3208,-3.3256,-3.3256,-3.3256,-3.3345,-3.3415,-3.353,-3.3615,-3.3698,-3.3807,-3.3807,-3.4119,-3.4752,-3.4917,-3.5367,-3.6064,-3.6268,-3.6454,-3.6545,-3.6589,-3.7047,-3.7821,-3.8664,-3.9218,-3.9548,-3.9548,-3.9548,-3.9585,-4.0325,-4.0534,-4.0401,-4.0242,-4.0067,-3.9856,-3.9019,-3.8707,-3.8707,-3.8707,-3.8707,-3.8707,-3.8707,-3.8707,-3.8707,-3.8707,-3.8881,-3.9165,-3.9476,-4.0912,-4.2444,-4.2942,-4.4203,-4.5413,-4.5547,-4.5586,-4.5586,-4.5586,-4.5586,-4.5586,-4.5586,-4.564,-4.5671,-4.5677,-4.578,-4.5861,-4.5941,-4.6007,-4.6063,-4.6147,-4.6153,-4.6153,-4.6153,-4.6153,-4.6186,-4.6267,-4.6264,-4.6269,-4.6289,-4.6289,-4.6308,-4.6308,-4.6308,-4.6308,-4.6308,-4.6308,-4.6308,-4.6308,-4.6308,-4.6308,-4.6308,-4.6308,-4.6308,0.0,0.0,-1.7759,0.0,-2.0941,-2.1869,0.0,0.0,-2.3983,0.0,-2.5176,-2.5689,-2.6013,-2.7441,-2.8665,-2.9011,-3.0489,-3.1654,-3.1897,-3.2109,-3.2316,-3.2601,-3.2634,-3.2634,-3.2634,-3.2795,-3.3001,-3.3243,-3.3415,-3.3605,-3.3807,-3.3807,-3.3844,-3.3972,-3.4651,-3.5045,-3.5155,-3.5917,-3.6313,-3.6342,-3.6342,-3.6425,-3.6546,-3.6684,-3.771,-3.9331,-3.9331,-3.9331,-3.935,-3.9488,-3.9421,-3.9305,-3.9222,-3.9098,-3.8951,-3.8756,-3.8707,-3.8707,-3.8707,-3.8707,-3.8707,-3.8707,-3.8707,-3.8707,-3.8707,-3.887,-3.9073,-3.9408,-4.0377,-4.1537,-4.2642,-4.3691,-4.4648,-4.5432,-4.5586,-4.5586,-4.5586,-4.5586,-4.5586,-4.5586,-4.5622,-4.5603,-4.562,-4.5637,-4.5651,-4.5727,-4.5804,-4.5858,-4.5936,-4.5936,-4.5936,-4.5936,-4.5936,-4.5998,-4.6127,-4.6138,-4.6141,-4.6211,-4.6269,-4.6308,-4.6308,-4.6308,-4.6308,-4.6308,-4.6308,-4.6308,-4.6308,-4.6308,-4.6308,-4.6308,-4.6308,-4.6308,-1.1654,-1.4528,-1.7104,0.0,-2.0167,-2.1235,-2.2308,0.0,-2.327,-2.3899,-2.4477,-2.502,-2.5721,-2.6941,-2.8102,-2.887,-2.9983,-3.1005,-3.1588,-3.1841,-3.2003,-3.2196,-3.2231,-3.2231,-3.2231,-3.2419,-3.2619,-3.2908,-3.3129,-3.3386,-3.3671,-3.3726,-3.3753,-3.3807,-3.4137,-3.4339,-3.4339,-3.4706,-3.4908,-3.4908,-3.5367,-3.5587,-3.5605,-3.6083,-3.7024,-3.8294,-3.8294,-3.8553,-3.895,-3.895,-3.8921,-3.8881,-3.8851,-3.8792,-3.875,-3.8707,-3.8707,-3.8707,-3.8707,-3.8707,-3.8707,-3.8707,-3.8707,-3.8707,-3.8707,-3.8792,-3.8989,-3.9189,-4.0096,-4.1098,-4.1819,-4.3082,-4.4288,-4.4761,-4.524,-4.5586,-4.5586,-4.5586,-4.5586,-4.5586,-4.5586,-4.5586,-4.5586,-4.5586,-4.562,-4.5687,-4.5738,-4.5761,-4.5835,-4.5873,-4.5917,-4.5949,-4.5953,-4.5997,-4.6093,-4.613,-4.6172,-4.62,-4.6221,-4.6241,-4.6241,-4.6241,-4.6241,-4.6241,-4.6288,-4.6308,-4.6308,-4.6308,-4.6308,-4.6308,-4.6308,-4.6308,-1.1818,-1.4197,-1.6146,-1.7711,-1.9105,-2.0251,0.0,0.0,-2.2383,0.0,-2.3709,-2.4331,-2.5313,-2.6438,-2.7557,-2.8513,-2.9539,-3.0411,-3.1124,-3.1476,-3.164,-3.1545,-3.1683,-3.1718,-3.1545,-3.1881,-3.2197,-3.2453,-3.2766,-3.3099,-3.3473,-3.3587,-3.3698,-3.3807,-3.3807,-3.3807,-3.3807,-3.3807,-3.3807,-3.3807,-3.4412,-3.4706,-3.4715,-3.5367,-3.6211,-3.7202,-3.7404,-3.7955,-3.8707,-3.8707,-3.8707,-3.8707,-3.8707,-3.8707,-3.8707,-3.8707,-3.8707,-3.8707,-3.8707,-3.8707,-3.8707,-3.8707,-3.8707,-3.8707,-3.8707,-3.878,-3.8921,-3.9027,-3.9724,-4.0608,-4.1366,-4.2619,-4.3867,-4.4438,-4.5087,-4.5586,-4.5605,-4.5586,-4.5586,-4.5586,-4.5586,-4.5586,-4.5586,-4.5586,-4.5622,-4.5676,-4.5665,-4.5692,-4.5742,-4.58,-4.5854,-4.5912,-4.5944,-4.5991,-4.6066,-4.6095,-4.6134,-4.6156,-4.6137,-4.6117,-4.6117,-4.6117,-4.6117,-4.6117,-4.6175,-4.6217,-4.6268,-4.6268,-4.6268,-4.6268,-4.6268,-4.6268,-1.1415,-1.3332,-1.5131,-1.6152,-1.7437,0.0,0.0,0.0,-2.101,-2.2458,-2.3016,-2.3603,-2.4753,-2.6079,-2.721,-2.7769,-2.9127,-3.0125,-3.0159,-3.0806,-3.0976,-3.0281,-3.0806,-3.0959,-3.0264,-3.1014,-3.1617,-3.1825,-3.2231,-3.2684,-3.3184,-3.3415,-3.3605,-3.3788,-3.3807,-3.3807,-3.3807,-3.3807,-3.3807,-3.3807,-3.3844,-3.3862,-3.3862,-3.3917,-3.4816,-3.6395,-3.7165,-3.7955,-3.8707,-3.8707,-3.8707,-3.8707,-3.8707,-3.8707,-3.8707,-3.8707,-3.8707,-3.8707,-3.8707,-3.8707,-3.8707,-3.8707,-3.8707,-3.8707,-3.8707,-3.875,-3.8833,-3.896,-3.9202,-3.9813,-4.1765,-4.2465,-4.3134,-4.4921,-4.5438,-4.5513,-4.5586,-4.5586,-4.5586,-4.5586,-4.5586,-4.5586,-4.5586,-4.5586,-4.5586,-4.5603,-4.5603,-4.5603,-4.5603,-4.5603,-4.5654,-4.5715,-4.5767,-4.5866,-4.598,-4.595,-4.5943,-4.5999,-4.5941,-4.591,-4.591,-4.591,-4.591,-4.591,-4.5922,-4.6016,-4.6206,-4.6206,-4.6206,-4.6206,-4.6206,-4.6206,-1.017,-1.1881,0.0,-1.4944,-1.6017,-1.7204,-1.8877,-1.9501,-2.0286,-2.2308,-2.2914,-2.3381,-2.4402,-2.5345,-2.6276,-2.7328,-2.7935,-2.849,-2.8941,-2.9264,-2.9425,-2.9227,-2.945,-2.9779,-3.0091,-3.0442,-3.0953,-3.1623,-3.2056,-3.2486,-3.2965,-3.328,-3.3549,-3.3788,-3.3807,-3.3807,-3.3807,-3.3807,-3.3807,-3.3807,-3.3807,-3.3807,-3.3807,-3.3807,-3.4412,-3.5514,-3.6358,-3.7477,-3.8707,-3.8707,-3.8707,-3.8707,-3.8707,-3.8707,-3.8707,-3.8707,-3.8707,-3.8707,-3.8707,-3.8707,-3.8707,-3.8707,-3.8707,-3.8707,-3.8707,-3.8738,-3.875,-3.8792,-3.929,-3.9993,-4.0809,-4.2027,-4.3436,-4.4975,-4.5438,-4.5568,-4.5586,-4.5586,-4.5586,-4.5586,-4.5586,-4.5586,-4.5586,-4.5586,-4.5586,-4.5586,-4.5586,-4.5586,-4.5586,-4.5586,-4.562,-4.57,-4.5785,-4.5877,-4.5932,-4.6468,-4.6778,-4.6778,-4.7243,-4.7501,-4.7501,-4.7501,-4.7501,-4.7501,-4.7501,-4.7,-4.6007,-4.6007,-4.6007,-4.6007,-4.6007,-4.6007,-0.9695,-1.0986,0.0,0.0,0.0,-1.5806,-1.7311,-1.8252,-1.9338,-2.1154,-2.1844,-2.2491,-2.3651,-2.428,-2.508,-2.6363,-2.6803,-2.7131,-2.7646,-2.7987,-2.8207,-2.816,-2.8457,-2.8858,-2.9276,-2.9624,-3.0054,-3.0697,-3.1078,-3.1477,-3.1961,-3.2319,-3.2754,-3.3385,-3.3403,-3.3532,-3.3807,-3.3807,-3.3807,-3.3807,-3.3807,-3.3807,-3.3807,-3.3807,-3.4247,-3.5027,-3.5624,-3.6798,-3.8322,-3.8597,-3.8658,-3.8609,-3.8627,-3.8596,-3.8564,-3.8533,-3.8533,-3.8564,-3.8596,-3.8609,-3.8658,-3.8707,-3.8707,-3.8707,-3.8707,-3.8707,-3.8762,-3.9038,-3.9571,-4.0221,-4.0911,-4.2435,-4.4014,-4.5001,-4.5381,-4.555,-4.5568,-4.5586,-4.5586,-4.5586,-4.5586,-4.5586,-4.5586,-4.5586,-4.5586,-4.5586,-4.5586,-4.5586,-4.5586,-4.5586,-4.562,-4.57,-4.5815,-4.5988,-4.628,-4.6842,-4.7307,-4.7544,-4.8024,-4.8299,-4.8299,-4.8299,-4.8299,-4.8299,-4.8299,-4.7738,-4.6651,-4.6429,-4.6196,-4.5905,-4.5905,-4.5905,0.0,0.0,0.0,0.0,0.0,0.0,-1.469,0.0,-1.7955,-1.8956,-1.9801,-2.0857,-2.2445,-2.296,-2.359,-2.4923,-2.5758,-2.6262,-2.6262,-2.7042,-2.7476,-2.7076,-2.7848,-2.8256,-2.7822,-2.8501,-2.8958,-2.8975,-2.9298,-2.9708,-3.0185,-3.0498,-3.1292,-3.2533,-3.257,-3.2981,-3.3752,-3.3788,-3.3788,-3.3807,-3.3807,-3.3807,-3.3807,-3.3807,-3.4202,-3.4954,-3.499,-3.5907,-3.7477,-3.8322,-3.859,-3.851,-3.8415,-3.8336,-3.8256,-3.8119,-3.8171,-3.8307,-3.8368,-3.8446,-3.851,-3.8658,-3.8707,-3.8707,-3.8707,-3.8726,-3.8909,-3.968,-3.9982,-4.048,-4.2273,-4.3709,-4.4745,-4.5038,-4.5239,-4.5419,-4.5476,-4.555,-4.5586,-4.5586,-4.5605,-4.5624,-4.5624,-4.5624,-4.5624,-4.5624,-4.5605,-4.5605,-4.5624,-4.5624,-4.5659,-4.5758,-4.5838,-4.6217,-4.7066,-4.7092,-4.7428,-4.8295,-4.8235,-4.8182,-4.8182,-4.8182,-4.8182,-4.8182,-4.8182,-4.8163,-4.8144,-4.7506,-4.6765,-4.5944,-4.5905,-4.5886,-0.9385,0.0,0.0,0.0,0.0,0.0,-1.3853,-1.4757,-1.5882,-1.8106,-1.8835,-1.9584,-2.1126,-2.2005,-2.2682,-2.3275,-2.4321,-2.5058,-2.5058,-2.5441,-2.571,-2.5843,-2.6232,-2.6718,-2.7378,-2.7668,-2.8092,-2.8757,-2.9085,-2.9506,-3.0047,-3.0603,-3.1111,-3.1508,-3.2145,-3.2547,-3.2793,-3.3351,-3.3633,-3.3577,-3.352,-3.3491,-3.3491,-3.3491,-3.3619,-3.3873,-3.4466,-3.4975,-3.5533,-3.7149,-3.8077,-3.8415,-3.8132,-3.7929,-3.7756,-3.7524,-3.756,-3.7739,-3.7964,-3.8168,-3.8387,-3.8627,-3.8707,-3.8707,-3.8707,-3.9111,-3.9606,-3.9827,-4.0758,-4.1948,-4.3195,-4.3844,-4.428,-4.4591,-4.4938,-4.5222,-4.5322,-4.5495,-4.5586,-4.5586,-4.6105,-4.6547,-4.6547,-4.6547,-4.6547,-4.6547,-4.599,-4.5817,-4.6471,-4.6547,-4.6777,-4.7444,-4.7571,-4.7719,-4.7948,-4.8475,-4.8904,-4.9157,-4.9682,-4.9971,-4.9971,-4.9971,-4.9971,-4.9971,-4.9971,-4.9663,-4.9048,-4.7658,-4.6863,-4.6612,-4.5992,-4.5684,-0.9895,-1.0155,-1.0482,-1.0597,0.0,0.0,-1.2856,-1.3653,-1.4668,-1.651,-1.7246,-1.8082,-1.9601,-2.0388,-2.1041,-2.1887,-2.2686,-2.3437,-2.4085,-2.4369,-2.4639,-2.4965,-2.516,-2.5567,-2.6346,-2.6545,-2.6875,-2.7507,-2.787,-2.8322,-2.8973,-2.9465,-2.989,-3.0333,-3.0903,-3.142,-3.1765,-3.2256,-3.2599,-3.281,-3.2643,-3.2714,-3.3037,-3.3037,-3.3037,-3.3055,-3.3503,-3.3912,-3.4357,-3.5792,-3.6852,-3.7597,-3.7665,-3.7524,-3.7303,-3.7038,-3.7094,-3.7266,-3.7596,-3.7862,-3.8104,-3.8368,-3.8501,-3.8533,-3.8564,-3.9195,-3.9942,-4.0304,-4.1552,-4.2944,-4.3557,-4.3828,-4.4042,-4.4289,-4.465,-4.4985,-4.5135,-4.5341,-4.5495,-4.5586,-4.6297,-4.6913,-4.6913,-4.6913,-4.6913,-4.6913,-4.6163,-4.5913,-4.6797,-4.6913,-4.7221,-4.8065,-4.8195,-4.8367,-4.8735,-4.9195,-4.9602,-4.9989,-5.0433,-5.0702,-5.0702,-5.0702,-5.0702,-5.0702,-5.0702,-5.026,-4.9394,-4.8413,-4.7759,-4.7394,-4.6874,-4.6451,-1.0979,-1.1084,-1.1112,-1.0699,-1.1072,0.0,-1.189,-1.2847,-1.3861,-1.457,-1.534,-1.6373,-1.7911,-1.8412,-1.9045,-2.0457,-2.0855,-2.1586,-2.3225,-2.3691,-2.396,-2.4307,-2.4552,-2.4792,-2.5105,-2.5313,-2.5577,-2.5905,-2.6298,-2.6839,-2.7504,-2.7742,-2.8244,-2.9109,-2.9404,-2.9909,-3.0684,-3.0792,-3.1139,-3.1732,-3.1462,-3.1724,-3.2451,-3.2451,-3.2451,-3.2451,-3.2451,-3.2839,-3.3563,-3.4412,-3.5403,-3.647,-3.7074,-3.7094,-3.6781,-3.6574,-3.6597,-3.686,-3.7188,-3.7413,-3.765,-3.7913,-3.8086,-3.8223,-3.8318,-3.9071,-4.0101,-4.1097,-4.2396,-4.3513,-4.3582,-4.3734,-4.3929,-4.4091,-4.4402,-4.4695,-4.4876,-4.5084,-4.5279,-4.5476,-4.6338,-4.7029,-4.7029,-4.7048,-4.7028,-4.7028,-4.622,-4.5951,-4.6913,-4.7028,-4.7375,-4.8298,-4.8394,-4.8702,-4.9471,-4.9529,-4.9875,-5.0644,-5.0702,-5.0702,-5.0702,-5.0702,-5.0702,-5.0702,-5.0702,-5.0317,-4.9529,-4.9452,-4.8952,-4.8105,-4.8105,-4.7682,-1.0754,-1.0945,-1.1169,-1.1263,-1.126,0.0,-1.1605,-1.1873,-1.2317,-1.3319,-1.3831,-1.4572,-1.5975,-1.6859,-1.755,-1.8106,-1.9162,-2.0546,-2.2401,-2.2805,-2.3251,-2.4044,-2.4287,-2.4451,-2.4695,-2.4902,-2.5176,-2.5481,-2.628,-2.6873,-2.7181,-2.7448,-2.7712,-2.8,-2.8845,-2.9323,-2.9443,-3.0154,-3.0777,-3.1308,-3.1109,-3.1393,-3.2092,-3.2092,-3.2092,-3.2092,-3.2092,-3.2179,-3.2423,-3.382,-3.5001,-3.5962,-3.6444,-3.6457,-3.6224,-3.5915,-3.5958,-3.6216,-3.6516,-3.6724,-3.6943,-3.7266,-3.7487,-3.7703,-3.7911,-3.9166,-4.0881,-4.2548,-4.3259,-4.3479,-4.3532,-4.3566,-4.3634,-4.3832,-4.4011,-4.4194,-4.4402,-4.4591,-4.4776,-4.4938,-4.6483,-4.7798,-4.7857,-4.7857,-4.7875,-4.7875,-4.6567,-4.6144,-4.7663,-4.7875,-4.8471,-5.0029,-5.0183,-5.026,-5.0433,-5.0452,-5.051,-5.0683,-5.0702,-5.0702,-5.0702,-5.0702,-5.0702,-5.0702,-5.0702,-5.0606,-5.0433,-4.974,-4.8952,-4.8105,-4.8105,-4.7682,-1.1608,-1.1605,-1.1586,-1.158,-1.1454,0.0,0.0,-1.1896,-1.2209,-1.3035,-1.3369,-1.3831,-1.4895,-1.5522,-1.6049,-1.6605,-1.738,-1.8359,-1.9767,-2.1116,-2.2196,-2.2813,-2.3243,-2.3523,-2.3646,-2.4143,-2.4679,-2.5192,-2.5961,-2.6505,-2.6691,-2.6956,-2.7198,-2.7355,-2.7962,-2.8245,-2.825,-2.8662,-2.9309,-3.0265,-3.0058,-3.0554,-3.16,-3.16,-3.16,-3.16,-3.16,-3.16,-3.1685,-3.2818,-3.3808,-3.4703,-3.5818,-3.6114,-3.5915,-3.5711,-3.5711,-3.5932,-3.6156,-3.6333,-3.6539,-3.6821,-3.7055,-3.7376,-3.7667,-3.9222,-4.1165,-4.2509,-4.3185,-4.3497,-4.3497,-4.3497,-4.3532,-4.3686,-4.3828,-4.3999,-4.4121,-4.426,-4.4457,-4.4655,-4.633,-4.7764,-4.7968,-4.8049,-4.8105,-4.8105,-4.6663,-4.6047,-4.7336,-4.7509,-4.799,-4.926,-4.9394,-4.9586,-5.001,-5.0048,-5.024,-5.0664,-5.0702,-5.0702,-5.0702,-5.0702,-5.0702,-5.0702,-5.0702,-5.0702,-5.0702,-5.026,-4.9817,-4.9394,-4.9394,-4.8702,-1.2557,-1.2394,-1.2122,-1.1998,-1.1802,-1.171,0.0,0.0,0.0,-1.2947,-1.3137,-1.3438,-1.4127,-1.4349,-1.4611,-1.5286,-1.564,-1.6123,-1.6853,-1.8831,-2.0487,-2.1282,-2.2003,-2.2431,-2.2446,-2.3201,-2.3917,-2.4578,-2.5281,-2.5815,-2.6009,-2.6403,-2.6742,-2.6942,-2.7149,-2.7289,-2.731,-2.7258,-2.7853,-2.9059,-2.9034,-2.9685,-3.0987,-3.114,-3.119,-3.119,-3.119,-3.119,-3.1258,-3.1985,-3.2645,-3.338,-3.5096,-3.5778,-3.5773,-3.5622,-3.5667,-3.5756,-3.5941,-3.6071,-3.6174,-3.6367,-3.6736,-3.7223,-3.7702,-3.9293,-4.1075,-4.2029,-4.2763,-4.3296,-4.3442,-4.3497,-4.3513,-4.3548,-4.3682,-4.3832,-4.3878,-4.3986,-4.4151,-4.4421,-4.5904,-4.7267,-4.7786,-4.799,-4.8105,-4.8105,-4.6663,-4.5913,-4.6797,-4.6913,-4.7221,-4.8009,-4.8105,-4.8452,-4.9336,-4.9394,-4.976,-5.0625,-5.0702,-5.0702,-5.0702,-5.0702,-5.0702,-5.0702,-5.0702,-5.0702,-5.0702,-5.0702,-5.0702,-5.0702,-5.0702,-4.976,-1.2722,-1.2636,-1.2503,-1.2778,-1.2526,-1.2148,-1.1835,0.0,-1.2123,-1.2427,0.0,-1.2667,-1.3254,0.0,0.0,-1.3478,-1.413,-1.4716,-1.5052,-1.5955,-1.7506,-1.9997,-2.0929,-2.1407,-2.1543,-2.2082,-2.254,-2.2848,-2.3935,-2.4704,-2.4952,-2.5912,-2.6521,-2.6725,-2.6989,-2.7103,-2.704,-2.7103,-2.7449,-2.8151,-2.8725,-2.9414,-3.026,-3.0903,-3.119,-3.119,-3.119,-3.119,-3.1258,-3.1985,-3.2364,-3.2601,-3.4075,-3.5074,-3.5622,-3.5622,-3.5622,-3.5622,-3.5667,-3.5667,-3.5694,-3.5711,-3.6374,-3.7408,-3.851,-3.9381,-4.0341,-4.1864,-4.2378,-4.2598,-4.3296,-4.3497,-4.3479,-4.3532,-4.3532,-4.3566,-4.3566,-4.3582,-4.3682,-4.3986,-4.5087,-4.6367,-4.7583,-4.797,-4.8105,-4.8105,-4.6663,-4.5913,-4.6797,-4.6913,-4.7221,-4.8009,-4.8105,-4.8452,-4.9336,-4.9394,-4.976,-5.0625,-5.0702,-5.0702,-5.0702,-5.0702,-5.0702,-5.0702,-5.0702,-5.0702,-5.0702,-5.0702,-5.0702,-5.0702,-5.0702,-4.976,-1.3555,-1.3214,-1.2812,-1.2828,-1.2404,-1.1964,-1.1833,-1.1955,-1.2258,-1.2851,0.0,0.0,0.0,0.0,0.0,0.0,-1.3763,-1.3908,-1.4067,-1.4774,-1.5928,-1.778,-1.8702,-1.9426,-2.0127,-2.0872,-2.1424,-2.1655,-2.2645,-2.3581,-2.4342,-2.551,-2.6262,-2.6453,-2.6725,-2.6858,-2.6825,-2.6858,-2.7216,-2.7911,-2.8655,-2.9381,-3.0142,-3.0869,-3.119,-3.119,-3.119,-3.119,-3.1207,-3.1512,-3.1901,-3.2374,-3.344,-3.4303,-3.5013,-3.5453,-3.5622,-3.5622,-3.5622,-3.5622,-3.5622,-3.5844,-3.6433,-3.7185,-3.7898,-3.8882,-3.9991,-4.1177,-4.1922,-4.2488,-4.3277,-4.3497,-4.3497,-4.3497,-4.3497,-4.3497,-4.3497,-4.3497,-4.36,-4.3878,-4.4923,-4.5957,-4.6638,-4.712,-4.7413,-4.7413,-4.6374,-4.572,-4.6105,-4.6144,-4.6278,-4.6605,-4.6644,-4.7182,-4.8529,-4.8644,-4.9221,-5.0606,-5.0702,-5.0702,-5.0702,-5.0702,-5.0702,-5.0702,-5.0702,-5.0702,-5.0702,-5.0702,-5.0702,-5.0702,-5.0702,-4.976,-1.4077,-1.3655,-1.3056,-1.2642,-1.2175,-1.1794,-1.1674,-1.1901,-1.2327,-1.2998,-1.335,0.0,0.0,0.0,-1.3877,0.0,0.0,-1.3391,-1.3493,-1.3956,-1.4739,-1.5909,-1.6992,-1.7876,-1.8542,-1.9457,-2.0117,-2.0307,-2.1191,-2.2185,-2.3328,-2.4778,-2.5645,-2.5855,-2.6318,-2.6556,-2.6556,-2.6556,-2.6842,-2.738,-2.8339,-2.9097,-2.9652,-3.0594,-3.1032,-3.1032,-3.1032,-3.1032,-3.1072,-3.1112,-3.1415,-3.2029,-3.3034,-3.3728,-3.4303,-3.5267,-3.5622,-3.5622,-3.5622,-3.5622,-3.5667,-3.6036,-3.6426,-3.686,-3.7246,-3.8204,-3.9392,-4.0568,-4.1434,-4.2213,-4.3222,-4.3497,-4.3497,-4.3497,-4.3497,-4.3497,-4.3497,-4.3497,-4.3548,-4.38,-4.4606,-4.5303,-4.5496,-4.6221,-4.6801,-4.6801,-4.6071,-4.5514,-4.5532,-4.555,-4.555,-4.5568,-4.5586,-4.6278,-4.7933,-4.8068,-4.8798,-5.0547,-5.0663,-5.0663,-5.0702,-5.0702,-5.0702,-5.0702,-5.0702,-5.0702,-5.0702,-5.0702,-5.0702,-5.0702,-5.0702,-4.976,-1.4077,-1.3818,-1.3281,-1.2441,-1.2074,-1.1721,-1.1152,-1.152,-1.2088,-1.2363,-1.2963,-1.3517,-1.3945,-1.3727,0.0,0.0,0.0,0.0,0.0,-1.3245,-1.3654,-1.4825,-1.6468,-1.7345,-1.6915,-1.7754,-1.8358,-1.8549,-1.9431,-2.0452,-2.1537,-2.3419,-2.4535,-2.4729,-2.5719,-2.6206,-2.6206,-2.6206,-2.6222,-2.6256,-2.7665,-2.8323,-2.839,-2.9847,-3.051,-3.051,-3.051,-3.0609,-3.0733,-3.0871,-3.0952,-3.12,-3.279,-3.3423,-3.3609,-3.5081,-3.5622,-3.5622,-3.5622,-3.5622,-3.5667,-3.5932,-3.6199,-3.6498,-3.6974,-3.7523,-3.8341,-4.0197,-4.0912,-4.1515,-4.3075,-4.3497,-4.3497,-4.3497,-4.3497,-4.3497,-4.3497,-4.3497,-4.3566,-4.3753,-4.3955,-4.4114,-4.4327,-4.5545,-4.6502,-4.6502,-4.5833,-4.5338,-4.5398,-4.5419,-4.5438,-4.5495,-4.5568,-4.6241,-4.7857,-4.7932,-4.8659,-5.0385,-5.0582,-5.0623,-5.0702,-5.0702,-5.0702,-5.0702,-5.0702,-5.0702,-5.0702,-5.0702,-5.0702,-5.0702,-5.0702,-4.976,-1.498,-1.4678,-1.415,-1.3291,-1.285,-1.2483,-1.1796,-1.1923,-1.2362,-1.3236,-1.3706,-1.4328,-1.5324,-1.4991,0.0,0.0,0.0,0.0,0.0,-1.2955,-1.3179,-1.3714,-1.4915,-1.5543,-1.5065,-1.5865,-1.6653,-1.7205,-1.8141,-1.9337,-2.0827,-2.273,-2.386,-2.4116,-2.5035,-2.554,-2.554,-2.554,-2.554,-2.5556,-2.6513,-2.721,-2.7656,-2.8653,-2.9351,-2.9777,-2.9777,-2.9924,-3.0113,-3.0393,-3.0634,-3.0914,-3.2191,-3.2966,-3.3592,-3.5081,-3.5622,-3.5622,-3.5622,-3.5622,-3.5622,-3.5817,-3.6344,-3.7025,-3.7439,-3.8298,-3.9365,-4.076,-4.1415,-4.1951,-4.3118,-4.3463,-4.3497,-4.3497,-4.3497,-4.3497,-4.3497,-4.3497,-4.3513,-4.3634,-4.3814,-4.3986,-4.406,-4.459,-4.5059,-4.5217,-4.5014,-4.4887,-4.4981,-4.5115,-4.5243,-4.5342,-4.5513,-4.6223,-4.7798,-4.884,-4.9652,-5.0187,-5.0374,-5.0542,-5.0683,-5.0702,-5.0702,-5.0702,-5.0702,-5.0414,-4.9837,-4.9837,-4.9529,-4.8971,-4.8971,-4.8663,-1.5684,-1.5439,-1.5029,-1.418,-1.3684,-1.3185,-1.2467,-1.2478,-1.2888,-1.36,-1.4216,-1.4967,-1.6112,-1.5681,-1.5081,0.0,0.0,0.0,0.0,-1.265,-1.2826,-1.3012,-1.405,-1.4501,-1.4033,-1.4958,-1.573,-1.6069,-1.6987,-1.8158,-1.9642,-2.1478,-2.2717,-2.3226,-2.4374,-2.4981,-2.4981,-2.4981,-2.4981,-2.4981,-2.5719,-2.6306,-2.6767,-2.7731,-2.837,-2.8831,-2.9023,-2.9287,-2.9572,-2.9908,-3.0182,-3.0576,-3.1641,-3.2522,-3.3371,-3.4732,-3.5385,-3.5622,-3.5622,-3.5622,-3.5673,-3.6034,-3.6576,-3.7182,-3.7767,-3.8597,-3.9582,-4.0762,-4.1445,-4.2032,-4.2996,-4.3393,-4.3497,-4.3497,-4.3497,-4.3497,-4.3497,-4.3497,-4.3513,-4.3548,-4.3667,-4.3767,-4.3814,-4.3873,-4.4072,-4.4411,-4.4465,-4.4519,-4.465,-4.4825,-4.5007,-4.5178,-4.538,-4.611,-4.763,-4.9262,-5.0169,-5.013,-5.031,-5.0521,-5.0683,-5.0702,-5.0702,-5.0702,-5.0702,-5.026,-4.9394,-4.9394,-4.8952,-4.8086,-4.7817,-4.7682]}]]